[[{"header":{"parameterUnit":"m.s-1","parameterCategory":1,"la1":30.6,"la2":29.2853,"lo1":-89.7004,"lo2":-87.6739,"dy":0.0162,"dx":0.0183,"nx":112,"ny":82,"refTime":"2023-05-14T12:00:00:Z","depth":0,"parameterNumber":2,"parameterNumberName":"U-component_of_WINDS"},"data":[0.0,0.0,0.0,0.0,0.0,0.0,0.0,0.0,0.0,0.0,0.0,0.0,0.0,0.0,0.0,0.0,0.0,0.0,0.0,0.0,0.0,0.0,0.0,0.0,0.0,0.0,0.0,0.0,0.0,0.0,0.0,0.0,0.0,0.0,0.0,0.0,0.0,0.0,0.0,0.0,0.0,0.0,0.0,0.0,0.0,0.0,0.0,0.0,0.0,0.0,0.0,0.0,0.0,0.0,0.0,0.0,0.0,0.0,0.0,0.0,0.0,0.0,0.0,0.0,0.0,0.0,0.0,0.0,0.0,0.0,0.0,0.0,0.0,0.0,0.0,0.0,0.0,0.0,0.0,0.0,0.0,0.0,0.0,0.0,0.0,0.0,0.0,0.0,0.0,0.0,1.6427,1.6605,1.777,1.8545,1.8485,1.8483,1.7703,1.5987,0.0,0.0,0.0,0.0,0.0,0.0,0.0,0.0,0.0,0.0,0.0,0.0,0.0,0.0,0.0,0.0,0.0,0.0,0.0,0.0,0.0,0.0,0.0,0.0,0.0,0.0,0.0,0.0,0.0,0.0,0.0,0.0,0.0,0.0,0.0,0.0,0.0,0.0,0.0,0.0,0.0,0.0,0.0,0.0,0.0,0.0,0.0,0.0,0.0,0.0,0.0,0.0,0.0,0.0,0.0,0.0,0.0,0.0,0.0,0.0,0.0,0.0,0.0,0.0,0.0,0.0,0.0,0.0,0.0,0.0,0.0,0.0,0.0,0.0,0.0,0.0,0.0,0.0,0.0,0.0,0.0,0.0,0.0,0.0,0.0,0.0,0.0,0.0,0.0,0.0,0.0,0.0,0.0,0.0,0.0,0.0,0.0,0.0,0.0,0.0,0.0,0.0,0.0,0.0,1.6641,1.7936,1.8248,1.8351,1.8406,1.8301,1.7541,1.5914,0.0,0.0,0.0,0.0,0.0,0.0,0.0,0.0,0.0,0.0,0.0,0.0,0.0,0.0,0.0,0.0,0.0,0.0,0.0,0.0,0.0,0.0,0.0,0.0,0.0,0.0,0.0,0.0,0.0,0.0,0.0,0.0,0.0,0.0,0.0,0.0,0.0,0.0,0.0,0.0,0.0,0.0,0.0,0.0,0.0,0.0,0.0,0.0,0.0,0.0,0.0,0.0,0.0,0.0,0.0,0.0,0.0,0.0,0.0,0.0,0.0,0.0,0.0,0.0,0.0,0.0,0.0,0.0,0.0,0.0,0.0,0.0,0.0,0.0,0.0,0.0,0.0,0.0,0.0,0.0,0.0,0.0,0.0,0.0,0.0,0.0,0.0,0.0,0.0,0.0,0.0,0.0,0.0,0.0,0.0,0.0,0.0,0.0,0.0,0.0,0.0,0.0,0.0,1.5141,1.6581,1.8125,1.826,1.8243,1.8239,1.8176,1.7439,1.5799,1.5678,0.0,0.0,0.0,0.0,0.0,0.0,0.0,0.0,0.0,0.0,0.0,0.0,0.0,0.0,0.0,0.0,0.0,0.0,0.0,0.0,0.0,0.0,0.0,0.0,0.0,0.0,0.0,0.0,0.0,0.0,0.0,0.0,0.0,0.0,0.0,0.0,0.0,0.0,0.0,0.0,0.0,0.0,0.0,0.0,0.0,0.0,0.0,0.0,0.0,0.0,0.0,0.0,0.0,0.0,0.0,0.0,0.0,0.0,0.0,0.0,0.0,0.0,0.0,0.0,0.0,0.0,0.0,0.0,0.0,0.0,0.0,0.0,0.0,0.0,0.0,0.0,0.0,0.0,0.0,0.0,0.0,0.0,0.0,0.0,0.0,0.0,0.0,0.0,0.0,0.0,0.0,0.0,0.0,0.0,0.0,0.0,0.0,0.0,0.0,0.0,0.0,0.0,1.5827,1.6411,1.7915,1.8108,1.807,1.8031,1.8009,1.7297,1.568,1.5556,0.0,0.0,0.0,0.0,0.0,0.0,0.0,0.0,0.0,0.0,0.0,0.0,0.0,0.0,0.0,0.0,0.0,0.0,0.0,0.0,0.0,0.0,0.0,0.0,0.0,0.0,0.0,0.0,0.0,0.0,0.0,0.0,0.0,0.0,0.0,0.0,0.0,0.0,0.0,0.0,0.0,0.0,0.0,0.0,0.0,0.0,0.0,0.0,0.0,0.0,0.0,0.0,0.0,0.0,0.0,0.0,0.0,0.0,0.0,0.0,0.0,0.0,0.0,0.0,0.0,0.0,0.0,0.0,0.0,0.0,0.0,0.0,0.0,0.0,0.0,0.0,0.0,0.0,0.0,0.0,0.0,0.0,0.0,0.0,0.0,0.0,0.0,0.0,0.0,0.0,0.0,0.0,0.0,0.0,0.0,0.0,0.0,0.0,0.0,0.0,0.0,0.0,1.5578,1.6153,1.758,1.7772,1.7833,1.7833,1.7772,1.7086,1.5603,1.5436,0.0,0.0,0.0,0.0,0.0,0.0,0.0,0.0,0.0,0.0,0.0,0.0,0.0,0.0,0.0,0.0,0.0,0.0,0.0,0.0,0.0,0.0,0.0,0.0,0.0,0.0,0.0,0.0,0.0,0.0,0.0,0.0,0.0,0.0,0.0,0.0,0.0,0.0,0.0,0.0,0.0,0.0,0.0,0.0,0.0,0.0,0.0,0.0,0.0,0.0,0.0,0.0,0.0,0.0,0.0,0.0,0.0,0.0,0.0,0.0,0.0,0.0,0.0,0.0,0.0,0.0,0.0,0.0,0.0,0.0,0.0,0.0,0.0,0.0,0.0,0.0,0.0,0.0,0.0,0.0,0.0,0.0,0.0,0.0,0.0,0.0,0.0,0.0,0.0,0.0,0.0,0.0,0.0,0.0,0.0,0.0,0.0,0.0,0.0,0.0,0.0,0.0,1.5395,1.5946,0.0,1.7542,1.7566,1.7595,1.7177,1.6469,1.5503,0.0,0.0,0.0,0.0,0.0,0.0,0.0,0.0,0.0,0.0,0.0,0.0,0.0,0.0,0.0,0.0,0.0,0.0,0.0,0.0,0.0,0.0,0.0,0.0,0.0,0.0,0.0,0.0,0.0,0.0,0.0,0.0,0.0,0.0,0.0,0.0,0.0,0.0,0.0,0.0,0.0,0.0,0.0,0.0,0.0,0.0,0.0,0.0,0.0,0.0,0.0,0.0,0.0,0.0,0.0,0.0,0.0,0.0,0.0,0.0,0.0,0.0,0.0,0.0,0.0,0.0,0.0,0.0,0.0,0.0,0.0,0.0,0.0,0.0,0.0,0.0,0.0,0.0,0.0,0.0,0.0,0.0,0.0,0.0,0.0,0.0,0.0,0.0,0.0,0.0,0.0,0.0,0.0,0.0,0.0,0.0,0.0,0.0,0.0,0.0,0.0,0.0,1.4767,1.5166,1.5709,0.0,1.7305,1.7353,1.7425,1.6762,1.605,1.5379,0.0,0.0,0.0,0.0,0.0,0.0,0.0,0.0,0.0,0.0,0.0,0.0,0.0,0.0,0.0,0.0,0.0,0.0,0.0,0.0,0.0,0.0,0.0,0.0,0.0,0.0,0.0,0.0,0.0,0.0,0.0,0.0,0.0,0.0,0.0,0.0,0.0,0.0,0.0,0.0,0.0,0.0,0.0,0.0,0.0,0.0,0.0,0.0,0.0,0.0,0.0,0.0,0.0,0.0,0.0,0.0,0.0,0.0,0.0,0.0,0.0,0.0,0.0,0.0,0.0,0.0,0.0,0.0,0.0,0.0,0.0,0.0,0.0,0.0,0.0,0.0,0.0,0.0,0.0,0.0,0.0,0.0,0.0,0.0,0.0,0.0,0.0,0.0,0.0,0.0,0.0,0.0,0.0,0.0,0.0,0.0,0.0,0.0,0.0,0.0,0.0,0.0,1.4454,1.4869,1.5457,1.6921,1.7149,1.7224,1.7281,1.661,1.5911,0.0,0.0,0.0,0.0,0.0,0.0,0.0,0.0,0.0,0.0,0.0,0.0,0.0,0.0,0.0,0.0,0.0,0.0,0.0,0.0,0.0,0.0,0.0,0.0,0.0,0.0,0.0,0.0,0.0,0.0,0.0,0.0,0.0,0.0,0.0,0.0,0.0,0.0,0.0,0.0,0.0,0.0,0.0,0.0,0.0,0.0,0.0,0.0,0.0,0.0,0.0,0.0,0.0,0.0,0.0,0.0,0.0,0.0,0.0,0.0,0.0,0.0,0.0,0.0,0.0,0.0,0.0,0.0,0.0,0.0,0.0,0.0,0.0,0.0,0.0,0.0,0.0,0.0,0.0,0.0,0.0,0.0,0.0,0.0,0.0,0.0,0.0,0.0,0.0,0.0,0.0,0.0,0.0,0.0,0.0,0.0,0.0,0.0,0.0,0.0,0.0,0.0,0.0,1.4373,1.4764,1.531,1.6811,1.7023,1.7074,1.7158,1.6531,1.5866,1.5232,0.0,0.0,0.0,0.0,0.0,0.0,0.0,0.0,0.0,0.0,0.0,0.0,0.0,0.0,0.0,0.0,0.0,0.0,0.0,0.0,0.0,0.0,0.0,0.0,0.0,0.0,0.0,0.0,0.0,0.0,0.0,0.0,0.0,0.0,0.0,0.0,0.0,0.0,0.0,0.0,0.0,0.0,0.0,0.0,0.0,0.0,0.0,0.0,0.0,0.0,0.0,0.0,0.0,0.0,0.0,0.0,0.0,0.0,0.0,0.0,0.0,0.0,0.0,0.0,0.0,0.0,0.0,0.0,0.0,0.0,0.0,0.0,0.0,0.0,0.0,0.0,0.0,0.0,0.0,0.0,0.0,0.0,0.0,0.0,0.0,0.0,0.0,0.0,0.0,0.0,0.0,0.0,0.0,0.0,0.0,0.0,0.0,0.0,0.0,0.0,0.0,0.0,1.4381,1.489,1.5535,1.6725,1.6905,1.6972,1.7048,1.6459,1.5798,1.5195,0.0,0.0,0.0,0.0,0.0,0.0,0.0,0.0,0.0,0.0,0.0,0.0,0.0,0.0,0.0,0.0,0.0,0.0,0.0,0.0,0.0,0.0,0.0,0.0,0.0,0.0,0.0,0.0,0.0,0.0,0.0,0.0,0.0,0.0,0.0,0.0,0.0,0.0,0.0,0.0,0.0,0.0,0.0,0.0,0.0,0.0,0.0,0.0,0.0,0.0,0.0,0.0,0.0,0.0,0.0,0.0,0.0,0.0,0.0,0.0,0.0,0.0,0.0,0.0,0.0,0.0,0.0,0.0,0.0,0.0,0.0,0.0,0.0,0.0,0.0,0.0,0.0,0.0,0.0,0.0,0.0,0.0,0.0,0.0,0.0,0.0,0.0,0.0,0.0,0.0,0.0,0.0,0.0,0.0,0.0,0.0,0.0,0.0,0.0,0.0,0.0,0.0,1.4411,1.5169,1.5914,1.6706,1.6785,1.6853,1.6972,1.6435,1.5834,1.525,0.0,0.0,0.0,0.0,0.0,0.0,0.0,0.0,0.0,0.0,0.0,0.0,0.0,0.0,0.0,0.0,0.0,0.0,0.0,0.0,0.0,0.0,0.0,0.0,0.0,0.0,0.0,0.0,0.0,0.0,0.0,0.0,0.0,0.0,0.0,0.0,0.0,0.0,0.0,0.0,0.0,0.0,0.0,0.0,0.0,0.0,0.0,0.0,0.0,0.0,0.0,0.0,0.0,0.0,0.0,0.0,0.0,0.0,0.0,0.0,1.7737,1.6588,0.0,0.0,0.0,0.0,0.0,0.0,0.0,0.0,0.0,0.0,0.0,0.0,0.0,0.0,0.0,0.0,0.0,0.0,0.0,0.0,0.0,0.0,0.0,0.0,0.0,0.0,0.0,0.0,0.0,0.0,0.0,0.0,0.0,0.0,0.0,0.0,0.0,0.0,0.0,0.0,1.4426,1.5137,1.5814,1.6544,1.6649,1.6717,1.6905,1.6903,1.6621,1.6004,1.5352,0.0,0.0,0.0,0.0,0.0,0.0,0.0,0.0,0.0,0.0,0.0,0.0,0.0,0.0,0.0,0.0,0.0,0.0,0.0,0.0,0.0,0.0,0.0,0.0,0.0,0.0,0.0,0.0,0.0,0.0,0.0,0.0,0.0,0.0,0.0,0.0,0.0,0.0,0.0,0.0,0.0,0.0,0.0,0.0,0.0,0.0,0.0,0.0,0.0,0.0,0.0,0.0,0.0,0.0,0.0,0.0,0.0,0.0,0.0,2.1631,1.9782,0.0,0.0,0.0,0.0,0.0,0.0,0.0,0.0,0.0,0.0,0.0,0.0,0.0,0.0,0.0,0.0,0.0,0.0,0.0,0.0,0.0,0.0,0.0,0.0,0.0,0.0,0.0,0.0,0.0,0.0,0.0,0.0,0.0,0.0,0.0,0.0,0.0,0.0,0.0,0.0,1.4924,1.56,1.6124,1.6485,1.6543,1.6623,1.6795,1.6949,1.6832,1.6272,1.5686,0.0,0.0,0.0,0.0,0.0,0.0,0.0,0.0,0.0,0.0,0.0,0.0,0.0,0.0,0.0,0.0,0.0,0.0,0.0,0.0,0.0,0.0,0.0,0.0,0.0,0.0,0.0,0.0,0.0,0.0,0.0,0.0,0.0,0.0,0.0,0.0,0.0,0.0,0.0,0.0,0.0,0.0,0.0,0.0,0.0,0.0,0.0,0.0,0.0,0.0,0.0,0.0,0.0,2.5625,2.6355,2.771,2.779,2.8109,2.8475,2.5862,2.3541,2.1597,2.1474,0.0,0.0,0.0,0.0,0.0,0.0,0.0,0.0,0.0,0.0,0.0,0.0,0.0,0.0,0.0,0.0,0.0,0.0,0.0,0.0,0.0,0.0,1.4964,1.5516,1.5647,1.5197,1.3573,0.0,0.0,0.0,0.0,0.0,0.0,0.0,0.0,0.0,0.0,0.0,1.5462,1.6067,1.6448,1.6382,1.6463,1.6538,1.6696,1.6876,1.6849,1.6499,1.5992,1.5404,0.0,0.0,0.0,0.0,0.0,0.0,0.0,0.0,0.0,0.0,0.0,0.0,0.0,0.0,0.0,0.0,0.0,0.0,0.0,0.0,0.0,0.0,0.0,0.0,0.0,0.0,0.0,0.0,0.0,0.0,0.0,0.0,1.827,1.9833,0.0,0.0,0.0,0.0,0.0,0.0,0.0,0.0,0.0,0.0,0.0,0.0,0.0,2.6822,2.7035,2.7659,2.8001,2.8052,2.8684,2.9394,3.017,3.0791,3.1062,3.103,3.0606,0.0,2.4734,2.411,0.0,0.0,0.0,0.0,0.0,0.0,0.0,0.0,0.0,0.0,0.0,0.0,0.0,0.0,0.0,0.0,0.0,0.0,0.0,0.0,0.0,0.0,1.6851,1.6938,1.6953,1.688,1.6634,1.5255,1.4021,1.3972,1.3554,1.3253,0.0,0.0,0.0,0.0,0.0,0.0,1.5396,1.5962,1.6355,1.6382,1.6409,1.649,1.667,1.6876,1.706,1.7149,1.6725,1.6184,1.5579,1.4311,0.0,0.0,0.0,0.0,0.0,0.0,0.0,0.0,0.0,0.0,0.0,0.0,0.0,0.0,0.0,0.0,0.0,0.0,0.0,0.0,0.0,0.0,0.0,0.0,0.0,0.0,0.0,0.0,0.0,1.9558,2.1043,2.2281,2.2136,2.2082,0.0,0.0,0.0,0.0,0.0,0.0,0.0,0.0,0.0,2.8518,2.9621,3.0386,3.0812,3.1056,3.1397,3.1761,3.2032,3.2545,3.3202,3.3508,3.3588,3.3473,3.3473,3.2117,2.979,2.7719,2.6391,2.5547,0.0,0.0,0.0,0.0,2.3072,2.3295,2.2521,2.1965,2.1474,2.0752,0.0,0.0,0.0,0.0,0.0,0.0,0.0,1.8095,1.8339,1.8608,1.8927,1.9261,1.9333,1.9333,1.9333,1.8404,1.7127,1.5752,1.533,1.5138,1.4892,1.5284,0.0,0.0,0.0,1.6886,1.6972,1.6851,1.6747,1.6734,1.6481,1.6355,1.6501,1.6773,1.7052,1.7288,1.6926,1.6438,1.5844,1.5016,1.391,0.0,0.0,0.0,0.0,0.0,0.0,0.0,0.0,0.0,0.0,0.0,0.0,0.0,0.0,0.0,0.0,0.0,0.0,0.0,0.0,0.0,0.0,0.0,0.0,0.0,0.0,0.0,0.0,2.2465,2.3828,2.4686,2.5041,2.5211,0.0,0.0,0.0,0.0,0.0,0.0,2.8971,3.0331,3.1365,3.189,3.2705,3.3382,3.3948,3.3851,3.4065,3.4595,3.4548,3.4843,3.5525,3.5525,3.542,3.5279,3.5279,3.4711,3.3599,3.1107,2.9551,2.8704,2.8111,2.7761,2.7486,2.6588,2.6546,2.6808,2.5731,2.5096,2.4645,2.3779,2.2753,2.1834,2.1466,0.0,0.0,0.0,0.0,1.9918,2.0283,2.0375,2.0436,2.0886,2.1003,2.1003,2.1003,2.0654,1.9711,1.7641,1.7086,1.6831,1.6409,1.6787,0.0,0.0,0.0,1.808,1.8097,1.7608,1.7182,1.6985,1.6632,1.6391,1.6414,1.6712,1.701,1.732,1.716,1.6744,1.599,1.5673,1.4734,1.3081,0.0,0.0,0.0,0.0,0.0,0.0,0.0,0.0,0.0,0.0,0.0,0.0,0.0,0.0,0.0,0.0,0.0,0.0,0.0,0.0,0.0,0.0,0.0,0.0,0.0,0.0,0.0,0.0,0.0,2.7103,2.7973,0.0,0.0,0.0,0.0,3.0559,3.1373,3.2101,3.278,3.362,3.4087,3.4141,3.4914,3.5364,3.5382,3.54,3.5385,3.5339,3.5339,3.5665,3.6328,3.6328,3.6221,3.6022,3.6022,3.5506,3.4565,3.3634,3.2774,3.1952,3.183,3.167,3.1313,3.0429,2.9989,2.9681,2.877,2.7807,2.6895,2.6596,2.5497,2.429,2.4092,2.3416,0.0,0.0,2.1824,2.1259,2.1164,2.1041,2.0959,2.0988,2.1003,2.1003,2.1003,2.0973,2.0782,2.0118,1.9031,1.8232,1.8347,0.0,1.767,1.7749,1.7908,1.797,1.7842,1.7797,1.7526,1.6879,1.6894,1.6812,1.6418,1.6712,1.7052,1.7384,1.7693,1.7315,1.6133,1.6251,1.5347,1.3231,1.3284,0.0,0.0,0.0,0.0,0.0,0.0,0.0,0.0,0.0,0.0,0.0,0.0,0.0,0.0,0.0,0.0,0.0,0.0,0.0,0.0,0.0,0.0,0.0,0.0,0.0,0.0,0.0,0.0,3.0324,3.1128,0.0,3.1627,3.188,3.2545,3.3759,3.4119,3.4824,3.6052,3.6894,3.7307,3.7307,3.8115,3.8528,3.8528,3.8492,3.8438,3.8438,3.8346,3.8435,3.8665,3.8665,3.8552,3.8359,3.8359,3.81,3.7637,3.7259,3.5727,3.3607,3.3422,3.3231,3.3041,3.2508,3.2246,3.209,3.1466,3.0675,2.9716,2.8812,2.7628,2.6523,2.6317,2.5618,2.4835,2.4462,2.4103,2.3835,2.3714,2.3562,2.347,2.347,2.3378,2.3317,2.3317,2.2953,2.2548,2.2377,2.1162,2.0172,2.025,1.9767,1.9449,1.9536,1.9165,1.8912,1.8947,1.8525,1.7956,1.7399,1.7059,1.6726,1.6296,1.6607,1.6977,1.732,1.7738,1.7638,1.6886,1.665,1.5984,1.4818,1.392,1.324,0.0,0.0,0.0,0.0,0.0,0.0,0.0,0.0,0.0,0.0,0.0,0.0,0.0,0.0,0.0,0.0,0.0,0.0,0.0,0.0,0.0,0.0,0.0,0.0,0.0,0.0,3.2522,3.3147,3.4101,3.4763,3.4763,3.4997,3.5576,3.659,3.6878,3.7488,3.8456,3.9281,3.9586,3.9317,4.0088,4.0374,4.0105,4.0047,4.0027,4.0027,3.9932,3.9914,3.9914,3.9893,3.9775,3.9615,3.9575,3.9429,3.9203,3.9118,3.7788,3.5815,3.5618,3.5452,3.5274,3.4423,3.4107,3.391,3.294,3.213,3.1397,3.0459,2.9516,2.87,2.8429,2.7712,2.6955,2.6553,2.6031,2.5545,2.5463,2.5155,2.48,2.4737,2.4687,2.4575,2.4525,2.4146,2.3798,2.3798,2.2478,2.1323,2.1323,2.091,2.0479,2.0299,1.9903,1.9551,1.942,1.8957,1.8429,1.7884,1.7381,1.697,1.6607,1.6749,1.6977,1.7327,1.7788,1.7824,1.7381,1.7125,1.6595,1.5754,1.4307,1.3621,1.3731,0.0,0.0,0.0,0.0,0.0,0.0,0.0,0.0,0.0,0.0,0.0,0.0,0.0,0.0,0.0,0.0,0.0,0.0,0.0,0.0,0.0,0.0,0.0,3.069,3.3351,3.5518,3.5518,3.6896,3.7864,3.79,3.8618,3.9049,3.9045,3.9761,4.0152,4.0057,4.0788,4.086,4.0092,4.0806,4.0842,4.0057,4.0057,4.0057,4.0057,4.0039,4.0021,3.9982,3.9921,3.9802,3.9686,3.9582,3.9417,3.9171,3.912,3.8903,3.8653,3.8601,3.8431,3.7996,3.626,3.5525,3.5065,3.3159,3.225,3.1871,3.1532,3.1189,3.0787,3.0376,2.9657,2.8985,2.8689,2.749,2.6297,2.6312,2.5643,2.4916,2.4725,2.4646,2.4583,2.4483,2.4419,2.4405,2.4405,2.2922,2.1668,2.1654,2.1198,2.061,2.0048,1.9969,0.0,1.9094,1.9055,1.8891,1.8373,1.7981,1.7619,1.7312,1.7056,1.7093,1.7462,1.7876,1.7925,1.756,1.771,1.7198,1.5873,1.4503,1.3845,1.3914,0.0,0.0,0.0,0.0,0.0,0.0,0.0,0.0,0.0,0.0,0.0,0.0,0.0,0.0,0.0,0.0,0.0,0.0,0.0,0.0,0.0,0.0,3.4889,3.3845,3.6096,3.79,3.7936,3.8832,3.9691,4.0265,4.0554,4.1085,4.2167,4.2453,4.2769,4.3286,4.3536,4.3554,4.3322,4.3536,4.3536,4.3322,4.3322,4.3322,4.3322,4.2668,4.2359,4.2341,4.1682,4.1332,4.1188,4.1188,4.1016,4.0734,4.0645,4.0464,4.0146,3.8843,3.8167,3.7835,3.7208,3.6687,3.6157,3.4871,3.421,3.3822,3.3054,3.2222,3.1436,3.1082,3.0358,2.9614,2.9241,2.8705,2.8263,2.8169,2.7472,2.678,2.6712,2.6193,2.5706,2.5653,2.518,2.4817,2.4817,2.4041,2.3334,2.3022,2.2083,2.1312,2.1141,2.0353,1.9695,1.9538,1.9214,1.8846,1.8337,1.8382,1.8132,1.7343,1.75,1.7604,1.7559,1.7936,1.8226,1.8359,1.8048,1.7559,1.6896,1.6554,1.6464,0.0,0.0,0.0,0.0,0.0,0.0,0.0,0.0,0.0,0.0,0.0,0.0,0.0,0.0,0.0,0.0,0.0,0.0,0.0,0.0,0.0,0.0,3.6953,3.8203,3.8436,3.9533,4.0435,4.0778,4.1511,4.2172,4.2655,4.2691,4.3025,4.3911,4.3982,4.4161,4.4589,4.4928,4.4963,4.4624,4.4946,4.492,4.4555,4.4555,4.4511,4.4449,4.3961,4.3704,4.3687,4.3129,4.2829,4.2767,4.266,4.2286,4.1806,4.1603,4.1242,4.0642,0.0,0.0,0.0,0.0,3.735,3.6626,3.5873,3.5412,3.5042,3.4288,3.3552,3.2764,3.2114,3.1541,3.1011,3.035,2.9844,2.9454,2.9243,2.8552,2.7837,2.7739,2.7072,2.6438,2.6397,2.5849,2.5359,2.5306,2.4815,0.0,2.394,2.2955,2.1953,2.1386,2.0682,2.0021,1.9514,1.9268,1.9008,1.8549,1.8588,1.8474,1.8177,1.8023,0.0,0.0,0.0,1.843,1.8843,1.829,0.0,0.0,0.0,1.7425,1.7562,1.7631,0.0,0.0,1.4884,1.5477,0.0,0.0,0.0,0.0,0.0,0.0,0.0,0.0,0.0,0.0,0.0,0.0,0.0,0.0,0.0,0.0,4.0064,4.1682,4.3347,4.3084,4.2929,4.3554,4.4214,4.466,4.4749,4.4749,4.4785,4.4874,4.4874,4.4874,4.4874,0.0,0.0,0.0,0.0,4.5748,4.4867,4.4849,4.4769,4.4572,4.4438,4.4403,4.4403,4.416,4.4078,4.4032,4.381,4.3236,4.2467,4.221,4.1518,4.0556,4.0453,4.0221,3.9851,3.8683,3.7672,3.6816,3.6437,0.0,0.0,3.521,3.4763,3.4248,3.3389,3.2972,3.2571,3.1633,3.085,3.0162,2.9799,2.9074,2.8383,2.8166,2.7555,2.7032,2.6919,2.6372,2.5951,2.5772,2.5284,2.4799,2.4502,2.3571,2.2478,2.1268,2.0992,2.0509,1.9445,1.935,1.926,1.8955,1.8731,0.0,1.9256,1.8641,1.8388,1.8801,1.8611,1.8653,1.9053,1.851,1.829,1.8424,1.7856,1.7606,1.7681,1.7907,1.8048,1.8117,1.7959,1.796,0.0,0.0,0.0,0.0,0.0,0.0,0.0,0.0,0.0,0.0,0.0,0.0,0.0,0.0,0.0,4.1648,4.2483,4.3383,4.5,4.5161,4.4946,4.4464,4.4517,4.4874,4.5517,4.557,4.5838,4.648,4.6534,4.6534,4.6534,4.7283,4.7593,4.7375,4.8087,4.8027,4.7186,4.7169,4.6802,4.6147,4.5452,0.0,4.5088,4.4296,4.3904,4.3763,4.3698,4.3485,4.3103,4.2955,4.2175,4.0968,4.0171,3.9677,3.9398,3.8875,3.8417,3.7961,3.7046,3.6557,3.6121,3.5196,3.4705,3.434,3.3937,3.3608,0.0,3.2108,3.154,3.1093,3.0329,2.9485,2.8763,2.8717,2.8015,2.7418,2.7346,2.6815,2.6284,2.627,2.5785,2.5094,2.4314,2.3365,2.2671,2.2387,2.1517,2.0826,2.0578,1.9879,1.9429,1.9504,1.9357,1.9215,1.9219,1.9421,1.9544,1.9569,1.9537,1.9351,1.895,1.8922,1.8992,1.9181,1.917,1.9214,1.933,2.0129,2.0565,2.0641,1.8712,1.8227,0.0,0.0,0.0,0.0,0.0,0.0,0.0,0.0,0.0,0.0,0.0,3.7405,0.0,0.0,4.2397,4.4463,4.5283,4.6095,4.7333,4.754,4.7122,4.5945,4.5802,4.5963,4.6355,4.6391,4.6569,4.6962,4.7354,4.7586,4.7586,4.8318,4.8699,4.8555,4.891,4.883,4.8279,4.8261,4.8017,4.7562,4.716,4.6692,4.6239,4.5786,4.5236,4.4771,4.4672,4.4314,4.3715,4.298,4.2258,4.1463,4.0809,4.0064,3.9272,3.8914,3.8655,3.8286,3.7648,3.716,3.6688,3.6048,3.5505,3.508,3.4454,3.404,3.3657,3.2555,3.2145,3.1811,3.0788,3.014,2.9628,2.9256,2.8479,2.7866,2.7866,2.7322,2.6775,2.6613,2.612,2.5486,2.4832,2.3906,2.3011,2.24,2.1803,2.1206,2.0609,2.0192,1.9806,1.939,1.9573,1.9642,1.9558,1.9988,2.0188,2.001,2.0125,2.0111,1.9905,2.0063,2.0228,2.0386,2.0517,2.0689,2.0844,2.1392,2.1727,2.1825,2.0718,2.0511,0.0,0.0,0.0,0.0,0.0,0.0,0.0,0.0,3.7101,3.8666,3.9613,4.063,4.2263,4.3825,4.5357,4.6867,4.7725,4.8461,4.918,4.9221,4.8758,4.7511,4.7273,4.7158,4.7015,4.6998,4.7051,4.7212,4.7818,4.8247,4.8389,4.9139,4.9452,4.9288,4.9447,4.9298,4.8904,4.8904,4.873,4.8469,4.8522,4.8137,4.7352,4.7352,4.6917,4.617,4.5857,4.5199,4.4233,4.3158,4.2459,4.2011,4.1697,4.0773,3.9468,3.9231,3.8869,3.8488,3.8142,3.7619,3.7074,3.6785,3.6352,3.5804,3.4958,3.4475,3.4006,3.299,3.2637,3.2299,3.119,3.0777,3.0429,2.9672,2.8969,2.8457,2.8333,2.7748,2.7201,2.6925,2.6377,2.5846,2.5382,2.4527,2.3561,2.2431,2.2058,2.1565,2.0633,2.0489,2.0161,1.9429,1.9765,2.0099,2.0157,2.0527,2.0628,2.0348,2.0601,2.0807,2.0846,2.1022,2.1207,2.1347,2.1479,2.1642,2.183,2.2139,2.2345,2.2512,2.2885,2.2987,2.9834,3.1817,3.3986,3.4934,3.6295,3.7813,0.0,0.0,4.0411,4.1955,4.2959,4.4036,4.5587,4.6784,4.7879,4.8768,4.8964,4.9017,4.9106,4.9025,4.8873,4.8696,4.8318,4.7765,4.7051,4.6998,4.7283,4.7997,4.8122,4.8478,4.9156,4.9942,5.0271,4.9988,5.0661,5.0575,4.9609,4.9609,4.9153,4.8312,4.8312,4.8225,4.8013,4.8013,4.78,4.7407,4.6443,4.5431,4.4495,4.4299,4.3541,4.2402,4.2402,4.1559,4.0345,4.0345,3.972,3.8878,3.8578,3.7804,3.6999,3.6616,3.6148,3.5688,3.5464,3.4912,3.4234,3.3499,3.301,3.2496,3.158,3.1226,3.0954,3.0117,2.9714,2.9326,2.8665,2.794,2.7319,2.717,2.6676,2.5967,2.5135,2.4818,2.4465,2.3615,2.2591,2.1859,2.1739,2.0903,2.0394,2.0489,2.041,2.0596,2.109,2.1229,2.1157,2.0772,2.1148,2.1174,2.0657,2.0824,2.1001,2.1126,2.1267,2.1423,2.1642,2.248,2.3033,2.3289,2.4219,2.3983,3.2553,3.5115,3.7404,0.0,3.9648,4.163,4.2324,4.324,4.4272,4.5334,4.5952,4.6595,4.7727,4.8706,4.9426,0.0,5.0158,5.046,5.0391,5.0358,5.013,4.967,4.9433,4.8857,4.766,4.76,4.7725,4.8157,4.9014,4.9674,4.9995,5.0681,5.1007,5.0803,5.1034,5.0929,5.0382,5.0293,5.001,4.9641,4.955,4.9214,4.8705,4.8578,4.8114,4.7386,4.6703,4.5987,4.5139,4.4758,4.4031,4.3105,4.2731,4.2187,4.1601,4.0776,3.9991,3.9293,3.9123,3.8545,3.7805,3.7582,3.6854,3.6013,3.5696,3.5043,3.4288,3.3675,3.3263,3.2875,3.2024,3.1598,3.124,3.0418,3.0065,2.97,2.8906,2.8518,2.8106,2.7512,2.6906,2.6356,2.5728,2.5071,2.4477,2.4131,2.3137,2.2161,2.1498,2.1195,2.0975,2.0887,2.071,2.0869,2.1576,2.1638,2.1698,2.1796,2.186,2.1858,2.1755,2.1962,2.2136,2.2316,2.2429,2.2586,2.2835,2.3303,2.364,2.3872,2.4457,2.4473,3.5592,0.0,0.0,4.0849,4.2858,4.4874,4.5181,4.6192,4.7139,4.7576,4.7953,4.8316,4.8639,4.959,5.0297,5.0178,5.087,5.1402,5.1246,5.1193,5.0981,5.0399,5.0134,4.9619,4.8604,4.8351,4.8395,4.8704,4.9773,5.0503,5.0717,5.1185,5.1402,5.1246,5.1088,5.0981,5.0819,5.062,5.0547,5.0492,5.0341,4.9894,4.9262,4.8959,4.8316,4.735,4.7039,4.6473,4.5715,4.5186,4.4566,4.3826,4.3195,4.2799,4.2446,4.1241,4.0369,3.9771,3.958,3.9054,3.8442,3.808,3.7345,3.6484,3.5937,3.5154,3.4401,3.3916,3.3508,3.3059,3.2333,3.1956,3.1523,3.0702,3.0414,3.0044,2.9249,2.8929,2.8541,2.7782,2.7168,2.6595,2.6034,2.5141,2.4455,2.4178,2.3343,2.2496,2.1652,2.1549,2.1374,2.1068,2.092,2.1122,2.1929,2.1923,2.2109,2.262,2.2443,2.2473,2.275,2.2789,2.2876,2.3095,2.3168,2.3319,2.3589,2.3707,2.3917,2.4135,2.4391,2.4642,0.0,0.0,4.3798,4.4681,4.6017,4.7384,4.8393,4.8673,4.8547,4.7904,4.8511,4.8928,4.8182,4.9381,5.0446,5.0297,5.087,5.1246,5.1105,5.0998,5.0873,5.0855,5.0224,4.9767,0.0,4.925,4.9227,4.9988,5.0095,5.0449,5.121,5.1281,5.1246,5.1105,5.0892,5.0749,5.0585,5.0453,5.0359,5.0189,4.9999,4.9808,4.9674,4.9195,4.8623,4.7834,4.7547,4.6774,4.5798,4.5798,4.5306,4.4593,4.3929,4.3199,4.2505,4.1794,4.1114,4.0432,3.9761,3.9062,3.8376,3.7677,3.7237,3.7015,3.6414,3.561,3.4668,3.4312,3.3591,3.2903,3.2461,3.2273,3.2006,3.1195,3.0833,3.0432,2.9649,2.893,2.8373,2.8097,2.7507,2.6671,2.5753,2.5134,2.4505,2.3626,2.3084,2.2685,2.2751,2.2042,2.143,2.122,2.1107,2.1409,2.2146,2.2194,2.2428,2.3048,2.2834,2.2826,2.3164,2.2751,2.2623,2.2816,2.2893,2.3028,2.3313,2.3458,2.3642,2.3917,2.4173,2.4409,4.2053,4.3822,4.5576,4.6414,4.7834,4.9098,4.9466,4.9672,4.9735,4.9536,4.9368,4.9167,4.89,4.9292,4.9728,5.0125,5.0273,5.0488,5.0928,5.0801,5.0729,5.0729,5.0392,0.0,0.0,0.0,0.0,5.0095,5.059,5.1015,5.1281,5.1193,5.1088,5.0892,5.0766,5.0602,5.0453,5.0341,5.0171,4.9999,4.9767,4.9471,4.9229,4.9063,4.8726,4.8303,4.7942,4.7351,4.6463,4.5996,4.5374,4.4641,4.3981,4.3563,4.3195,4.2006,4.1395,4.1078,4.0408,3.9703,3.9033,3.8807,3.8011,3.7171,3.6852,3.5969,3.4975,3.4682,3.3854,3.2932,3.2859,3.2307,3.169,3.1269,3.1069,3.0677,2.9881,2.9152,2.8434,2.7864,2.7107,2.6445,2.6077,2.5443,2.4575,2.3369,2.258,2.211,2.2264,2.1825,2.1478,2.1353,2.1542,2.1828,2.2226,2.2275,2.2546,2.3188,2.3096,2.3226,2.3635,2.3684,2.3583,2.3333,2.3453,2.3354,2.3095,2.3289,2.3504,2.3768,2.4036,2.4284,4.4395,4.6063,4.7573,4.8082,4.9274,5.0259,5.0029,5.0145,5.0048,4.9261,4.8788,4.8318,4.7747,4.8028,4.8435,4.8785,4.9462,5.0031,5.0345,5.05,5.0585,5.0547,5.0397,5.0406,0.0,0.0,0.0,5.0224,5.0682,5.0963,5.0963,5.0927,5.0801,5.0657,5.0547,5.038,5.0228,5.0057,4.9884,4.9632,4.9411,4.9185,4.894,4.8753,4.8547,4.8308,4.8049,4.7523,4.6881,4.6399,4.5785,4.501,4.4304,4.3874,4.3466,4.2021,4.1398,4.1076,4.0335,3.9768,3.9337,3.9031,3.84,3.7548,3.7146,3.6254,3.54,3.4948,3.4128,3.3219,3.2853,3.2244,3.1549,3.125,3.0973,3.0644,3.0119,2.9382,2.854,2.791,2.7118,2.6387,2.5935,2.5249,2.4309,2.3257,2.2498,2.191,2.1701,2.165,2.1556,2.1412,2.1826,2.2143,2.2331,2.2575,2.2906,2.3381,2.3327,2.3538,2.4011,2.4083,2.4053,2.3854,2.3972,2.3812,2.3293,2.3455,2.3536,2.3567,2.3831,2.4222,4.6221,4.8047,4.9697,4.9785,5.0435,5.0841,5.0238,5.0107,4.9528,4.7362,4.6855,4.6337,0.0,0.0,4.6607,4.6554,4.8335,4.9714,4.9537,5.013,5.0564,0.0,0.0,0.0,0.0,0.0,0.0,5.0533,0.0,5.0463,5.0463,5.0463,5.048,5.0463,5.0315,5.0126,4.9935,4.9784,4.953,4.9168,4.9063,4.8894,4.8786,4.8373,4.8115,4.8001,4.777,4.7354,4.6876,4.6892,4.6404,4.5744,4.4962,4.4263,4.3464,4.2053,4.1188,4.0631,3.9694,3.9382,3.9265,3.8427,3.8202,3.7976,3.7211,3.6571,3.5892,3.5104,3.437,3.3621,3.2738,3.2106,3.1628,3.1156,3.0698,3.0368,3.0368,2.9543,2.87,2.8174,2.7321,2.6382,2.5408,2.453,2.3802,2.332,2.2737,2.211,2.1293,2.1547,2.1716,2.1431,2.195,2.2326,2.24,2.2993,2.3443,2.3598,2.3555,2.3779,2.4292,2.4058,2.4001,2.4322,2.4467,2.4309,2.3857,2.3977,2.3824,2.3419,2.3683,2.4363,4.9012,4.9697,4.996,5.1136,5.0805,5.0153,4.9994,4.8799,4.7346,4.6127,4.5,4.3924,0.0,0.0,0.0,4.5441,4.692,0.0,4.9344,4.9983,0.0,5.0852,0.0,5.0901,5.1552,5.1542,0.0,0.0,5.1572,5.1751,5.1751,5.1751,5.1691,5.1494,5.0944,5.0592,5.0446,4.9684,4.9229,4.9063,4.8894,4.8707,4.8373,4.8115,4.7919,4.7787,4.7302,4.703,4.6892,4.6278,4.5952,4.5719,4.4911,4.4536,4.4218,4.2864,4.1942,4.1115,4.007,3.9373,3.887,3.8352,3.7901,3.7443,3.7148,3.6397,3.5732,3.5573,3.4594,3.3647,3.3342,3.2332,3.1332,3.1177,3.0534,2.9934,2.9934,2.9174,2.8435,2.8299,2.7188,2.5949,2.5075,2.4178,2.3502,2.3364,2.2651,2.217,2.2069,2.1961,2.1753,2.1494,2.1956,2.224,2.2298,2.2956,2.3406,2.3612,2.3985,2.4365,2.4642,2.4858,2.4922,2.4745,2.5012,2.4932,2.447,2.4763,2.4952,2.5004,2.5236,2.5582,5.0417,5.0803,5.0926,5.1786,5.0946,4.973,4.9043,4.7497,4.5673,4.382,4.2534,0.0,0.0,0.0,0.0,0.0,0.0,0.0,4.8136,4.9066,4.9913,0.0,5.072,0.0,5.1864,5.182,5.1891,0.0,5.2084,5.1974,5.1974,5.1974,5.1912,5.1833,5.1422,5.0923,5.0368,4.982,4.926,4.8798,4.8627,4.8373,4.8115,4.7919,4.7654,4.7354,4.7014,4.6754,4.642,4.5952,4.5573,4.5188,4.4814,4.4343,4.3881,4.2922,4.2132,4.1406,4.0294,3.9481,3.8821,3.8063,3.7519,3.707,3.6587,3.6111,3.5629,3.5223,3.4587,3.3888,3.3407,3.2431,3.1496,3.108,3.0344,2.9754,2.9518,2.8909,2.8305,2.7842,2.6614,2.5498,2.4935,2.4158,2.3598,2.3527,2.2894,2.2419,2.2548,2.207,2.1678,2.1509,2.1862,2.2163,2.2265,2.292,2.3362,2.3533,2.3945,2.4358,2.4833,2.5037,2.5169,2.5187,2.5506,2.5447,2.5012,2.5305,2.5444,2.5419,2.5666,2.6097,5.1136,5.1593,5.2014,5.1959,5.0751,4.9132,4.7583,4.597,4.3961,4.0983,0.0,3.8903,3.8125,3.8513,3.9438,4.0999,0.0,4.5057,4.6568,4.7928,4.9292,5.0712,5.0504,5.0798,5.2218,5.2068,5.22,5.2784,5.2166,5.1826,5.1826,5.189,5.1838,5.1736,5.1736,5.1252,5.019,5.0079,4.9567,4.8704,4.8527,4.8397,4.8216,4.7902,4.7517,4.7038,4.6856,4.642,4.5807,4.5662,4.5188,4.4572,4.4496,4.3957,4.3269,4.2623,4.2041,4.1483,4.0452,3.9685,3.8972,3.7784,3.7204,3.6744,3.5951,3.5629,3.5386,3.4647,3.4314,3.4043,3.3149,3.2541,3.1893,3.0941,3.0202,2.9646,2.9181,2.8718,2.8116,2.7211,2.6135,2.5258,2.5027,2.4391,2.3852,2.362,2.3134,2.2717,2.265,2.2058,2.1615,2.1423,2.1859,2.2116,2.2188,2.2821,2.3318,2.3428,2.3653,2.4145,2.4822,2.4821,2.5076,2.5583,2.584,2.5804,2.5514,2.5792,2.5781,2.5501,2.5745,2.6392,5.2435,5.2418,5.1959,5.1847,4.9712,4.7227,4.5571,4.3133,0.0,0.0,0.0,3.6103,3.5273,3.623,0.0,3.9207,0.0,0.0,0.0,0.0,4.9282,0.0,0.0,0.0,0.0,0.0,0.0,0.0,5.2357,5.2347,5.2655,5.2724,5.2438,5.1816,5.1799,5.138,5.0592,5.0592,5.0309,4.9824,4.9773,4.9637,4.9309,4.8372,4.7886,4.7712,4.655,4.5952,4.5735,4.5114,4.4739,4.4496,4.3801,4.3409,4.3235,4.2585,4.188,4.1157,4.0541,3.9676,3.8728,3.8028,3.7135,3.6308,3.5871,3.5223,3.4564,3.4481,3.3907,3.33,3.3126,3.2324,3.1503,3.1162,3.0191,2.935,2.9009,2.8419,2.7808,2.6974,2.6561,2.606,2.5404,2.4534,2.3906,2.3678,2.3112,2.2507,2.1962,2.1989,2.1868,2.1572,2.1897,2.2126,2.214,2.2722,2.3193,2.3332,2.3905,2.4413,2.4728,2.4852,2.5118,2.5648,2.5651,2.5835,2.613,2.6455,2.6764,2.7005,2.7256,2.7558,5.2148,5.2144,5.1647,5.121,4.9044,4.6585,4.4483,0.0,0.0,0.0,0.0,3.3549,3.3127,0.0,0.0,0.0,0.0,0.0,0.0,0.0,0.0,0.0,0.0,0.0,0.0,0.0,5.2181,5.2181,5.2109,5.2181,5.2537,5.2607,5.2441,5.2091,5.2074,5.1672,5.0888,5.0888,5.0482,4.9826,4.9739,4.9529,4.9245,4.8546,4.7903,4.7317,4.6545,4.5829,4.5114,4.4663,4.4266,4.3879,4.3314,4.2915,4.2607,4.2295,4.1681,4.0993,4.0659,3.9831,3.8853,3.8311,3.7401,3.632,3.5691,3.498,3.4314,3.3823,3.3411,3.2982,3.2624,3.208,3.1465,3.0951,2.9893,2.8881,2.8479,2.7988,2.7383,2.6829,2.6405,2.5984,2.5508,2.4747,2.4028,2.3612,2.3144,2.267,2.2126,2.2164,2.21,2.1572,2.1677,2.1812,2.2051,2.2406,2.2795,2.3283,2.3734,2.4202,2.4731,2.4868,2.5017,2.533,2.5548,2.5754,2.5937,2.6262,2.6641,2.7038,2.7307,2.7612,5.1371,5.1433,5.1146,5.0289,4.8255,4.5736,4.3141,4.0274,0.0,0.0,3.2397,3.1399,3.1227,0.0,0.0,0.0,0.0,0.0,0.0,0.0,0.0,0.0,0.0,0.0,0.0,0.0,0.0,5.1704,5.1557,5.1688,5.2109,5.2092,5.2004,5.2004,5.2004,5.1684,5.1015,5.0998,5.0648,4.9893,4.9733,4.9499,4.9247,4.8733,4.7993,4.7079,4.6554,4.5647,4.4619,4.425,4.3723,4.317,4.2915,4.243,4.1951,4.1785,4.1353,4.0916,4.0516,3.9865,3.9033,3.8512,3.7529,3.6448,3.5627,3.4972,3.4327,3.3455,3.3071,3.2773,3.2113,3.1749,3.1364,3.0477,2.9464,2.8472,2.7939,2.7478,2.7076,2.6655,2.6248,2.5817,2.5654,2.5004,2.4317,2.3624,2.3328,2.3016,2.2463,2.24,2.2232,2.1607,2.16,2.17,2.1861,2.2027,2.2357,2.3015,2.3373,2.3928,2.4693,2.4824,2.4989,2.5198,2.5564,2.5711,2.568,2.6061,2.636,2.6624,2.6956,2.7307,5.0561,5.054,5.0254,4.9301,4.6754,4.3716,4.0511,0.0,0.0,3.2264,3.0925,3.0068,2.9372,3.0449,0.0,0.0,0.0,0.0,0.0,0.0,0.0,0.0,0.0,0.0,0.0,0.0,5.1258,5.1258,5.088,5.0956,5.1573,5.1359,5.1194,5.1194,5.1194,5.1161,5.1096,5.1096,5.1021,5.0779,5.0779,5.0518,5.0069,4.9217,4.8591,4.798,4.6346,4.537,4.4792,4.3807,4.317,4.2688,4.2281,4.1951,4.1604,4.1029,4.0787,4.0602,3.9733,3.9353,3.9121,3.8225,3.724,3.6366,3.5781,3.5226,3.4462,3.3682,3.3011,3.2454,3.187,3.1407,3.0855,2.9796,2.9135,2.8465,2.7577,2.7352,2.7184,2.6723,2.6362,2.608,2.5924,2.525,2.4587,2.4156,2.3717,2.3196,2.2343,2.2507,2.2541,2.1811,2.2028,2.1963,2.1241,2.1715,2.2133,2.2199,2.2905,2.3709,2.4486,2.4735,2.5123,2.5804,2.592,2.5944,2.5882,2.6389,2.6545,2.6349,2.6691,2.6971,4.8097,4.8456,4.8359,4.7024,4.5024,4.2518,3.9279,0.0,0.0,3.0903,2.94,2.8491,2.8115,2.8626,2.9728,0.0,0.0,0.0,0.0,0.0,0.0,0.0,0.0,0.0,0.0,0.0,5.0788,5.0602,5.0308,5.0246,5.0308,5.0634,5.0788,5.0788,5.0788,5.0695,5.0586,5.0586,5.0448,5.0324,5.0184,4.9916,4.9646,4.8979,4.8314,4.7542,4.6188,4.5228,4.4419,4.3278,4.2541,4.2199,4.1604,4.1269,4.1029,4.0588,4.0243,3.9821,3.9394,3.8935,3.8395,3.7861,3.7077,3.6261,3.576,3.4964,3.4107,3.3454,3.3015,3.2435,3.1536,3.0719,3.0,2.9614,2.897,2.8377,2.7822,2.7195,2.6551,2.6269,2.5827,2.5549,2.5464,2.4967,2.4504,2.4065,2.3619,2.3104,2.2484,2.2259,2.2104,2.1842,2.1859,2.1923,2.1826,2.1654,2.167,2.2046,2.253,2.3075,2.3728,2.4326,2.4764,2.5095,2.5523,2.5747,2.5724,2.6365,2.6741,2.6909,2.6817,2.7002,4.5511,4.6077,4.6172,4.4797,4.3031,4.0882,0.0,0.0,3.2253,2.9709,2.8239,2.7324,2.7018,2.7225,2.8098,0.0,0.0,3.3996,0.0,0.0,0.0,0.0,0.0,0.0,0.0,5.0105,5.0246,4.9979,4.9821,4.9597,4.9452,4.9868,5.0184,5.0184,5.0262,5.0152,4.9963,4.9963,4.9821,4.9613,4.9452,4.9291,4.9031,4.8604,4.8011,4.7221,4.6192,4.5117,4.4146,4.3016,4.2223,4.1535,4.11,4.0674,4.0329,4.0055,3.9631,3.9038,3.8935,3.8304,3.7572,3.7307,3.6653,3.5916,3.533,3.4666,3.4044,3.3349,3.2712,3.2089,3.0901,3.006,2.9491,2.9242,2.876,2.82,2.7887,2.7155,2.6462,2.6147,2.5646,2.5231,2.5231,2.4794,2.4265,2.3852,2.3547,2.3227,2.2692,2.2371,2.207,2.172,2.1747,2.1776,2.1962,2.1517,2.1395,2.1784,2.2063,2.2468,2.3027,2.3741,2.4239,2.4559,2.523,2.5524,2.5556,2.6198,2.6683,2.6977,2.6855,2.7114,4.3115,4.3563,4.3871,4.2875,4.0815,3.8396,0.0,0.0,3.1032,2.8708,2.7586,2.6765,2.6045,2.6582,2.7597,2.9081,3.1229,0.0,0.0,0.0,0.0,0.0,0.0,0.0,4.8407,4.9342,4.9757,4.9356,4.9275,0.0,4.8996,4.8996,4.9062,4.9275,4.9275,4.9275,4.9275,4.9275,4.921,4.8996,4.8996,4.8733,4.8286,4.8003,4.7679,4.7249,4.6289,4.5194,4.3963,4.3239,4.2094,4.0702,4.0702,4.0243,3.9604,3.938,3.9038,3.8512,3.8044,3.7572,3.7015,3.6546,3.5883,3.5126,3.4531,3.4617,3.4509,3.3235,3.2144,3.1044,3.0053,2.9646,2.9358,2.8596,2.8186,2.787,2.7423,2.7317,2.7179,2.67,2.6034,2.5434,2.5269,2.4656,2.411,2.3841,2.3831,2.3594,2.2993,2.3102,2.2762,2.164,2.169,2.1632,2.1123,2.1376,2.1478,2.1163,2.1563,2.1975,2.2396,2.2847,2.3564,2.4509,2.5119,2.5406,2.54,2.607,2.6326,2.6213,2.667,2.7403,3.9688,4.026,4.0556,3.9642,3.8297,3.6441,3.3528,0.0,2.9445,2.7555,2.6564,2.5956,2.5616,2.6227,2.7124,2.8167,3.0103,0.0,0.0,0.0,0.0,0.0,0.0,0.0,0.0,0.0,4.9275,4.8867,4.8785,4.8702,4.8301,4.8317,4.8469,4.8785,4.8785,4.8785,4.862,4.862,4.8552,4.8301,4.8133,4.7895,4.7639,4.7351,4.6989,4.6535,4.5595,4.469,4.3618,4.2466,4.1509,4.0616,3.9996,3.9557,3.9292,3.8742,3.8395,3.8044,3.7572,3.7015,3.6546,3.5787,3.5114,3.4531,3.3854,3.3668,3.3534,3.2553,3.1639,3.0932,3.0384,2.957,2.886,2.8434,2.7968,2.74,2.7065,2.6598,2.6259,2.6105,2.5615,2.5117,2.4822,2.4295,2.3752,2.3359,2.3047,2.2746,2.2611,2.2342,2.2063,2.1709,2.1515,2.1399,2.1369,2.1141,2.1199,2.1457,2.1563,2.1643,2.1881,2.2424,2.2923,2.3207,2.3904,2.449,2.4902,2.5661,2.6127,2.6356,2.6965,2.7343,0.0,3.6905,3.7208,3.6578,3.5518,0.0,0.0,0.0,2.7923,2.6791,2.5992,2.547,2.5394,2.5972,2.684,2.789,2.9835,0.0,0.0,0.0,0.0,0.0,0.0,0.0,0.0,4.8488,4.8867,4.837,4.8286,4.8034,4.7724,4.7624,4.7694,4.7864,4.8118,4.8118,4.8049,4.7964,4.7794,4.7609,4.7452,4.7193,4.6858,4.6668,4.6314,4.5927,4.5162,4.4231,0.0,4.2209,4.1197,4.0083,3.9571,3.9114,3.8756,3.8304,3.7756,3.7294,3.6922,3.6358,3.5692,3.5114,3.4225,3.3434,3.2857,3.2667,3.2555,3.1924,3.1197,3.0622,3.0147,2.9368,2.8687,2.8235,2.7647,2.7125,2.6911,2.6376,2.5884,2.5789,2.5327,2.4858,2.4591,2.4141,2.3615,2.3082,2.2847,2.2612,2.246,2.2214,2.2006,2.1845,2.1608,2.1422,2.1362,2.1141,2.1035,2.1261,2.1403,2.1393,2.1474,2.2035,2.2385,2.2426,2.3083,2.3637,2.4111,2.5009,2.5706,2.6207,2.692,2.7348,0.0,0.0,0.0,0.0,0.0,0.0,0.0,0.0,0.0,0.0,2.5687,2.5272,2.532,2.5903,2.6844,2.8211,3.0241,0.0,0.0,0.0,0.0,0.0,0.0,0.0,4.6603,4.7738,4.837,4.7964,4.7709,4.7452,4.7294,4.7019,4.6756,4.6594,4.7106,4.7452,4.7553,4.7381,4.7121,4.6829,4.6844,4.6565,4.6121,4.5956,4.57,4.5413,4.4968,4.3934,4.2551,4.2328,4.1093,3.9427,3.9338,3.8786,3.7978,3.7978,3.7291,3.642,3.642,3.562,3.4726,3.4335,3.3224,3.1924,3.1618,3.1527,3.1424,3.123,3.0703,3.0193,2.9456,2.9116,2.8665,2.7955,2.7422,2.6983,2.6636,2.632,2.5936,2.5703,2.5179,2.4708,2.4679,2.4098,2.3513,2.307,2.3004,2.2862,2.2396,2.2321,2.2161,2.1785,2.1806,2.1627,2.1221,2.1178,2.1046,2.0822,2.1092,2.123,2.1133,2.1662,2.1981,2.2027,2.2557,2.2844,2.309,2.4239,2.5078,2.5741,2.6596,2.7282,2.6995,0.0,3.0584,3.0377,2.9987,0.0,0.0,0.0,0.0,0.0,0.0,2.4923,2.5487,2.6553,2.768,2.8619,3.0867,0.0,0.0,0.0,0.0,0.0,0.0,4.6588,4.6203,4.7175,4.7709,4.7467,4.7193,4.7019,4.6771,4.6491,4.6299,4.6314,4.6121,4.621,4.6858,4.6771,4.6594,4.6388,4.6225,4.5956,4.5685,4.5398,4.5046,4.469,4.4504,4.3682,4.231,4.215,4.134,4.0293,3.972,3.9357,3.906,3.8293,3.7543,3.6889,3.6113,3.5356,3.4628,3.3323,3.2319,3.1516,3.0609,3.0495,3.0599,3.0412,3.0088,2.9743,2.9211,2.8834,2.8448,2.7821,2.7373,2.6758,2.5915,2.5662,2.55,2.5185,2.4944,2.4783,2.4469,2.4049,2.3653,2.3056,2.2711,2.2487,2.22,2.1922,2.1798,2.1699,2.1518,2.1359,2.113,2.0919,2.0813,2.0839,2.0974,2.0888,2.0686,2.1302,2.1571,2.1396,2.2076,2.2655,2.3105,2.3517,2.4008,2.4667,2.5439,2.6147,2.4575,2.6432,2.8256,2.8721,2.8514,2.7975,0.0,0.0,0.0,0.0,0.0,0.0,2.5908,0.0,0.0,0.0,3.1743,0.0,0.0,0.0,0.0,0.0,0.0,4.6042,0.0,4.6686,4.7106,4.6844,4.658,4.6314,4.615,4.5576,4.5237,4.5237,4.4784,4.5003,4.6046,4.5956,4.5851,4.5671,4.5595,4.5164,4.4604,4.4407,4.4146,4.3617,4.3429,4.286,4.2167,4.1788,4.1057,4.0131,3.9655,3.9175,3.8787,3.8199,3.7518,3.6739,3.59,3.4762,3.3522,3.242,3.1516,3.0713,3.0203,2.9774,2.9448,2.9564,2.9353,2.892,2.8814,2.8327,2.7939,2.7622,2.7199,2.673,2.6078,2.5666,2.5302,2.4811,2.4527,2.429,2.3984,2.3724,2.349,2.2898,2.2643,2.2485,2.2117,2.1914,2.1804,2.1627,2.1514,2.141,2.1085,2.0747,2.056,2.0747,2.0827,2.0742,2.0397,2.1049,2.1418,2.1378,2.1661,2.2092,2.2756,2.3031,2.3455,2.3828,2.4635,2.5238,2.3356,2.4784,2.639,2.7615,2.7497,2.7135,0.0,0.0,0.0,0.0,0.0,0.0,0.0,0.0,0.0,0.0,0.0,0.0,0.0,0.0,0.0,0.0,4.4463,0.0,4.5102,4.5936,4.627,4.5917,4.5665,4.5411,4.5216,4.4428,4.4038,4.4038,4.345,4.3767,4.502,4.4838,4.4747,4.4747,4.4747,4.4188,4.3223,4.3223,4.2948,4.2513,4.2154,4.191,4.1719,4.1403,4.057,3.9628,3.9544,3.9056,3.8266,3.8154,3.7403,3.6435,3.5621,3.4098,3.2318,3.1753,3.0806,2.9994,2.9889,2.9142,2.8398,2.8814,2.8601,2.8184,2.8184,2.7755,2.7431,2.7323,2.7059,2.668,2.6296,2.5798,2.5118,2.453,2.4088,2.3834,2.3497,2.3391,2.3231,2.2805,2.2752,2.2638,2.2215,2.2127,2.1969,2.1728,2.1578,2.1366,2.1022,2.0731,2.0544,2.0566,2.0714,2.0617,2.0284,2.0819,2.1232,2.1565,2.1328,2.1517,2.2192,2.2662,2.2999,2.3207,2.4066,2.4533,2.2202,2.3289,2.4499,2.5567,2.6212,2.6452,0.0,0.0,0.0,0.0,0.0,0.0,0.0,0.0,0.0,0.0,0.0,0.0,0.0,0.0,0.0,4.3124,0.0,4.4385,4.3974,4.4232,4.4414,4.4327,4.3979,4.3641,4.3641,4.3275,4.313,4.313,4.2881,4.2744,4.2719,4.3272,4.3375,4.2941,4.2941,4.2719,4.2167,4.2167,4.1879,4.1431,4.1774,4.1501,4.0657,4.107,4.0928,4.0336,3.9842,3.9536,3.9331,3.8583,3.777,3.6836,3.4929,3.3446,3.229,3.1462,3.0713,2.9889,2.9353,2.8814,2.8291,2.8067,2.7853,2.7539,2.7539,2.7431,2.7323,2.7098,2.7051,2.6695,2.5827,2.5602,2.5227,2.4604,2.4163,2.3914,2.3861,2.3568,2.3329,2.2968,2.2959,2.2841,2.2581,2.2206,2.1982,2.1922,2.1527,2.1212,2.1142,2.1048,2.0802,2.0443,2.0218,2.0145,2.0284,2.0566,2.0847,2.1247,2.1079,2.1272,2.1696,2.1864,2.2241,2.2905,2.3634,2.4377,2.1509,2.275,2.4133,2.5327,2.6296,0.0,0.0,0.0,0.0,0.0,0.0,0.0,0.0,0.0,0.0,0.0,0.0,0.0,0.0,4.095,4.1786,0.0,0.0,4.3661,4.3328,4.3644,4.3676,4.3414,4.3253,4.2988,4.2707,4.2322,4.1962,4.1845,4.1374,4.1118,4.1002,4.1369,4.1705,4.221,4.221,4.1862,4.1182,4.1078,4.0791,4.0424,4.0241,4.0341,4.0435,4.0439,4.0336,3.9993,3.98,3.9374,3.8841,3.7986,3.7121,3.6075,3.477,3.3599,3.2349,3.1443,3.0568,2.9784,2.9106,2.8398,2.7755,2.7638,2.7422,2.7206,2.7206,2.7107,2.6899,2.6791,2.6673,2.64,2.5892,2.553,2.5189,2.4694,2.4262,2.3965,2.387,2.3512,2.3158,2.3056,2.2883,2.2745,2.2644,2.2398,2.2218,2.2013,2.1784,2.1501,2.1095,2.098,2.0806,2.0465,2.0153,2.0072,2.0071,2.0282,2.0495,2.0741,2.0755,2.0939,2.1401,2.1776,2.211,2.2495,2.3248,2.3843,2.0951,2.2425,2.4005,2.5286,0.0,0.0,0.0,0.0,0.0,0.0,0.0,0.0,0.0,0.0,0.0,0.0,0.0,0.0,3.9979,4.0657,4.1342,4.2394,4.2816,4.2858,4.2606,4.2854,4.2781,4.246,4.2372,4.2107,4.1736,4.123,4.0891,4.0686,4.0244,4.0009,3.9922,3.9922,4.0404,4.1418,4.1328,4.0899,4.0177,3.9893,3.9621,3.936,3.8925,3.9112,3.9751,3.9543,3.9411,3.9393,3.9428,3.8945,3.8104,3.7346,3.6456,3.5454,3.4814,3.3757,3.2501,3.1506,3.0535,2.9637,2.8975,2.8154,2.7431,2.7323,2.7098,2.689,2.689,2.6791,2.6591,2.6591,2.6354,2.6127,2.6017,2.556,2.5142,2.4763,2.4407,2.4136,2.3845,2.3494,2.3254,2.3254,2.2929,2.2681,2.2681,2.2603,2.2432,2.2158,2.2047,2.1696,2.0942,2.0883,2.0767,2.043,2.0294,2.0072,1.9842,2.0145,2.0276,2.0191,2.0487,2.0752,2.1051,2.1568,2.1922,2.2164,2.2878,2.3455,2.0484,2.1875,2.3435,2.4681,0.0,0.0,0.0,0.0,0.0,0.0,0.0,0.0,0.0,0.0,0.0,0.0,0.0,3.9224,4.0583,0.0,4.1536,4.1961,4.1912,4.1774,4.1537,4.1298,4.1057,4.0914,4.0684,4.0423,4.0134,4.0092,4.0065,4.0065,4.0023,3.9922,3.97,3.97,3.9741,3.9823,3.9619,3.9297,3.8975,3.8822,3.8474,3.8044,3.8475,3.8385,3.7884,3.8616,3.8755,3.8525,3.8528,3.8104,3.7596,3.6928,3.634,3.5572,3.4589,3.365,3.2674,3.1662,3.0574,2.9687,2.9105,2.817,2.7323,2.7098,2.6791,2.6591,2.6591,2.6591,2.6591,2.6591,2.6354,2.6017,2.5798,2.545,2.511,2.4889,2.4479,2.4222,2.4196,2.3896,2.3657,2.3657,2.3323,2.3074,2.3074,2.2766,2.2636,2.2509,2.2201,2.1696,2.0942,2.0883,2.0703,2.0365,2.0173,2.0052,1.9835,2.0223,2.0292,1.9979,2.0367,2.0569,2.0644,2.0867,2.1395,2.2124,2.2723,2.3294,2.0033,2.1416,2.3004,2.4585,0.0,0.0,0.0,0.0,0.0,0.0,0.0,0.0,0.0,0.0,0.0,0.0,0.0,3.8963,3.9844,4.0444,4.0997,4.1561,4.1549,4.1381,4.0958,4.0859,4.0688,4.0257,4.0184,4.0023,3.9862,3.9774,3.976,3.9557,3.9557,3.9469,3.9203,3.9203,3.9127,3.9065,3.9024,3.8922,3.8666,3.8317,3.8044,3.7861,3.7606,3.7432,3.7321,3.7528,3.7704,3.7861,3.7899,3.7584,3.7036,3.6592,3.6059,3.5488,3.4637,3.3907,3.3162,3.1919,3.1096,3.0399,2.9301,2.8372,2.7763,2.7389,2.6899,2.6591,2.6591,2.6591,2.6591,2.6591,2.6354,2.6127,2.6017,2.5679,2.5459,2.5357,2.5235,2.5138,2.5138,2.4715,2.4364,2.4364,2.3831,2.3391,2.3143,2.2989,2.2809,2.2569,2.2218,2.1884,2.1602,2.1148,2.0814,2.0668,2.0572,2.0359,1.9974,2.0294,2.0373,2.006,2.0384,2.0501,2.033,2.0818,2.1144,2.1405,2.2101,2.2703,1.9857,2.1272,2.2991,0.0,0.0,0.0,0.0,0.0,0.0,0.0,0.0,0.0,0.0,0.0,0.0,0.0,3.8075,3.8988,3.9615,4.016,4.0631,4.0986,4.1043,4.0873,4.053,4.053,4.0357,3.9922,3.9936,3.9848,3.9598,3.9496,3.9394,3.9203,3.9127,3.9024,3.8832,3.8832,3.8666,3.8421,3.8472,3.8472,3.833,3.7952,3.7677,3.7466,3.6909,3.6666,3.6755,3.6516,3.6734,3.724,3.7097,3.6895,3.67,3.6277,3.5852,3.5312,3.4635,3.4076,3.3346,3.2117,3.1461,3.086,2.9346,2.8603,2.7971,2.7437,2.6899,2.6591,2.6591,2.6591,2.6591,2.6591,2.6354,2.6127,2.6127,2.5907,2.5688,2.5688,2.5688,2.5688,2.5688,2.5357,2.4972,2.4972,2.4433,2.3891,2.3608,2.3263,2.2972,2.2687,2.2321,2.2124,2.2004,2.1525,2.1131,2.0891,2.081,2.0581,2.0199,2.035,2.043,2.0134,2.0458,2.0512,2.0273,2.0714,2.0905,2.1006,2.1476,2.1949,1.9913,2.1628,0.0,0.0,0.0,0.0,0.0,0.0,0.0,0.0,0.0,0.0,0.0,0.0,0.0,3.8025,3.8908,3.9629,4.0037,4.0393,4.0602,4.0301,4.0156,3.9996,3.9996,3.9996,3.9922,3.97,3.97,3.9598,3.9292,3.8997,3.8895,3.8895,3.8666,3.8589,3.8589,3.8602,3.833,3.7939,3.7861,3.7861,3.7861,3.7585,3.7201,3.6722,3.6452,3.6275,3.5957,3.5696,3.5938,3.6379,3.6074,3.627,3.658,3.607,3.5632,3.5312,3.4423,3.3861,3.3399,3.2133,3.1496,3.0817,2.9482,2.8621,2.7981,2.7219,2.6791,2.6591,2.6591,2.6591,2.6591,2.6591,2.6354,2.6127,2.6127,2.5907,2.5688,2.5688,2.5688,2.5688,2.5688,2.5688,2.5688,2.5688,2.5142,2.4689,2.468,2.3799,2.2972,2.2687,2.2644,2.2398,2.203,2.1996,2.1679,2.0942,2.0883,2.0703,2.0309,2.0564,2.048,2.0105,2.0526,2.0666,2.0521,2.0282,2.0576,2.1221,2.1006,2.1252,1.9595,0.0,0.0,0.0,0.0,0.0,0.0,0.0,0.0,0.0,0.0,0.0,0.0,0.0,0.0,3.7476,3.8114,3.8824,3.9354,3.9867,4.017,4.0069,4.0083,3.9922,3.9774,3.9584,3.938,3.9203,3.9051,3.8684,3.8242,3.8127,3.7851,3.7551,3.7838,3.7887,3.7735,3.8028,3.7952,3.7598,3.74,3.7294,3.7294,3.7108,3.6722,3.6452,3.6181,3.5716,3.5163,3.5103,3.4992,3.5049,3.5689,3.5837,3.558,3.5508,3.5312,3.498,3.4086,3.3625,3.3399,3.2133,3.1697,3.1391,3.026,2.9379,2.8742,2.822,2.7659,2.7107,2.689,2.689,2.6781,2.6691,2.6473,2.6473,2.6473,2.6364,2.6364,2.6364,2.6364,2.6364,2.6364,2.6136,2.6017,2.6017,2.57,2.5098,2.4332,2.3626,2.2972,2.2687,2.2644,2.2501,2.2389,2.215,2.1901,2.1679,2.1174,2.0703,2.0309,2.0382,2.0421,2.0488,2.0668,2.0731,2.0685,2.0539,2.0439,2.0485,2.0605,2.0799,1.9492,0.0,0.0,0.0,0.0,0.0,0.0,0.0,0.0,0.0,0.0,0.0,0.0,0.0,0.0,3.7044,3.7442,3.7965,3.8572,3.8971,3.9119,3.8947,3.886,3.8774,3.8627,3.8438,3.8249,3.8148,3.7985,3.775,3.7377,3.7263,3.7103,3.6771,3.6902,3.6911,3.676,3.7143,3.7143,3.688,3.682,3.6734,3.6653,3.664,3.6358,3.6086,3.5716,3.503,3.4371,3.4393,3.4225,3.4164,3.4797,3.4964,3.4922,3.4899,3.4913,3.488,3.3963,3.3625,3.3399,3.2133,3.1787,3.1582,3.0561,2.9676,2.9045,2.8632,2.7981,2.7323,2.7206,2.7206,2.7098,2.6691,2.6591,2.6591,2.6591,2.6591,2.6591,2.6591,2.6591,2.6591,2.6591,2.6473,2.6354,2.6354,2.5907,2.5348,2.4508,2.3782,2.3186,2.2809,2.2638,2.2644,2.2644,2.2338,2.215,2.2004,2.1576,2.1079,2.0549,2.0377,2.0382,2.0564,2.0654,2.072,2.0916,2.0694,2.064,2.0634,2.0543,2.0505,0.0,0.0,0.0,0.0,0.0,0.0,0.0,0.0,0.0,0.0,0.0,0.0,0.0,3.6129,3.6367,3.6522,3.6784,3.7098,3.7699,3.7781,3.7612,3.7201,3.7201,3.7115,3.6957,3.687,3.6857,3.6857,3.6857,3.6844,3.6791,3.6505,3.6292,3.624,3.5931,3.5693,3.5693,3.5994,3.6095,3.5808,3.6112,3.6106,3.5846,3.6156,3.5991,3.5524,3.4932,3.4347,3.3679,3.3679,3.3545,3.3538,3.3583,3.3952,3.4549,3.4247,3.4449,3.4626,3.3834,3.3497,3.3283,3.2062,3.1727,3.1542,3.06,2.9715,2.9045,2.867,2.801,2.7431,2.7431,2.7431,2.7323,2.68,2.6691,2.6691,2.6691,2.6691,2.6691,2.6691,2.6691,2.6691,2.6691,2.6691,2.6591,2.6591,2.6136,2.5546,2.4841,2.4153,2.3562,2.316,2.2809,2.2586,2.2552,2.2644,2.2398,2.2064,2.2013,2.1687,2.1011,2.0566,2.0326,2.0292,2.0564,2.0736,2.0997,2.0792,2.0953,2.1367,2.0588,2.0451,0.0,0.0,0.0,0.0,0.0,0.0,0.0,0.0,0.0,0.0,0.0,0.0,3.6236,3.6386,3.6569,3.6186,3.6203,3.6418,3.7035,3.7115,3.7115,3.6943,3.6943,3.6943,3.687,3.6671,3.6584,3.6584,3.6384,3.61,3.568,3.5383,3.5076,3.4634,3.4792,3.4863,3.4863,3.5162,3.525,3.4954,3.5269,3.5169,3.4805,3.5424,3.5512,3.492,3.4261,3.3878,3.3679,3.3281,3.3049,3.3073,3.3253,3.3224,3.3249,3.3509,3.3504,3.3182,3.2617,3.2409,3.2033,3.1492,3.1264,3.1201,3.0895,3.0195,2.9439,2.9351,2.8777,2.8077,2.7853,2.7745,2.7745,2.7323,2.7215,2.7215,2.7215,2.7215,2.7215,2.7215,2.7215,2.7215,2.7215,2.7107,2.689,2.6591,2.6245,2.5764,2.5057,2.4718,2.4075,2.3186,2.304,2.2877,2.2569,2.2644,2.2509,2.2432,2.2158,2.1927,2.1764,2.1114,2.0609,2.03,2.0382,2.0473,2.0736,2.0616,2.0604,2.0944,2.0782,2.0708,0.0,0.0,0.0,0.0,0.0,0.0,0.0,0.0,0.0,0.0,0.0,3.6328,3.5551,3.5631,3.5779,3.5284,3.5359,3.5562,3.5965,3.6005,3.6018,3.5934,3.592,3.5836,3.5751,3.5483,3.5312,3.5312,3.5115,3.4813,3.4542,3.443,3.4203,3.3907,3.3935,3.4015,3.3855,3.4136,3.4234,3.3953,3.425,3.4137,3.3681,3.4571,3.4835,3.4457,3.3965,3.358,3.3281,3.2992,3.2768,3.2476,3.2621,3.2568,3.2614,3.2729,3.2757,3.2653,3.2221,3.1895,3.172,3.1166,3.0913,3.074,3.0537,2.9907,2.9258,2.9258,2.8799,2.8291,2.8184,2.8067,2.8077,2.7862,2.7647,2.7431,2.7431,2.7431,2.7431,2.7431,2.7431,2.7431,2.7431,2.7206,2.6989,2.6791,2.6345,2.5945,2.563,2.501,2.4532,2.3911,2.3436,2.3032,2.2835,2.2646,2.2644,2.2644,2.2364,2.2184,2.2004,2.1619,2.1148,2.0583,2.0386,2.0473,2.0744,2.0624,2.0704,2.0864,2.0816,2.0796,0.0,0.0,0.0,0.0,0.0,0.0,0.0,0.0,0.0,0.0,0.0,3.492,3.4612,3.4671,3.4736,3.4321,3.4494,3.4673,3.4908,3.4921,3.4908,3.4756,3.4673,3.459,3.4397,3.416,3.3992,3.3992,3.381,3.3713,3.3713,3.3628,3.3641,3.3641,3.3398,3.3142,3.2995,3.317,3.3217,3.2975,3.3241,3.3164,3.2887,3.3659,3.3926,3.3836,3.3744,3.3381,3.2891,3.288,3.2454,3.2015,3.1924,3.2086,3.2147,3.1906,3.2049,3.2191,3.1761,3.1556,3.1458,3.0977,3.0569,3.0369,3.0117,2.9488,2.8916,2.8916,2.8613,2.8291,2.8291,2.8291,2.8291,2.8291,2.797,2.7539,2.7539,2.7539,2.7539,2.7539,2.7539,2.7539,2.753,2.7206,2.7098,2.6989,2.6564,2.6127,2.6127,2.5404,2.4867,2.4689,2.3903,2.3254,2.3126,2.2826,2.2621,2.2552,2.2644,2.2415,2.2107,2.203,2.1704,2.1079,2.0626,2.0451,2.0654,2.0654,2.0826,2.0988,2.0846,2.0878,0.0,0.0,0.0,0.0,0.0,0.0,0.0,0.0,0.0,0.0,3.3395,3.4691,3.4337,3.451,3.4491,3.39,3.3797,3.3979,3.416,3.4243,3.4327,3.441,3.4327,3.416,3.416,3.3894,3.3713,3.3713,3.3713,3.3713,3.3713,3.3556,3.3398,3.3154,3.2884,3.2723,3.2487,3.2549,3.2411,3.2147,3.222,3.2424,3.2583,3.244,3.2648,3.3103,3.3284,3.3181,3.2891,3.2667,3.2331,3.2026,3.1721,3.156,3.1327,3.1327,3.1048,3.0684,3.058,3.0485,3.0243,3.0314,3.0113,2.9967,3.0028,2.9488,2.8916,2.8916,2.8613,2.8291,2.8291,2.8291,2.8291,2.8291,2.8291,2.8184,2.8184,2.8184,2.8184,2.8184,2.8184,2.8077,2.7853,2.753,2.7323,2.6989,2.6682,2.6473,2.6127,2.5972,2.5593,2.4823,2.4593,2.4156,2.3169,2.3066,2.2895,2.267,2.2644,2.2627,2.2475,2.2167,2.1944,2.185,2.1156,2.0634,2.0382,2.0564,2.0744,2.0736,2.0854,2.1007,0.0,0.0,0.0,0.0,0.0,0.0,0.0,0.0,0.0,0.0,3.165,3.2513,3.3258,3.3606,3.369,3.3594,3.3641,3.3713,3.3894,3.3894,3.3894,3.3979,3.3894,3.3894,3.3894,3.3569,3.3398,3.3398,3.3142,3.297,3.297,3.2896,3.281,3.2736,3.2562,3.2388,3.2213,3.2025,3.1862,3.1419,3.1364,3.1304,3.1435,3.1274,3.1677,3.2471,3.2615,3.2449,3.2273,3.223,3.2026,3.1721,3.1527,3.1322,3.1127,3.0806,3.0599,3.0391,3.0193,3.0099,3.0025,3.0021,2.9754,2.9464,2.9439,2.9046,2.8564,2.8564,2.8437,2.8291,2.8291,2.8291,2.8291,2.8291,2.8291,2.8291,2.8514,2.8408,2.8291,2.8291,2.8291,2.8291,2.8184,2.7853,2.753,2.7314,2.6999,2.6682,2.6473,2.6236,2.5836,2.5339,2.4919,2.4347,2.3468,2.3237,2.2954,2.2569,2.2644,2.2644,2.2644,2.2389,2.221,2.2004,2.1268,2.0797,2.0617,2.0494,2.0473,2.0473,2.0736,2.0826,0.0,0.0,0.0,0.0,0.0,0.0,0.0,0.0,0.0,0.0,2.9927,3.0481,3.1773,3.2425,3.2832,3.3129,3.33,3.3471,3.3556,3.3556,3.3641,3.3713,3.3641,3.3641,3.3556,3.3227,3.2995,3.2909,3.2562,3.24,3.24,3.24,3.2388,3.23,3.2313,3.2125,3.1849,3.1584,3.1318,3.0883,3.0589,3.0487,3.042,3.033,3.0705,3.1469,3.1729,3.169,3.1649,3.1795,3.1713,3.1527,3.1333,3.1127,3.092,3.0495,3.0391,3.0297,3.0099,2.9994,2.9994,2.9994,2.9564,2.9132,2.9132,2.8708,2.8291,2.8291,2.8291,2.8291,2.8291,2.8291,2.8291,2.8291,2.8398,2.8408,2.8514,2.8514,2.8398,2.8291,2.8291,2.8291,2.8291,2.8067,2.7745,2.7431,2.7206,2.689,2.6582,2.6364,2.6127,2.5789,2.5322,2.4628,2.392,2.3417,2.3057,2.2679,2.2644,2.2644,2.2644,2.2644,2.2415,2.2141,2.1499,2.1071,2.0883,2.0583,2.0386,2.0292,2.0473,2.0564,0.0,0.0,0.0,0.0,0.0,0.0,0.0,0.0,0.0,2.7797,2.8561,2.9331,3.0062,3.1016,3.1883,3.2401,3.2636,3.281,3.3081,3.3313,3.3471,3.3713,3.3556,3.3313,3.3154,3.2896,3.2636,3.2475,3.2388,3.24,3.24,3.24,3.23,3.2038,3.2038,3.1761,3.1306,3.1151,3.0871,3.0578,3.0306,3.0136,2.9886,2.9703,2.9633,2.9712,3.0678,3.118,3.1329,3.1351,3.1326,3.123,3.123,3.0909,3.0391,3.0391,3.0193,2.9994,2.9994,2.9994,2.9994,2.9994,2.9564,2.9132,2.9132,2.8708,2.8291,2.8291,2.8291,2.8291,2.8291,2.8291,2.8291,2.8291,2.8514,2.8621,2.8398,2.8514,2.8621,2.8408,2.8291,2.8291,2.8291,2.8067,2.7745,2.7431,2.7206,2.689,2.6582,2.6591,2.6473,2.6127,2.578,2.5233,2.4149,2.3877,2.3348,2.2696,2.2644,2.2644,2.2644,2.2644,2.2636,2.2619,2.2141,2.1593,2.0883,2.0857,2.066,2.0292,2.0292,2.0292,0.0,0.0,0.0,0.0,0.0,0.0,0.0,0.0,2.5058,2.6165,2.6853,2.7546,2.849,2.9856,3.0929,3.1294,3.1711,3.2043,3.2128,3.2512,3.281,3.2896,3.281,3.2736,3.2649,3.2388,3.2201,3.1937,3.1761,3.1517,3.0993,3.0981,3.0826,3.0319,3.0307,3.0375,3.0355,3.0427,3.0408,3.0148,2.9863,2.9669,2.9588,2.9405,2.9209,2.9231,2.9316,2.9745,3.0455,3.0668,3.0817,3.0798,3.0689,3.0599,3.0391,3.0193,3.0099,2.9994,2.9994,2.9994,2.9994,2.9994,2.9564,2.9132,2.9132,2.8708,2.8291,2.8291,2.8291,2.8291,2.8291,2.8291,2.8291,2.8514,2.8727,2.893,2.8814,2.8717,2.8621,2.8621,2.8408,2.8291,2.8291,2.8184,2.8077,2.7745,2.7422,2.7215,2.689,2.6691,2.6473,2.6127,2.5907,2.526,2.4149,2.3877,2.3357,2.2696,2.2644,2.2644,2.2644,2.2644,2.2644,2.2644,2.2415,2.2098,2.1593,2.1114,2.0805,2.066,2.0412,2.0292,0.0,0.0,0.0,0.0,0.0,0.0,0.0,0.0,2.3235,2.4412,2.5172,2.5983,2.6827,2.8084,2.9313,3.0299,3.0893,3.1209,3.1209,3.1613,3.1835,3.1835,3.1835,3.1835,3.1749,3.149,3.1317,3.1057,3.0783,3.0454,2.9926,2.9903,2.975,2.9397,2.9312,2.9398,2.9734,2.9802,2.9784,2.9783,2.9497,2.9393,2.9301,2.9035,2.8861,2.885,2.8477,2.8758,2.965,2.9785,2.992,3.0013,3.0074,3.016,2.9974,3.0037,2.9994,2.9994,2.9994,2.9994,2.9994,2.9879,2.9564,2.9132,2.9036,2.8611,2.8291,2.8291,2.8291,2.8291,2.8291,2.8291,2.8398,2.8727,2.893,2.9132,2.9353,2.9142,2.8834,2.8737,2.8514,2.8291,2.8291,2.8291,2.8184,2.796,2.7638,2.7323,2.6989,2.6791,2.6473,2.6245,2.59,2.5227,2.436,2.3869,2.3315,2.2687,2.2644,2.2644,2.2644,2.2644,2.2644,2.2644,2.2644,2.2424,2.2184,2.1559,2.1131,2.0874,2.0609,2.042,0.0,0.0,0.0,0.0,0.0,0.0,0.0,0.0,2.1388,2.2398,2.356,2.4583,2.5094,2.5756,2.7007,2.9332,3.0085,3.0348,3.0372,3.0646,3.0823,3.0823,3.0823,3.0646,3.0396,3.0241,3.0013,2.9784,2.9494,2.9385,2.9374,2.9362,2.935,2.935,2.913,2.9213,2.9447,2.9192,2.9162,2.9463,2.9209,2.9128,2.9035,2.8581,2.8395,2.8395,2.8092,2.8359,2.8999,2.8807,2.8771,2.9016,2.9488,2.9484,2.9363,2.9808,2.9984,2.9994,2.9994,2.9994,2.9889,2.9669,2.9343,2.9036,2.8727,2.8514,2.8291,2.8291,2.8291,2.8291,2.8291,2.8291,2.8398,2.892,2.9132,2.9237,2.9889,2.9564,2.9026,2.8727,2.8514,2.8291,2.8291,2.8291,2.8184,2.796,2.7638,2.7323,2.7098,2.6791,2.6582,2.6573,2.5892,2.5272,2.4649,2.3947,2.3253,2.267,2.2644,2.2644,2.2644,2.2644,2.2644,2.2644,2.2644,2.2644,2.2644,2.2175,2.1619,2.09,2.0874,2.0475,1.3192,0.0,0.0,0.0,0.0,0.0,0.0,0.0,1.9684,2.0825,2.1847,2.2776,2.3283,2.4316,2.537,2.6559,2.787,2.8982,2.953,2.9999,3.0325,3.0325,3.0325,3.017,3.0013,2.9941,2.9687,2.9347,2.925,2.8916,2.846,2.8006,2.7798,2.7798,2.7977,2.806,2.8111,2.8476,2.8633,2.8688,2.8593,2.8581,2.8581,2.829,2.8092,2.8092,2.782,2.7799,2.8052,2.8284,2.8408,2.8565,2.8828,2.891,2.9034,2.9157,2.9299,2.9343,2.9343,2.9343,2.9353,2.9237,2.9036,2.8834,2.8727,2.8514,2.8291,2.8291,2.8291,2.8291,2.8291,2.8291,2.8398,2.892,2.9132,2.9237,2.9669,2.9343,2.9026,2.9026,2.8611,2.8291,2.8291,2.8291,2.8291,2.8184,2.797,2.7638,2.7314,2.7107,2.667,2.6277,2.5827,2.5164,2.4275,2.3797,2.3253,2.267,2.2644,2.2644,2.2644,2.2644,2.2644,2.2644,2.2644,2.2644,2.2644,2.2175,2.165,2.1077,2.0264,1.9862,0.0,0.0,0.0,0.0,0.0,0.0,1.6735,1.7534,1.8316,1.924,2.0285,2.1146,2.164,2.2638,2.37,2.4507,2.5666,2.6883,2.8095,2.857,2.8859,2.9076,2.9018,2.902,2.9094,2.8941,2.8774,2.8428,2.8272,2.7977,2.7429,2.7133,2.6974,2.6974,2.7081,2.7234,2.7352,2.7701,2.8008,2.8127,2.8157,2.8196,2.8196,2.8008,2.7809,2.7809,2.7536,2.7441,2.7473,2.7648,2.7762,2.7717,2.8054,2.8205,2.8198,2.8573,2.8753,2.889,2.9061,2.9132,2.9132,2.893,2.8834,2.8737,2.8514,2.8408,2.8291,2.8291,2.8291,2.8291,2.8291,2.8398,2.8611,2.9026,2.9237,2.9343,2.9554,2.9343,2.9026,2.893,2.8611,2.8291,2.8291,2.8291,2.8291,2.8291,2.8067,2.7745,2.7422,2.7206,2.6723,2.6102,2.5715,2.5149,2.4217,2.3688,2.3291,2.2762,2.2644,2.2644,2.2644,2.2644,2.2644,2.2644,2.2644,2.2544,2.2434,2.2121,2.1649,2.0933,1.9909,1.9387,0.0,0.0,0.0,0.0,0.0,0.0,1.5598,1.6361,1.7213,1.7821,1.8747,1.9585,2.0067,2.0986,2.1978,2.2897,2.347,2.4448,2.6524,2.6839,2.7031,2.7495,2.7389,2.7489,2.7873,2.7589,2.7371,2.7337,2.701,2.6809,2.6644,2.6644,2.6644,2.6644,2.6561,2.6596,2.6764,2.7141,2.7355,2.7608,2.7846,2.7998,2.7998,2.7726,2.7536,2.7547,2.7357,2.7262,2.7262,2.6996,2.69,2.6941,2.7319,2.7306,2.7261,2.8045,2.8294,2.8435,2.8825,2.8986,2.892,2.8727,2.8621,2.8621,2.8398,2.8291,2.8291,2.8291,2.8291,2.8291,2.8291,2.8514,2.8727,2.9026,2.9343,2.9554,2.9554,2.9343,2.9026,2.8727,2.8514,2.8291,2.8291,2.8291,2.8291,2.8291,2.8067,2.7853,2.7431,2.7168,2.6658,2.6046,2.5537,2.5039,2.4434,2.3761,2.3247,2.3046,2.2745,2.2644,2.2644,2.2644,2.2644,2.2644,2.2544,2.2316,2.1963,2.1929,2.1478,2.0652,1.9621,1.9096,0.0,0.0,0.0,0.0,0.0,0.0,1.6124,1.6117,1.6177,1.6768,1.7404,1.7989,1.8439,1.9483,2.0517,2.1263,2.1906,2.3221,2.5841,2.6262,2.6392,2.678,2.6776,2.6647,2.6434,2.6356,2.6297,2.6382,2.6572,2.6644,2.6644,2.6644,2.6644,2.6644,2.6396,2.619,2.6122,2.6737,2.6947,2.6854,2.7418,2.7726,2.7631,2.7441,2.7357,2.7357,2.7357,2.7167,2.6986,2.69,2.69,2.6911,2.679,2.6741,2.6864,2.7033,2.7347,2.7885,2.7973,2.8219,2.8398,2.8408,2.8398,2.8408,2.8291,2.8291,2.8291,2.8291,2.8291,2.8408,2.8514,2.8621,2.8834,2.9343,2.9554,2.9554,2.9237,2.9132,2.892,2.8504,2.8291,2.8291,2.8291,2.8291,2.8291,2.8291,2.8291,2.797,2.7431,2.7031,2.6461,2.5632,2.5133,2.4628,2.4008,2.3591,2.3247,2.3046,2.2745,2.2644,2.2644,2.2644,2.2644,2.2644,2.2342,2.1778,2.108,2.081,2.0516,2.0362,1.9349,1.8835,0.0,0.0,0.0,1.6814,0.0,0.0,0.0,1.5867,1.5813,1.6161,1.6451,1.6784,1.7289,1.812,1.8969,1.9641,2.0275,2.1378,2.3353,2.407,2.4704,2.5349,2.5288,2.5269,2.5646,2.5466,2.5367,2.5475,2.5596,2.5661,2.5602,2.5639,2.5678,2.5678,2.567,2.5633,2.5549,2.6235,2.6525,2.6436,2.7014,2.7272,2.7262,2.6976,2.688,2.688,2.688,2.6784,2.6699,2.6592,2.6496,2.6496,2.639,2.6239,2.6261,2.6478,2.6878,2.7373,2.7588,2.7939,2.8291,2.8291,2.8291,2.8291,2.8291,2.8291,2.8291,2.8291,2.8291,2.8398,2.8621,2.8834,2.9036,2.9448,2.9669,2.9669,2.9237,2.9132,2.892,2.8398,2.8291,2.8291,2.8291,2.8291,2.8291,2.8291,2.8291,2.7999,2.7157,2.6949,2.637,2.5245,2.4904,2.4611,2.4089,2.3646,2.3347,2.3247,2.2846,2.2644,2.2644,2.2644,2.2544,2.2333,2.1928,2.1443,2.0783,2.0141,1.9894,1.9814,1.8996,1.8566,0.0,0.0,0.0,0.0,0.0,1.6621,0.0,0.0,0.0,1.59,0.0,0.0,0.0,0.0,0.0,1.8184,0.0,0.0,0.0,2.1259,0.0,2.3593,2.3557,2.3735,2.451,2.4386,2.4296,2.4382,2.4437,2.448,2.4266,2.4519,2.4637,2.4723,2.4943,2.5104,2.5115,2.5784,2.6156,2.6066,2.6546,2.6805,2.6805,2.6602,2.6496,2.6496,2.6496,2.6496,2.64,2.6197,2.61,2.6004,2.6004,2.5917,2.5781,2.6133,2.6582,2.707,2.7412,2.7871,2.8291,2.8291,2.8291,2.8291,2.8291,2.8291,2.8291,2.8291,2.8291,2.8398,2.8727,2.893,2.9237,2.9564,2.9879,2.9774,2.9237,2.9132,2.892,2.8398,2.8291,2.8291,2.8291,2.8291,2.8291,2.8291,2.8291,2.7922,2.6873,2.6644,2.6106,2.496,2.4711,2.4528,2.418,2.3646,2.3347,2.3347,2.2846,2.2644,2.2644,2.2544,2.2333,2.192,2.1456,2.0942,2.0579,1.9744,1.9341,1.9265,1.873,1.8388,0.0,0.0,0.0,0.0,1.8389,0.0,0.0,0.0,1.59,1.5925,0.0,0.0,0.0,0.0,0.0,0.0,0.0,0.0,1.8303,1.8254,1.9062,2.1526,2.215,2.229,2.2149,2.2517,2.2817,2.2872,2.3318,2.3578,2.3511,2.3774,2.4132,2.4559,2.4541,2.4691,2.4946,2.5628,2.5826,2.5543,2.6263,2.6506,2.6496,2.6496,2.6496,2.6496,2.6496,2.64,2.61,2.6091,2.5917,2.5732,2.5732,2.5732,2.5742,2.5791,2.6328,2.7021,2.707,2.7617,2.8291,2.8291,2.8291,2.8291,2.8291,2.8291,2.8291,2.8291,2.8291,2.8398,2.892,2.9026,2.9237,2.9784,2.9994,2.9774,2.9237,2.9132,2.892,2.8398,2.8291,2.8291,2.8291,2.8291,2.8291,2.8291,2.8067,2.7708,2.6873,2.6295,2.5581,2.4831,2.4445,2.4108,2.3854,2.3546,2.3347,2.3046,2.2745,2.2644,2.2644,2.2333,2.1928,2.142,2.101,2.0472,1.9638,1.9286,1.9003,1.9051,1.8434,1.8001,0.0,0.0,0.0,0.0,0.0,0.0,1.82,0.0,1.6781,0.0,0.0,0.0,0.0,0.0,0.0,0.0,1.6669,1.6871,0.0,0.0,1.7838,1.9843,2.0165,2.03,2.049,2.103,2.1349,2.1428,2.162,2.194,2.2403,2.2656,2.3171,2.3921,2.3949,2.4064,2.4529,2.4917,2.5198,2.5371,2.5718,2.6054,2.6294,2.612,2.6024,2.6024,2.6024,2.6014,2.5917,2.5917,2.583,2.5742,2.5742,2.5742,2.5742,2.5742,2.6279,2.7012,2.7012,2.7578,2.8291,2.8291,2.8291,2.8291,2.8291,2.8291,2.8291,2.8291,2.8291,2.8398,2.8717,2.9036,2.9237,2.9669,2.9889,2.9774,2.9237,2.9132,2.892,2.8398,2.8291,2.8291,2.8291,2.8291,2.8291,2.8291,2.7864,2.7343,2.6503,2.5881,2.5164,2.4564,2.4262,2.4053,2.3854,2.3546,2.3247,2.3046,2.2544,2.2333,2.2333,2.1928,2.142,2.1121,2.0575,2.0027,1.929,1.8743,1.8381,1.8003,1.7875,1.7714,2.3299,0.0,0.0,0.0,0.0,0.0,0.0,0.0,0.0,0.0,0.0,0.0,0.0,0.0,0.0,0.0,0.0,1.6103,0.0,1.6051,0.0,0.0,1.8237,0.0,1.9171,1.9519,1.9725,1.9965,2.0111,2.0482,2.1013,2.1523,2.2203,2.2939,2.3207,2.3469,2.3927,2.4223,2.4576,2.4907,2.5189,2.552,2.5826,2.5771,2.5635,2.5635,2.5635,2.5538,2.544,2.544,2.544,2.544,2.544,2.544,2.5538,2.5645,2.6279,2.7012,2.7012,2.7578,2.8291,2.8291,2.8291,2.8291,2.8291,2.8291,2.8291,2.8291,2.8291,2.8398,2.8621,2.8824,2.9026,2.9343,2.9564,2.9564,2.9142,2.9036,2.8824,2.8398,2.8291,2.8291,2.8291,2.8291,2.8291,2.8184,2.7612,2.6865,2.6135,2.5516,2.4904,2.4297,2.4152,2.3954,2.3746,2.3447,2.3147,2.2745,2.2333,2.2021,2.1928,2.142,2.1019,2.0822,2.0085,1.9437,1.8897,1.8267,1.7647,1.7145,1.734,1.734,0.0,0.0,0.0,2.2083,0.0,0.0,0.0,0.0,1.8437,0.0,0.0,0.0,0.0,0.0,0.0,0.0,0.0,0.0,0.0,0.0,0.0,0.0,0.0,0.0,0.0,1.7984,1.8013,1.8283,1.8922,1.9383,1.9414,2.0481,2.1288,2.1533,2.24,2.2919,2.3207,2.3799,2.4148,2.4167,2.4761,2.5078,2.5107,2.5537,2.5538,2.5333,2.5333,2.5137,2.4932,2.4932,2.4932,2.4932,2.4932,2.4932,2.5039,2.5538,2.6279,2.7012,2.7012,2.7578,2.8291,2.8291,2.8291,2.8291,2.8291,2.8291,2.8291,2.8291,2.8291,2.8398,2.8621,2.8737,2.8727,2.9026,2.9132,2.9026,2.8727,2.8727,2.8621,2.8398,2.8291,2.8291,2.8291,2.8291,2.8184,2.796,2.7294,2.6569,2.5947,2.5228,2.462,2.4198,2.3954,2.3646,2.3447,2.3147,2.2745,2.2131,2.2131,2.1827,2.1326,2.1019,2.0822,2.0522,1.9552,1.8814,1.8299,1.7655,1.7059,1.6588,1.6878,1.6878,2.4614,2.4198,2.3718,2.2855,2.2181,0.0,0.0,0.0,0.0,0.0,0.0,0.0,0.0,0.0,0.0,0.0,0.0,0.0,0.0,0.0,1.4336,0.0,0.0,0.0,0.0,0.0,1.649,1.7096,1.7396,1.7988,1.9145,1.973,2.0493,2.1471,2.206,2.2579,2.3028,2.325,2.3585,2.3879,2.4173,2.4283,2.4472,2.4822,2.4929,2.4649,2.4916,2.4932,2.4932,2.4932,2.4932,2.4932,2.4932,2.5102,2.5339,2.5538,2.6102,2.6885,2.7561,2.8047,2.8291,2.8291,2.8291,2.8291,2.8291,2.8291,2.8291,2.8291,2.8291,2.8291,2.8398,2.8514,2.8727,2.8834,2.893,2.9036,2.8727,2.8737,2.8621,2.8398,2.8291,2.8203,2.7709,2.766,2.766,2.7554,2.6874,2.6144,2.5526,2.4812,2.4308,2.3963,2.3845,2.3646,2.3147,2.2644,2.2333,2.2123,2.1725,2.1428,2.1019,2.0822,2.0411,1.9998,1.9254,1.8625,1.8016,1.7383,1.6777,1.6116,1.6116,1.6211,2.5228,2.4939,2.459,2.3737,2.3135,2.257,2.1849,2.1344,2.0937,0.0,0.0,0.0,0.0,0.0,0.0,0.0,0.0,0.0,0.0,1.4258,0.0,0.0,0.0,0.0,0.0,0.0,1.5321,1.6088,1.6249,1.6935,1.8322,1.891,1.9657,2.0777,2.144,2.2026,2.2547,2.2791,2.3135,2.3555,2.3711,2.3845,2.3852,2.4285,2.4374,2.4143,2.4406,2.4604,2.4637,2.4637,2.4637,2.4637,2.4637,2.4899,2.5254,2.5447,2.6009,2.6825,2.7728,2.8077,2.8184,2.8184,2.8184,2.8291,2.8291,2.8291,2.8291,2.8291,2.8291,2.8291,2.8291,2.8408,2.8514,2.8514,2.8717,2.8814,2.8621,2.8514,2.8514,2.8184,2.8058,2.7767,2.718,2.6998,2.6902,2.6807,2.6229,2.5656,2.5099,2.45,2.3954,2.3854,2.3655,2.3247,2.2745,2.2232,2.1928,2.1827,2.142,2.1019,2.0719,2.0308,1.9894,1.9576,1.8847,1.8181,1.7573,1.7161,1.6515,1.5855,1.5855,1.5848]},{"header":{"parameterUnit":"m.s-1","parameterCategory":1,"la1":30.6,"la2":29.2853,"lo1":-89.7004,"lo2":-87.6739,"dy":0.0162,"dx":0.0183,"nx":112,"ny":82,"refTime":"2023-05-14T12:00:00:Z","depth":0,"parameterNumber":3,"parameterNumberName":"V-component_of_WINDS"},"data":[0.0,0.0,0.0,0.0,0.0,0.0,0.0,0.0,0.0,0.0,0.0,0.0,0.0,0.0,0.0,0.0,0.0,0.0,0.0,0.0,0.0,0.0,0.0,0.0,0.0,0.0,0.0,0.0,0.0,0.0,0.0,0.0,0.0,0.0,0.0,0.0,0.0,0.0,0.0,0.0,0.0,0.0,0.0,0.0,0.0,0.0,0.0,0.0,0.0,0.0,0.0,0.0,0.0,0.0,0.0,0.0,0.0,0.0,0.0,0.0,0.0,0.0,0.0,0.0,0.0,0.0,0.0,0.0,0.0,0.0,0.0,0.0,0.0,0.0,0.0,0.0,0.0,0.0,0.0,0.0,0.0,0.0,0.0,0.0,0.0,0.0,0.0,0.0,0.0,0.0,-0.766,-0.7832,-0.8429,-0.8846,-0.9016,-0.9065,-0.8923,-0.8456,0.0,0.0,0.0,0.0,0.0,0.0,0.0,0.0,0.0,0.0,0.0,0.0,0.0,0.0,0.0,0.0,0.0,0.0,0.0,0.0,0.0,0.0,0.0,0.0,0.0,0.0,0.0,0.0,0.0,0.0,0.0,0.0,0.0,0.0,0.0,0.0,0.0,0.0,0.0,0.0,0.0,0.0,0.0,0.0,0.0,0.0,0.0,0.0,0.0,0.0,0.0,0.0,0.0,0.0,0.0,0.0,0.0,0.0,0.0,0.0,0.0,0.0,0.0,0.0,0.0,0.0,0.0,0.0,0.0,0.0,0.0,0.0,0.0,0.0,0.0,0.0,0.0,0.0,0.0,0.0,0.0,0.0,0.0,0.0,0.0,0.0,0.0,0.0,0.0,0.0,0.0,0.0,0.0,0.0,0.0,0.0,0.0,0.0,0.0,0.0,0.0,0.0,0.0,0.0,-0.8251,-0.8894,-0.9098,-0.9199,-0.9177,-0.9426,-0.9278,-0.8551,0.0,0.0,0.0,0.0,0.0,0.0,0.0,0.0,0.0,0.0,0.0,0.0,0.0,0.0,0.0,0.0,0.0,0.0,0.0,0.0,0.0,0.0,0.0,0.0,0.0,0.0,0.0,0.0,0.0,0.0,0.0,0.0,0.0,0.0,0.0,0.0,0.0,0.0,0.0,0.0,0.0,0.0,0.0,0.0,0.0,0.0,0.0,0.0,0.0,0.0,0.0,0.0,0.0,0.0,0.0,0.0,0.0,0.0,0.0,0.0,0.0,0.0,0.0,0.0,0.0,0.0,0.0,0.0,0.0,0.0,0.0,0.0,0.0,0.0,0.0,0.0,0.0,0.0,0.0,0.0,0.0,0.0,0.0,0.0,0.0,0.0,0.0,0.0,0.0,0.0,0.0,0.0,0.0,0.0,0.0,0.0,0.0,0.0,0.0,0.0,0.0,0.0,0.0,-0.7756,-0.8586,-0.9385,-0.9506,-0.9496,-0.9545,-0.9664,-0.9469,-0.8803,-0.878,0.0,0.0,0.0,0.0,0.0,0.0,0.0,0.0,0.0,0.0,0.0,0.0,0.0,0.0,0.0,0.0,0.0,0.0,0.0,0.0,0.0,0.0,0.0,0.0,0.0,0.0,0.0,0.0,0.0,0.0,0.0,0.0,0.0,0.0,0.0,0.0,0.0,0.0,0.0,0.0,0.0,0.0,0.0,0.0,0.0,0.0,0.0,0.0,0.0,0.0,0.0,0.0,0.0,0.0,0.0,0.0,0.0,0.0,0.0,0.0,0.0,0.0,0.0,0.0,0.0,0.0,0.0,0.0,0.0,0.0,0.0,0.0,0.0,0.0,0.0,0.0,0.0,0.0,0.0,0.0,0.0,0.0,0.0,0.0,0.0,0.0,0.0,0.0,0.0,0.0,0.0,0.0,0.0,0.0,0.0,0.0,0.0,0.0,0.0,0.0,0.0,0.0,-0.8549,-0.8864,-0.9778,-0.9832,-0.9862,-0.9892,-0.9932,-0.9687,-0.9053,-0.9072,0.0,0.0,0.0,0.0,0.0,0.0,0.0,0.0,0.0,0.0,0.0,0.0,0.0,0.0,0.0,0.0,0.0,0.0,0.0,0.0,0.0,0.0,0.0,0.0,0.0,0.0,0.0,0.0,0.0,0.0,0.0,0.0,0.0,0.0,0.0,0.0,0.0,0.0,0.0,0.0,0.0,0.0,0.0,0.0,0.0,0.0,0.0,0.0,0.0,0.0,0.0,0.0,0.0,0.0,0.0,0.0,0.0,0.0,0.0,0.0,0.0,0.0,0.0,0.0,0.0,0.0,0.0,0.0,0.0,0.0,0.0,0.0,0.0,0.0,0.0,0.0,0.0,0.0,0.0,0.0,0.0,0.0,0.0,0.0,0.0,0.0,0.0,0.0,0.0,0.0,0.0,0.0,0.0,0.0,0.0,0.0,0.0,0.0,0.0,0.0,0.0,0.0,-0.8994,-0.9326,-1.0253,-1.0312,-1.0244,-1.0244,-1.0312,-1.0014,-0.9145,-0.9275,0.0,0.0,0.0,0.0,0.0,0.0,0.0,0.0,0.0,0.0,0.0,0.0,0.0,0.0,0.0,0.0,0.0,0.0,0.0,0.0,0.0,0.0,0.0,0.0,0.0,0.0,0.0,0.0,0.0,0.0,0.0,0.0,0.0,0.0,0.0,0.0,0.0,0.0,0.0,0.0,0.0,0.0,0.0,0.0,0.0,0.0,0.0,0.0,0.0,0.0,0.0,0.0,0.0,0.0,0.0,0.0,0.0,0.0,0.0,0.0,0.0,0.0,0.0,0.0,0.0,0.0,0.0,0.0,0.0,0.0,0.0,0.0,0.0,0.0,0.0,0.0,0.0,0.0,0.0,0.0,0.0,0.0,0.0,0.0,0.0,0.0,0.0,0.0,0.0,0.0,0.0,0.0,0.0,0.0,0.0,0.0,0.0,0.0,0.0,0.0,0.0,0.0,-0.9342,-0.9676,0.0,-1.0697,-1.0659,-1.0572,-1.0321,-0.9944,-0.9315,0.0,0.0,0.0,0.0,0.0,0.0,0.0,0.0,0.0,0.0,0.0,0.0,0.0,0.0,0.0,0.0,0.0,0.0,0.0,0.0,0.0,0.0,0.0,0.0,0.0,0.0,0.0,0.0,0.0,0.0,0.0,0.0,0.0,0.0,0.0,0.0,0.0,0.0,0.0,0.0,0.0,0.0,0.0,0.0,0.0,0.0,0.0,0.0,0.0,0.0,0.0,0.0,0.0,0.0,0.0,0.0,0.0,0.0,0.0,0.0,0.0,0.0,0.0,0.0,0.0,0.0,0.0,0.0,0.0,0.0,0.0,0.0,0.0,0.0,0.0,0.0,0.0,0.0,0.0,0.0,0.0,0.0,0.0,0.0,0.0,0.0,0.0,0.0,0.0,0.0,0.0,0.0,0.0,0.0,0.0,0.0,0.0,0.0,0.0,0.0,0.0,0.0,-0.9499,-0.9709,-1.0056,0.0,-1.1078,-1.1002,-1.0888,-1.0474,-1.0029,-0.9517,0.0,0.0,0.0,0.0,0.0,0.0,0.0,0.0,0.0,0.0,0.0,0.0,0.0,0.0,0.0,0.0,0.0,0.0,0.0,0.0,0.0,0.0,0.0,0.0,0.0,0.0,0.0,0.0,0.0,0.0,0.0,0.0,0.0,0.0,0.0,0.0,0.0,0.0,0.0,0.0,0.0,0.0,0.0,0.0,0.0,0.0,0.0,0.0,0.0,0.0,0.0,0.0,0.0,0.0,0.0,0.0,0.0,0.0,0.0,0.0,0.0,0.0,0.0,0.0,0.0,0.0,0.0,0.0,0.0,0.0,0.0,0.0,0.0,0.0,0.0,0.0,0.0,0.0,0.0,0.0,0.0,0.0,0.0,0.0,0.0,0.0,0.0,0.0,0.0,0.0,0.0,0.0,0.0,0.0,0.0,0.0,0.0,0.0,0.0,0.0,0.0,0.0,-0.9934,-1.0124,-1.0475,-1.1413,-1.1459,-1.1346,-1.1223,-1.0786,-1.0284,0.0,0.0,0.0,0.0,0.0,0.0,0.0,0.0,0.0,0.0,0.0,0.0,0.0,0.0,0.0,0.0,0.0,0.0,0.0,0.0,0.0,0.0,0.0,0.0,0.0,0.0,0.0,0.0,0.0,0.0,0.0,0.0,0.0,0.0,0.0,0.0,0.0,0.0,0.0,0.0,0.0,0.0,0.0,0.0,0.0,0.0,0.0,0.0,0.0,0.0,0.0,0.0,0.0,0.0,0.0,0.0,0.0,0.0,0.0,0.0,0.0,0.0,0.0,0.0,0.0,0.0,0.0,0.0,0.0,0.0,0.0,0.0,0.0,0.0,0.0,0.0,0.0,0.0,0.0,0.0,0.0,0.0,0.0,0.0,0.0,0.0,0.0,0.0,0.0,0.0,0.0,0.0,0.0,0.0,0.0,0.0,0.0,0.0,0.0,0.0,0.0,0.0,0.0,-1.0017,-1.0242,-1.0621,-1.1608,-1.1645,-1.1571,-1.141,-1.0942,-1.0353,-0.9751,0.0,0.0,0.0,0.0,0.0,0.0,0.0,0.0,0.0,0.0,0.0,0.0,0.0,0.0,0.0,0.0,0.0,0.0,0.0,0.0,0.0,0.0,0.0,0.0,0.0,0.0,0.0,0.0,0.0,0.0,0.0,0.0,0.0,0.0,0.0,0.0,0.0,0.0,0.0,0.0,0.0,0.0,0.0,0.0,0.0,0.0,0.0,0.0,0.0,0.0,0.0,0.0,0.0,0.0,0.0,0.0,0.0,0.0,0.0,0.0,0.0,0.0,0.0,0.0,0.0,0.0,0.0,0.0,0.0,0.0,0.0,0.0,0.0,0.0,0.0,0.0,0.0,0.0,0.0,0.0,0.0,0.0,0.0,0.0,0.0,0.0,0.0,0.0,0.0,0.0,0.0,0.0,0.0,0.0,0.0,0.0,0.0,0.0,0.0,0.0,0.0,0.0,-1.021,-1.0572,-1.0979,-1.1766,-1.1782,-1.1719,-1.1608,-1.105,-1.0457,-0.9773,0.0,0.0,0.0,0.0,0.0,0.0,0.0,0.0,0.0,0.0,0.0,0.0,0.0,0.0,0.0,0.0,0.0,0.0,0.0,0.0,0.0,0.0,0.0,0.0,0.0,0.0,0.0,0.0,0.0,0.0,0.0,0.0,0.0,0.0,0.0,0.0,0.0,0.0,0.0,0.0,0.0,0.0,0.0,0.0,0.0,0.0,0.0,0.0,0.0,0.0,0.0,0.0,0.0,0.0,0.0,0.0,0.0,0.0,0.0,0.0,0.0,0.0,0.0,0.0,0.0,0.0,0.0,0.0,0.0,0.0,0.0,0.0,0.0,0.0,0.0,0.0,0.0,0.0,0.0,0.0,0.0,0.0,0.0,0.0,0.0,0.0,0.0,0.0,0.0,0.0,0.0,0.0,0.0,0.0,0.0,0.0,0.0,0.0,0.0,0.0,0.0,0.0,-1.047,-1.1021,-1.1457,-1.1861,-1.1918,-1.1856,-1.1719,-1.119,-1.058,-0.9903,0.0,0.0,0.0,0.0,0.0,0.0,0.0,0.0,0.0,0.0,0.0,0.0,0.0,0.0,0.0,0.0,0.0,0.0,0.0,0.0,0.0,0.0,0.0,0.0,0.0,0.0,0.0,0.0,0.0,0.0,0.0,0.0,0.0,0.0,0.0,0.0,0.0,0.0,0.0,0.0,0.0,0.0,0.0,0.0,0.0,0.0,0.0,0.0,0.0,0.0,0.0,0.0,0.0,0.0,0.0,0.0,0.0,0.0,0.0,0.0,-0.8224,-0.7868,0.0,0.0,0.0,0.0,0.0,0.0,0.0,0.0,0.0,0.0,0.0,0.0,0.0,0.0,0.0,0.0,0.0,0.0,0.0,0.0,0.0,0.0,0.0,0.0,0.0,0.0,0.0,0.0,0.0,0.0,0.0,0.0,0.0,0.0,0.0,0.0,0.0,0.0,0.0,0.0,-1.0481,-1.1099,-1.1595,-1.202,-1.2041,-1.1979,-1.1782,-1.1509,-1.1053,-1.0393,-0.9781,0.0,0.0,0.0,0.0,0.0,0.0,0.0,0.0,0.0,0.0,0.0,0.0,0.0,0.0,0.0,0.0,0.0,0.0,0.0,0.0,0.0,0.0,0.0,0.0,0.0,0.0,0.0,0.0,0.0,0.0,0.0,0.0,0.0,0.0,0.0,0.0,0.0,0.0,0.0,0.0,0.0,0.0,0.0,0.0,0.0,0.0,0.0,0.0,0.0,0.0,0.0,0.0,0.0,0.0,0.0,0.0,0.0,0.0,0.0,-1.0087,-0.9383,0.0,0.0,0.0,0.0,0.0,0.0,0.0,0.0,0.0,0.0,0.0,0.0,0.0,0.0,0.0,0.0,0.0,0.0,0.0,0.0,0.0,0.0,0.0,0.0,0.0,0.0,0.0,0.0,0.0,0.0,0.0,0.0,0.0,0.0,0.0,0.0,0.0,0.0,0.0,0.0,-1.0993,-1.1491,-1.1931,-1.2198,-1.2186,-1.2077,-1.187,-1.1649,-1.1194,-1.0517,-0.9801,0.0,0.0,0.0,0.0,0.0,0.0,0.0,0.0,0.0,0.0,0.0,0.0,0.0,0.0,0.0,0.0,0.0,0.0,0.0,0.0,0.0,0.0,0.0,0.0,0.0,0.0,0.0,0.0,0.0,0.0,0.0,0.0,0.0,0.0,0.0,0.0,0.0,0.0,0.0,0.0,0.0,0.0,0.0,0.0,0.0,0.0,0.0,0.0,0.0,0.0,0.0,0.0,0.0,-1.0811,-1.1391,-1.2192,-1.23,-1.2736,-1.3202,-1.2059,-1.1165,-1.0476,-1.0416,0.0,0.0,0.0,0.0,0.0,0.0,0.0,0.0,0.0,0.0,0.0,0.0,0.0,0.0,0.0,0.0,0.0,0.0,0.0,0.0,0.0,0.0,-1.3474,-1.3971,-1.4088,-1.3683,-1.2275,0.0,0.0,0.0,0.0,0.0,0.0,0.0,0.0,0.0,0.0,0.0,-1.1546,-1.1943,-1.2282,-1.2401,-1.2294,-1.2126,-1.1909,-1.1653,-1.1205,-1.0562,-0.9752,-0.8983,0.0,0.0,0.0,0.0,0.0,0.0,0.0,0.0,0.0,0.0,0.0,0.0,0.0,0.0,0.0,0.0,0.0,0.0,0.0,0.0,0.0,0.0,0.0,0.0,0.0,0.0,0.0,0.0,0.0,0.0,0.0,0.0,-0.7013,-0.7465,0.0,0.0,0.0,0.0,0.0,0.0,0.0,0.0,0.0,0.0,0.0,0.0,0.0,-1.0566,-1.0718,-1.1105,-1.1456,-1.1691,-1.2102,-1.2629,-1.3197,-1.3628,-1.4074,-1.447,-1.4272,0.0,-1.2064,-1.1694,0.0,0.0,0.0,0.0,0.0,0.0,0.0,0.0,0.0,0.0,0.0,0.0,0.0,0.0,0.0,0.0,0.0,0.0,0.0,0.0,0.0,0.0,-1.5173,-1.5251,-1.5265,-1.5199,-1.4977,-1.3735,-1.2625,-1.2416,-1.1886,-1.1369,0.0,0.0,0.0,0.0,0.0,0.0,-1.1601,-1.2083,-1.2437,-1.2401,-1.2365,-1.2258,-1.1945,-1.1653,-1.1345,-1.1031,-1.0199,-0.9391,-0.8636,-0.749,0.0,0.0,0.0,0.0,0.0,0.0,0.0,0.0,0.0,0.0,0.0,0.0,0.0,0.0,0.0,0.0,0.0,0.0,0.0,0.0,0.0,0.0,0.0,0.0,0.0,0.0,0.0,0.0,0.0,-0.7902,-0.8342,-0.8665,-0.8497,-0.8421,0.0,0.0,0.0,0.0,0.0,0.0,0.0,0.0,0.0,-1.1162,-1.1668,-1.2123,-1.2371,-1.2705,-1.3005,-1.34,-1.3762,-1.4151,-1.4696,-1.4919,-1.5219,-1.5609,-1.5609,-1.5233,-1.453,-1.3519,-1.2943,-1.2668,0.0,0.0,0.0,0.0,-1.2723,-1.3046,-1.3332,-1.346,-1.3549,-1.3801,0.0,0.0,0.0,0.0,0.0,0.0,0.0,-1.6009,-1.644,-1.6754,-1.7042,-1.7342,-1.7408,-1.7408,-1.7408,-1.6571,-1.5421,-1.4059,-1.3504,-1.3101,-1.2607,-1.2656,0.0,0.0,0.0,-1.3252,-1.3141,-1.3106,-1.3143,-1.3192,-1.2818,-1.2437,-1.221,-1.1799,-1.1394,-1.1067,-1.017,-0.93,-0.8558,-0.7527,-0.6449,0.0,0.0,0.0,0.0,0.0,0.0,0.0,0.0,0.0,0.0,0.0,0.0,0.0,0.0,0.0,0.0,0.0,0.0,0.0,0.0,0.0,0.0,0.0,0.0,0.0,0.0,0.0,0.0,-0.9305,-0.9688,-0.9911,-0.9864,-0.9804,0.0,0.0,0.0,0.0,0.0,0.0,-1.1558,-1.2101,-1.2514,-1.2884,-1.3214,-1.3572,-1.3889,-1.4022,-1.4372,-1.4774,-1.4932,-1.5331,-1.5817,-1.5817,-1.6049,-1.6451,-1.6451,-1.6464,-1.6388,-1.5172,-1.4573,-1.439,-1.4092,-1.4221,-1.4538,-1.4436,-1.4715,-1.5167,-1.5233,-1.5379,-1.555,-1.5739,-1.5858,-1.5936,-1.6397,0.0,0.0,0.0,0.0,-1.7544,-1.8104,-1.8265,-1.8401,-1.8806,-1.8911,-1.8911,-1.8911,-1.8597,-1.7748,-1.5814,-1.5116,-1.4696,-1.4139,-1.4086,0.0,0.0,0.0,-1.4511,-1.4459,-1.4132,-1.3914,-1.3816,-1.3289,-1.2806,-1.2425,-1.192,-1.142,-1.0981,-1.0158,-0.9234,-0.8324,-0.7518,-0.6522,-0.5318,0.0,0.0,0.0,0.0,0.0,0.0,0.0,0.0,0.0,0.0,0.0,0.0,0.0,0.0,0.0,0.0,0.0,0.0,0.0,0.0,0.0,0.0,0.0,0.0,0.0,0.0,0.0,0.0,0.0,-1.1019,-1.116,0.0,0.0,0.0,0.0,-1.2424,-1.2755,-1.3297,-1.3999,-1.4271,-1.4469,-1.4492,-1.482,-1.5011,-1.5019,-1.5026,-1.5111,-1.5366,-1.5366,-1.5693,-1.6174,-1.6174,-1.6412,-1.6797,-1.6797,-1.684,-1.6858,-1.6405,-1.6074,-1.6018,-1.6131,-1.6399,-1.6825,-1.6694,-1.6881,-1.7223,-1.7116,-1.7124,-1.7217,-1.7604,-1.8103,-1.8555,-1.8907,-1.8878,0.0,0.0,-1.8805,-1.8562,-1.8642,-1.878,-1.8872,-1.8898,-1.8911,-1.8911,-1.8911,-1.8885,-1.863,-1.7878,-1.6837,-1.606,-1.5809,0.0,-1.4827,-1.4762,-1.4631,-1.4617,-1.4773,-1.4736,-1.4511,-1.3976,-1.3742,-1.3313,-1.2484,-1.192,-1.1394,-1.0916,-1.037,-0.945,-0.8088,-0.7621,-0.6633,-0.5046,-0.4672,0.0,0.0,0.0,0.0,0.0,0.0,0.0,0.0,0.0,0.0,0.0,0.0,0.0,0.0,0.0,0.0,0.0,0.0,0.0,0.0,0.0,0.0,0.0,0.0,0.0,0.0,0.0,0.0,-1.2483,-1.2735,0.0,-1.2858,-1.2961,-1.3398,-1.4243,-1.4395,-1.4782,-1.5489,-1.5756,-1.5932,-1.5932,-1.6179,-1.6354,-1.6354,-1.6538,-1.6713,-1.6713,-1.6873,-1.7012,-1.7215,-1.7215,-1.7467,-1.7887,-1.7887,-1.8071,-1.8357,-1.8374,-1.7813,-1.7031,-1.7306,-1.7669,-1.794,-1.8299,-1.8523,-1.8714,-1.9188,-1.9168,-1.9114,-1.9525,-1.989,-2.0169,-2.0469,-2.0378,-2.0291,-2.0709,-2.0768,-2.072,-2.0888,-2.103,-2.1132,-2.1132,-2.1235,-2.1272,-2.1272,-2.1033,-2.0752,-2.0505,-1.9054,-1.7847,-1.7759,-1.7183,-1.6685,-1.6612,-1.6296,-1.6081,-1.6039,-1.5752,-1.5336,-1.4664,-1.4125,-1.3484,-1.2674,-1.2066,-1.1505,-1.0981,-1.0293,-0.9428,-0.8373,-0.75,-0.658,-0.554,-0.4624,-0.3922,0.0,0.0,0.0,0.0,0.0,0.0,0.0,0.0,0.0,0.0,0.0,0.0,0.0,0.0,0.0,0.0,0.0,0.0,0.0,0.0,0.0,0.0,0.0,0.0,0.0,0.0,-1.4057,-1.3985,-1.4387,-1.4577,-1.4577,-1.4675,-1.501,-1.572,-1.594,-1.6203,-1.6721,-1.6978,-1.711,-1.6993,-1.7327,-1.7451,-1.7334,-1.7517,-1.7612,-1.7612,-1.7779,-1.7771,-1.7771,-1.7866,-1.8127,-1.8473,-1.8559,-1.8912,-1.9333,-1.9504,-1.915,-1.8545,-1.8839,-1.9149,-1.9352,-1.9674,-1.9791,-1.9974,-2.0483,-2.0667,-2.0683,-2.113,-2.1445,-2.1726,-2.2111,-2.2043,-2.1925,-2.238,-2.2331,-2.2206,-2.233,-2.2354,-2.2428,-2.2469,-2.2523,-2.2617,-2.2671,-2.2419,-2.2192,-2.2192,-2.0598,-1.9284,-1.9284,-1.8663,-1.8118,-1.788,-1.7532,-1.7222,-1.6956,-1.6625,-1.6162,-1.5478,-1.4714,-1.3865,-1.2975,-1.2169,-1.1505,-1.0933,-1.0167,-0.9328,-0.8383,-0.7491,-0.6579,-0.5656,-0.4442,-0.365,-0.3296,0.0,0.0,0.0,0.0,0.0,0.0,0.0,0.0,0.0,0.0,0.0,0.0,0.0,0.0,0.0,0.0,0.0,0.0,0.0,0.0,0.0,0.0,0.0,-1.4229,-1.4936,-1.5444,-1.5444,-1.5947,-1.6268,-1.6283,-1.6492,-1.6777,-1.7079,-1.7392,-1.7667,-1.7834,-1.816,-1.8192,-1.785,-1.8168,-1.8184,-1.7834,-1.7834,-1.7834,-1.7834,-1.7826,-1.7819,-1.7906,-1.8088,-1.8349,-1.8506,-1.8774,-1.9118,-1.953,-1.9718,-2.0144,-2.066,-2.0633,-2.0866,-2.117,-2.0829,-2.0926,-2.1278,-2.1125,-2.1447,-2.2007,-2.2388,-2.2764,-2.3305,-2.3839,-2.3802,-2.3577,-2.3967,-2.3479,-2.286,-2.2872,-2.2687,-2.2533,-2.2656,-2.2683,-2.2724,-2.2831,-2.2871,-2.2858,-2.2858,-2.1469,-2.0294,-2.0281,-1.9681,-1.9051,-1.8451,-1.8218,0.0,-1.7497,-1.7308,-1.6935,-1.6255,-1.5426,-1.446,-1.3404,-1.2278,-1.1367,-1.0753,-1.0011,-0.9133,-0.8049,-0.7563,-0.6645,-0.5311,-0.4124,-0.3324,-0.2926,0.0,0.0,0.0,0.0,0.0,0.0,0.0,0.0,0.0,0.0,0.0,0.0,0.0,0.0,0.0,0.0,0.0,0.0,0.0,0.0,0.0,0.0,-1.6177,-1.5782,-1.6355,-1.6676,-1.6495,-1.6884,-1.7258,-1.7508,-1.7528,-1.7971,-1.8664,-1.879,-1.9042,-1.9272,-1.9383,-1.9391,-1.9288,-1.9383,-1.9383,-1.9288,-1.9288,-1.9288,-1.9288,-1.922,-1.9192,-1.9184,-1.9216,-1.9274,-1.9535,-1.9535,-1.9894,-2.0421,-2.0598,-2.0952,-2.1346,-2.109,-2.1265,-2.1734,-2.1917,-2.2482,-2.3035,-2.2972,-2.3293,-2.3682,-2.3686,-2.3734,-2.3904,-2.4394,-2.4365,-2.4196,-2.4645,-2.4733,-2.4677,-2.4813,-2.4627,-2.4432,-2.4477,-2.4319,-2.4182,-2.4238,-2.3999,-2.3757,-2.3757,-2.3014,-2.2143,-2.1562,-2.0593,-1.9874,-1.9714,-1.8897,-1.8286,-1.814,-1.7684,-1.7044,-1.6295,-1.5769,-1.4881,-1.3428,-1.2598,-1.1762,-1.0708,-0.9942,-0.9187,-0.8415,-0.7568,-0.6521,-0.5125,-0.4474,-0.3877,0.0,0.0,0.0,0.0,0.0,0.0,0.0,0.0,0.0,0.0,0.0,0.0,0.0,0.0,0.0,0.0,0.0,0.0,0.0,0.0,0.0,0.0,-1.7527,-1.7713,-1.7719,-1.7808,-1.7897,-1.7943,-1.8265,-1.8556,-1.8769,-1.8784,-1.9043,-1.955,-1.9582,-1.9662,-1.9852,-2.0003,-2.0019,-1.9868,-2.0011,-2.0117,-2.0071,-2.0071,-2.0168,-2.0257,-2.015,-2.0148,-2.014,-2.0226,-2.0314,-2.0399,-2.0577,-2.0853,-2.1072,-2.1427,-2.1698,-2.1952,0.0,0.0,0.0,0.0,-2.3339,-2.3785,-2.397,-2.4338,-2.4765,-2.4912,-2.5055,-2.5254,-2.5545,-2.5541,-2.545,-2.5693,-2.5715,-2.5717,-2.5986,-2.5821,-2.562,-2.5754,-2.5467,-2.5199,-2.527,-2.4854,-2.4489,-2.4545,-2.4069,0.0,-2.3119,-2.1974,-2.1015,-2.0562,-1.9886,-1.9249,-1.8762,-1.8284,-1.7648,-1.6849,-1.6158,-1.5296,-1.4074,-1.2974,0.0,0.0,0.0,-0.9039,-0.8193,-0.739,0.0,0.0,0.0,-0.4385,-0.3893,-0.3467,0.0,0.0,-0.1696,-0.1252,0.0,0.0,0.0,0.0,0.0,0.0,0.0,0.0,0.0,0.0,0.0,0.0,0.0,0.0,0.0,0.0,-1.8896,-1.9216,-1.9755,-1.9295,-1.9113,-1.9391,-1.9685,-1.9884,-1.9924,-1.9924,-1.994,-1.9979,-1.9979,-1.9979,-1.9979,0.0,0.0,0.0,0.0,-2.0608,-2.0565,-2.0557,-2.0639,-2.0784,-2.084,-2.0823,-2.0823,-2.1063,-2.1142,-2.1239,-2.1605,-2.1793,-2.1755,-2.2208,-2.2425,-2.2596,-2.2539,-2.2872,-2.3357,-2.3821,-2.4,-2.4138,-2.4462,0.0,0.0,-2.5935,-2.6434,-2.6878,-2.6797,-2.6939,-2.7089,-2.6898,-2.6582,-2.6451,-2.6713,-2.6525,-2.6352,-2.6612,-2.6263,-2.5878,-2.5995,-2.5578,-2.517,-2.5326,-2.4847,-2.4476,-2.4609,-2.3468,-2.2185,-2.1268,-2.0992,-2.0509,-1.9445,-1.9015,-1.8518,-1.7676,-1.6645,0.0,-1.4977,-1.3419,-1.2171,-1.1409,-1.0052,-0.8847,-0.7795,-0.7152,-0.6567,-0.612,-0.5459,-0.4924,-0.449,-0.4052,-0.3672,-0.3317,-0.2444,-0.1769,0.0,0.0,0.0,0.0,0.0,0.0,0.0,0.0,0.0,0.0,0.0,0.0,0.0,0.0,0.0,-1.9977,-1.981,-1.9771,-2.0508,-2.0343,-2.0011,-1.9797,-1.982,-1.9979,-2.0265,-2.0289,-2.0408,-2.0694,-2.0718,-2.0718,-2.0718,-2.1052,-2.1315,-2.1466,-2.1788,-2.2014,-2.1878,-2.187,-2.1824,-2.1519,-2.1437,0.0,-2.1385,-2.1366,-2.1413,-2.17,-2.1787,-2.2037,-2.2438,-2.272,-2.3138,-2.3534,-2.3545,-2.3841,-2.4262,-2.4766,-2.5187,-2.5485,-2.558,-2.5836,-2.6244,-2.6282,-2.651,-2.695,-2.7237,-2.7581,0.0,-2.7666,-2.7782,-2.7874,-2.767,-2.7375,-2.7176,-2.7252,-2.7054,-2.6827,-2.6873,-2.6466,-2.6169,-2.6155,-2.5673,-2.5204,-2.4959,-2.3673,-2.2572,-2.2387,-2.1517,-2.0826,-2.0578,-1.9535,-1.8681,-1.8347,-1.7353,-1.6267,-1.5151,-1.424,-1.3183,-1.1875,-1.0225,-0.8921,-0.8142,-0.7597,-0.7148,-0.6745,-0.6229,-0.5691,-0.5134,-0.4925,-0.4606,-0.4153,-0.2964,-0.2198,0.0,0.0,0.0,0.0,0.0,0.0,0.0,0.0,0.0,0.0,0.0,-1.865,0.0,0.0,-2.0222,-2.097,-2.0876,-2.0885,-2.1322,-2.1291,-2.098,-2.0456,-2.0392,-2.0464,-2.0639,-2.0655,-2.0734,-2.0909,-2.1084,-2.1187,-2.1187,-2.1513,-2.1809,-2.2128,-2.229,-2.2511,-2.277,-2.2761,-2.2775,-2.2686,-2.2621,-2.2647,-2.2552,-2.2455,-2.2554,-2.2566,-2.2762,-2.2946,-2.3121,-2.358,-2.4031,-2.4545,-2.4763,-2.4671,-2.454,-2.5031,-2.5464,-2.5946,-2.6117,-2.6506,-2.7024,-2.7164,-2.7615,-2.8029,-2.815,-2.8437,-2.8619,-2.855,-2.869,-2.8769,-2.8585,-2.8477,-2.8363,-2.813,-2.7865,-2.7624,-2.7624,-2.7203,-2.6893,-2.7081,-2.658,-2.6162,-2.6167,-2.4972,-2.3828,-2.3196,-2.2578,-2.1959,-2.1341,-2.0548,-1.972,-1.8889,-1.8014,-1.6999,-1.5697,-1.4323,-1.2985,-1.1669,-1.0532,-0.9646,-0.9071,-0.862,-0.8224,-0.7825,-0.7417,-0.6922,-0.6373,-0.6033,-0.5619,-0.5139,-0.4168,-0.334,0.0,0.0,0.0,0.0,0.0,0.0,0.0,0.0,-1.8296,-1.8963,-1.9428,-1.9927,-2.0499,-2.0903,-2.1271,-2.173,-2.1876,-2.1957,-2.2025,-2.2172,-2.1964,-2.1402,-2.1171,-2.0996,-2.0933,-2.0925,-2.0948,-2.102,-2.129,-2.1481,-2.1544,-2.1878,-2.2277,-2.2592,-2.2665,-2.2988,-2.3457,-2.3457,-2.3636,-2.3771,-2.3797,-2.3738,-2.3738,-2.3738,-2.3776,-2.3779,-2.3999,-2.4033,-2.4016,-2.4542,-2.501,-2.5493,-2.5929,-2.5602,-2.5144,-2.5477,-2.5849,-2.6206,-2.6707,-2.7206,-2.7684,-2.8099,-2.8657,-2.9123,-2.9074,-2.9315,-2.9561,-2.9444,-2.9516,-2.9597,-2.9469,-2.9592,-2.9642,-2.9159,-2.8843,-2.8581,-2.8457,-2.7991,-2.768,-2.8003,-2.7554,-2.7117,-2.7338,-2.6533,-2.5377,-2.4055,-2.3655,-2.3126,-2.2126,-2.1591,-2.0878,-1.9599,-1.8838,-1.7782,-1.6323,-1.4373,-1.2765,-1.163,-1.1012,-1.0488,-1.0055,-0.9636,-0.9221,-0.8842,-0.8515,-0.8092,-0.757,-0.714,-0.6672,-0.6085,-0.5494,-0.4572,-1.3518,-1.5091,-1.6576,-1.7038,-1.7899,-1.875,0.0,0.0,-1.971,-2.0463,-2.0721,-2.1004,-2.1744,-2.1816,-2.182,-2.2225,-2.2314,-2.2338,-2.2379,-2.2601,-2.279,-2.2707,-2.1893,-2.1266,-2.0948,-2.0925,-2.1052,-2.137,-2.1425,-2.1584,-2.1886,-2.2235,-2.2646,-2.331,-2.3624,-2.3853,-2.4062,-2.4062,-2.4106,-2.4088,-2.4088,-2.4175,-2.4464,-2.4464,-2.4751,-2.5207,-2.5348,-2.5443,-2.5431,-2.5576,-2.5904,-2.6496,-2.6496,-2.6732,-2.7085,-2.7085,-2.7172,-2.7222,-2.7645,-2.7846,-2.7881,-2.8351,-2.8882,-2.9419,-2.9626,-3.0215,-3.069,-3.0163,-3.0381,-3.0703,-3.0363,-3.0419,-3.0418,-2.9986,-2.9975,-2.9973,-2.9554,-2.9059,-2.8788,-2.9009,-2.8482,-2.7968,-2.7671,-2.7563,-2.6934,-2.5435,-2.4226,-2.344,-2.3312,-2.2221,-2.1304,-2.0941,-1.997,-1.8545,-1.6626,-1.5003,-1.3609,-1.2605,-1.1843,-1.114,-1.0525,-1.01,-0.9681,-0.9406,-0.9082,-0.8655,-0.8092,-0.796,-0.7484,-0.6788,-0.6433,-0.5427,-1.518,-1.6843,-1.8344,0.0,-1.9445,-2.0417,-2.0643,-2.0857,-2.1235,-2.1866,-2.1795,-2.1852,-2.2382,-2.2454,-2.2525,0.0,-2.299,-2.3129,-2.3231,-2.3349,-2.3376,-2.3161,-2.2789,-2.2265,-2.1595,-2.1442,-2.1499,-2.1441,-2.1822,-2.2116,-2.2259,-2.283,-2.3245,-2.369,-2.4069,-2.4292,-2.4573,-2.4665,-2.4798,-2.475,-2.4975,-2.5076,-2.5085,-2.5288,-2.5582,-2.5863,-2.6289,-2.6284,-2.6192,-2.6761,-2.6982,-2.7066,-2.7617,-2.8055,-2.8192,-2.7634,-2.7743,-2.8157,-2.8425,-2.8783,-2.9272,-2.9494,-2.9843,-3.0218,-3.0622,-3.0867,-3.1009,-3.1129,-3.1428,-3.1608,-3.1196,-3.1323,-3.1377,-3.0954,-3.0998,-3.1025,-3.0594,-3.0316,-3.014,-3.0024,-2.9492,-2.9016,-2.908,-2.8462,-2.7788,-2.7156,-2.5923,-2.483,-2.4087,-2.3334,-2.2395,-2.107,-1.9913,-1.8708,-1.7394,-1.5939,-1.4774,-1.3952,-1.2877,-1.2054,-1.1628,-1.119,-1.0797,-1.0466,-1.0222,-0.9821,-0.9226,-0.8945,-0.8487,-0.7872,-0.7245,-0.6386,-1.6977,0.0,0.0,-1.9924,-2.1019,-2.2008,-2.1914,-2.2156,-2.2484,-2.2565,-2.2361,-2.2274,-2.2552,-2.273,-2.2921,-2.3133,-2.3451,-2.3697,-2.4033,-2.4144,-2.4044,-2.3769,-2.3645,-2.327,-2.2535,-2.229,-2.2055,-2.194,-2.2421,-2.275,-2.2846,-2.3326,-2.3697,-2.4033,-2.4368,-2.459,-2.4923,-2.5238,-2.534,-2.545,-2.5789,-2.5973,-2.5918,-2.6444,-2.6644,-2.6653,-2.7158,-2.7238,-2.7063,-2.7826,-2.8119,-2.819,-2.8726,-2.914,-2.9309,-2.8477,-2.853,-2.9028,-2.9288,-2.9697,-3.017,-3.0563,-3.0785,-3.1023,-3.1655,-3.1653,-3.1523,-3.2045,-3.2218,-3.2205,-3.2052,-3.2236,-3.2359,-3.1931,-3.191,-3.1937,-3.1503,-3.1295,-3.1147,-3.0991,-3.044,-3.0061,-3.0214,-2.9307,-2.8506,-2.8434,-2.7452,-2.6224,-2.5018,-2.425,-2.3224,-2.1439,-2.0202,-1.9186,-1.8319,-1.7051,-1.599,-1.5258,-1.4024,-1.3106,-1.274,-1.2181,-1.1719,-1.1326,-1.1175,-1.0812,-1.0257,-0.988,-0.9361,-0.8784,-0.7984,-0.7241,0.0,0.0,-2.1718,-2.1913,-2.2693,-2.3367,-2.3212,-2.3216,-2.3026,-2.2465,-2.2364,-2.2298,-2.1958,-2.2245,-2.2592,-2.2921,-2.3451,-2.4033,-2.4376,-2.4599,-2.4812,-2.4804,-2.436,-2.4005,0.0,-2.3228,-2.2955,-2.331,-2.336,-2.3525,-2.388,-2.3913,-2.4033,-2.4376,-2.4684,-2.4889,-2.5221,-2.5569,-2.5798,-2.6127,-2.6445,-2.6763,-2.6971,-2.7833,-2.7931,-2.7617,-2.8147,-2.8523,-2.8618,-2.8618,-2.9282,-3.0078,-2.9631,-3.0108,-3.0882,-3.0365,-2.9871,-2.9646,-3.0509,-3.0518,-3.0253,-3.1058,-3.1524,-3.1754,-3.2501,-3.2488,-3.2471,-3.2847,-3.2722,-3.2475,-3.2889,-3.3129,-3.3143,-3.273,-3.2777,-3.2777,-3.2357,-3.185,-3.1511,-3.1757,-3.1366,-3.0954,-3.0556,-2.9953,-2.9334,-2.9046,-2.8379,-2.7519,-2.6288,-2.4805,-2.349,-2.2459,-2.1292,-2.0227,-1.9507,-1.8214,-1.7132,-1.6289,-1.5185,-1.4333,-1.3781,-1.2937,-1.2283,-1.1877,-1.1728,-1.1418,-1.0871,-1.0506,-1.0035,-0.9361,-0.8679,-0.799,-2.0397,-2.1492,-2.2352,-2.2638,-2.3201,-2.3682,-2.3594,-2.3295,-2.2928,-2.2706,-2.2368,-2.2148,-2.2028,-2.2204,-2.2662,-2.3108,-2.3577,-2.4082,-2.4565,-2.4915,-2.5017,-2.5017,-2.5125,0.0,0.0,0.0,0.0,-2.336,-2.3591,-2.3789,-2.3913,-2.4144,-2.4368,-2.4684,-2.4898,-2.5229,-2.5569,-2.5789,-2.6118,-2.6445,-2.6881,-2.7422,-2.7853,-2.8184,-2.8416,-2.8595,-2.9235,-2.9301,-2.9174,-2.987,-3.0175,-3.0252,-3.0796,-3.1217,-3.1527,-3.1654,-3.162,-3.152,-3.1428,-3.1723,-3.2177,-3.2419,-3.2753,-3.3031,-3.3328,-3.3395,-3.3482,-3.3786,-3.3707,-3.3659,-3.373,-3.3748,-3.3687,-3.3679,-3.3758,-3.3772,-3.3333,-3.2806,-3.2423,-3.2195,-3.1738,-3.1377,-3.1354,-3.0865,-3.0213,-2.9378,-2.8134,-2.7182,-2.6651,-2.5667,-2.4599,-2.3508,-2.28,-2.1924,-2.0726,-1.9448,-1.8339,-1.7553,-1.6322,-1.53,-1.4697,-1.409,-1.341,-1.2735,-1.247,-1.2028,-1.1326,-1.0922,-1.0403,-0.9784,-0.9106,-0.848,-2.1653,-2.2466,-2.3203,-2.3451,-2.3767,-2.3972,-2.3729,-2.325,-2.2808,-2.232,-2.1849,-2.1513,-2.1258,-2.1635,-2.2201,-2.2749,-2.3328,-2.3997,-2.4691,-2.5041,-2.5221,-2.534,-2.5679,-2.5961,0.0,0.0,0.0,-2.4225,-2.4446,-2.4582,-2.4582,-2.4701,-2.4915,-2.5119,-2.534,-2.567,-2.6008,-2.6336,-2.6663,-2.7088,-2.753,-2.797,-2.8398,-2.8717,-2.9026,-2.9459,-2.9879,-3.013,-3.0155,-3.0857,-3.1174,-3.137,-3.1894,-3.2317,-3.2605,-3.2536,-3.2635,-3.282,-3.2372,-3.2636,-3.3154,-3.3484,-3.3675,-3.3957,-3.4338,-3.4404,-3.4335,-3.4796,-3.4729,-3.455,-3.4469,-3.4426,-3.443,-3.4254,-3.4399,-3.4485,-3.4193,-3.38,-3.3416,-3.2824,-3.2317,-3.201,-3.2027,-3.1601,-3.0975,-3.0037,-2.8796,-2.7793,-2.7161,-2.6499,-2.5689,-2.4631,-2.4134,-2.3334,-2.1944,-2.0868,-1.9824,-1.8765,-1.7498,-1.6405,-1.5742,-1.5049,-1.431,-1.3565,-1.3356,-1.2794,-1.1933,-1.1567,-1.1038,-1.0308,-0.9629,-0.9056,-2.2544,-2.3434,-2.4239,-2.4282,-2.4327,-2.425,-2.356,-2.31,-2.2441,-2.1211,-2.0861,-2.0631,0.0,0.0,-2.1363,-2.1709,-2.2925,-2.3979,-2.4564,-2.4994,-2.5348,0.0,0.0,0.0,0.0,0.0,0.0,-2.5887,0.0,-2.5851,-2.5851,-2.5851,-2.586,-2.5851,-2.6053,-2.6373,-2.6691,-2.689,-2.7314,-2.796,-2.8184,-2.8514,-2.8737,-2.9353,-2.9774,-2.9994,-3.0287,-3.0899,-3.1618,-3.1629,-3.2342,-3.3235,-3.2817,-3.3203,-3.3958,-3.3003,-3.3057,-3.3493,-3.3307,-3.3192,-3.324,-3.4147,-3.4397,-3.4647,-3.5467,-3.5316,-3.5118,-3.5878,-3.5747,-3.5274,-3.4954,-3.5192,-3.5281,-3.4603,-3.4698,-3.4935,-3.4935,-3.4743,-3.4355,-3.3726,-3.3291,-3.2871,-3.2521,-3.2113,-3.1587,-3.0947,-3.031,-2.934,-2.7876,-2.7333,-2.6697,-2.5768,-2.525,-2.4471,-2.3196,-2.2497,-2.1482,-1.9977,-1.8736,-1.7676,-1.693,-1.5848,-1.507,-1.447,-1.434,-1.3753,-1.2752,-1.2482,-1.1878,-1.092,-1.0236,-0.972,-2.3905,-2.4239,-2.4367,-2.4941,-2.4505,-2.3922,-2.3712,-2.2626,-2.1577,-2.1143,-2.0508,-1.9902,0.0,0.0,0.0,-2.1553,-2.2758,0.0,-2.4602,-2.533,0.0,-2.6755,0.0,-2.7493,-2.8136,-2.8277,0.0,0.0,-2.7566,-2.7227,-2.7227,-2.7227,-2.734,-2.7669,-2.7373,-2.7326,-2.7676,-2.7682,-2.7853,-2.8184,-2.8514,-2.8834,-2.9353,-2.9774,-3.0088,-3.0297,-3.1013,-3.1424,-3.1629,-3.2555,-3.3081,-3.3369,-3.3997,-3.4328,-3.4547,-3.4556,-3.4421,-3.4347,-3.4223,-3.3926,-3.3641,-3.423,-3.4729,-3.5223,-3.5562,-3.6081,-3.6521,-3.6676,-3.6774,-3.672,-3.6707,-3.6225,-3.5727,-3.5551,-3.5437,-3.5359,-3.5359,-3.5078,-3.4802,-3.4636,-3.3876,-3.3213,-3.2827,-3.2379,-3.2053,-3.1864,-3.1464,-3.0655,-2.942,-2.862,-2.7842,-2.6901,-2.6399,-2.5697,-2.4549,-2.3772,-2.2801,-2.1354,-2.0485,-1.9381,-1.7986,-1.7245,-1.6417,-1.5538,-1.5103,-1.4394,-1.3424,-1.296,-1.2373,-1.1726,-1.117,-1.0662,-2.459,-2.4778,-2.4838,-2.5258,-2.4573,-2.372,-2.3392,-2.2275,-2.1056,-2.0317,-1.9608,0.0,0.0,0.0,0.0,0.0,0.0,0.0,-2.4395,-2.5406,-2.64,0.0,-2.7826,0.0,-2.9343,-2.9618,-2.9809,0.0,-2.8871,-2.8219,-2.8219,-2.8219,-2.8333,-2.8437,-2.8211,-2.8227,-2.8497,-2.8474,-2.8584,-2.8601,-2.893,-2.9353,-2.9774,-3.0088,-3.0505,-3.0899,-3.1414,-3.1834,-3.2353,-3.3081,-3.3568,-3.4052,-3.4543,-3.5114,-3.5534,-3.5382,-3.5353,-3.5364,-3.5337,-3.493,-3.4497,-3.4726,-3.5141,-3.5642,-3.6111,-3.6587,-3.7056,-3.7443,-3.758,-3.7636,-3.7594,-3.7308,-3.6877,-3.623,-3.6163,-3.6094,-3.5808,-3.57,-3.5584,-3.5477,-3.4527,-3.3684,-3.3544,-3.3098,-3.278,-3.2831,-3.2394,-3.1869,-3.1177,-3.01,-2.903,-2.8031,-2.7607,-2.6886,-2.5726,-2.5013,-2.4086,-2.2726,-2.1655,-2.0529,-1.9227,-1.8274,-1.7379,-1.6513,-1.6015,-1.529,-1.4295,-1.3811,-1.3175,-1.2398,-1.1832,-1.1347,-2.4941,-2.5163,-2.5369,-2.5482,-2.4616,-2.3567,-2.2823,-2.1804,-2.0616,-1.9329,0.0,-1.8244,-1.7879,-1.8473,-1.9342,-2.0107,0.0,-2.3082,-2.4242,-2.535,-2.6486,-2.7678,-2.8574,-2.9476,-3.0453,-3.0977,-3.1365,-3.1872,-3.027,-2.9173,-2.9173,-2.906,-2.9031,-2.8974,-2.8974,-2.8997,-2.9123,-2.9352,-2.9489,-2.9409,-2.9737,-2.9949,-3.0275,-3.0517,-3.1006,-3.1728,-3.1753,-3.2353,-3.3281,-3.3481,-3.4052,-3.4823,-3.492,-3.5596,-3.6307,-3.5923,-3.6065,-3.638,-3.6423,-3.6048,-3.5555,-3.5544,-3.5616,-3.5951,-3.6744,-3.7056,-3.7289,-3.7976,-3.8277,-3.831,-3.8133,-3.827,-3.8177,-3.7038,-3.6965,-3.6938,-3.6359,-3.6428,-3.6476,-3.611,-3.5159,-3.4447,-3.4446,-3.4038,-3.375,-3.389,-3.3347,-3.2899,-3.2803,-3.1502,-3.0164,-2.9218,-2.8746,-2.8054,-2.6916,-2.6253,-2.5336,-2.4049,-2.2742,-2.155,-2.0644,-1.9306,-1.8219,-1.7501,-1.6941,-1.6202,-1.5255,-1.4741,-1.3998,-1.3064,-1.2487,-1.2028,-2.5574,-2.5566,-2.5482,-2.5709,-2.465,-2.3418,-2.2845,-2.1388,0.0,0.0,0.0,-1.7804,-1.7586,-1.8162,0.0,-1.9762,0.0,0.0,0.0,0.0,-2.7037,0.0,0.0,0.0,0.0,0.0,0.0,0.0,-3.2085,-3.1765,-3.1327,-3.1212,-3.1043,-3.0674,-3.0664,-3.0568,-3.0249,-3.0249,-3.0529,-3.0983,-3.1102,-3.1319,-3.1869,-3.2017,-3.2147,-3.2334,-3.2746,-3.3081,-3.3381,-3.415,-3.464,-3.492,-3.5787,-3.6263,-3.6439,-3.7019,-3.7052,-3.6895,-3.7312,-3.7324,-3.7074,-3.6563,-3.6333,-3.6308,-3.6822,-3.7443,-3.8052,-3.8127,-3.8664,-3.9162,-3.913,-3.9038,-3.8903,-3.8827,-3.8126,-3.7397,-3.7465,-3.7204,-3.6736,-3.6287,-3.6059,-3.5868,-3.5451,-3.5038,-3.4784,-3.494,-3.4426,-3.3844,-3.3338,-3.2144,-3.1086,-3.0243,-2.9864,-2.923,-2.8084,-2.7564,-2.668,-2.5351,-2.4539,-2.3473,-2.207,-2.0669,-1.9624,-1.8892,-1.7712,-1.6698,-1.5934,-1.5351,-1.4683,-1.3983,-1.3441,-1.2997,-2.5717,-2.5856,-2.5891,-2.5672,-2.472,-2.3481,-2.2788,0.0,0.0,0.0,0.0,-1.7187,-1.7153,0.0,0.0,0.0,0.0,0.0,0.0,0.0,0.0,0.0,0.0,0.0,0.0,0.0,-3.2924,-3.2924,-3.3037,-3.2924,-3.2352,-3.2238,-3.2136,-3.1921,-3.1911,-3.182,-3.1491,-3.1491,-3.1698,-3.1895,-3.1993,-3.2318,-3.2749,-3.3054,-3.3231,-3.3286,-3.3662,-3.3912,-3.415,-3.4738,-3.5211,-3.5692,-3.6345,-3.6815,-3.7201,-3.7585,-3.786,-3.806,-3.8416,-3.8464,-3.8347,-3.8311,-3.7729,-3.7284,-3.7941,-3.8174,-3.8277,-3.8738,-3.9119,-3.9481,-3.9753,-3.9792,-3.9734,-3.9616,-3.8608,-3.7809,-3.8138,-3.7651,-3.7175,-3.7096,-3.6848,-3.6596,-3.643,-3.6007,-3.5623,-3.5337,-3.5132,-3.4742,-3.4071,-3.3486,-3.2611,-3.1388,-3.0672,-3.0022,-2.9262,-2.8422,-2.753,-2.6549,-2.5563,-2.4521,-2.3366,-2.2001,-2.0807,-1.9701,-1.8732,-1.77,-1.6684,-1.6093,-1.5459,-1.4834,-1.4291,-1.3692,-2.5613,-2.5925,-2.606,-2.5762,-2.472,-2.3555,-2.2577,-2.1189,0.0,0.0,-1.7407,-1.6871,-1.6779,0.0,0.0,0.0,0.0,0.0,0.0,0.0,0.0,0.0,0.0,0.0,0.0,0.0,0.0,-3.3738,-3.3963,-3.3727,-3.3037,-3.3027,-3.313,-3.313,-3.313,-3.3085,-3.2971,-3.2961,-3.2891,-3.2867,-3.3074,-3.3388,-3.3689,-3.4123,-3.4391,-3.452,-3.4606,-3.4869,-3.5175,-3.5356,-3.5883,-3.6546,-3.6815,-3.7374,-3.7939,-3.8122,-3.8562,-3.8997,-3.9469,-3.9518,-3.9548,-4.0055,-3.9375,-3.8408,-3.9223,-3.9182,-3.8971,-3.9518,-3.9763,-3.9934,-4.0191,-4.0455,-4.0507,-4.008,-3.9279,-3.8654,-3.8631,-3.8169,-3.7785,-3.7892,-3.7486,-3.7215,-3.7327,-3.6896,-3.6393,-3.6032,-3.5922,-3.5612,-3.4923,-3.4824,-3.4235,-3.28,-3.1724,-3.0847,-3.0228,-2.9231,-2.836,-2.755,-2.6418,-2.5436,-2.4693,-2.3352,-2.2011,-2.0772,-1.9973,-1.8939,-1.7567,-1.6924,-1.6233,-1.5526,-1.4942,-1.4291,-2.5485,-2.5613,-2.5744,-2.5801,-2.4729,-2.3244,-2.211,0.0,0.0,-1.7976,-1.7408,-1.7098,-1.6703,-1.714,0.0,0.0,0.0,0.0,0.0,0.0,0.0,0.0,0.0,0.0,0.0,0.0,-3.4412,-3.4412,-3.4969,-3.4858,-3.3974,-3.4155,-3.4368,-3.4368,-3.4368,-3.4346,-3.4303,-3.4303,-3.4414,-3.4736,-3.4736,-3.5046,-3.555,-3.5431,-3.5629,-3.6156,-3.5723,-3.5767,-3.6272,-3.6273,-3.6546,-3.7108,-3.7572,-3.7939,-3.8291,-3.8935,-3.9216,-3.938,-4.0257,-4.0574,-4.0689,-4.1532,-4.0819,-3.9686,-4.0266,-4.0701,-4.107,-4.0678,-4.0948,-4.1168,-4.0608,-4.0746,-4.0946,-4.0637,-4.0658,-4.0464,-3.9202,-3.8882,-3.8642,-3.7987,-3.8001,-3.8124,-3.8254,-3.779,-3.7502,-3.7735,-3.7228,-3.6587,-3.6107,-3.5844,-3.5383,-3.4736,-3.3598,-3.2256,-3.0762,-3.0164,-2.9372,-2.8286,-2.754,-2.6799,-2.6144,-2.4735,-2.3633,-2.2829,-2.1462,-2.0088,-1.8804,-1.8052,-1.7074,-1.5989,-1.541,-1.4874,-2.4772,-2.5225,-2.5578,-2.5135,-2.4319,-2.3326,-2.1997,0.0,0.0,-1.8113,-1.7318,-1.6782,-1.6727,-1.6862,-1.7337,0.0,0.0,0.0,0.0,0.0,0.0,0.0,0.0,0.0,0.0,0.0,-3.5069,-3.5268,-3.5719,-3.584,-3.5719,-3.529,-3.5069,-3.5069,-3.5069,-3.5168,-3.5256,-3.5256,-3.5488,-3.573,-3.5961,-3.6266,-3.6569,-3.6908,-3.7073,-3.7144,-3.6905,-3.6789,-3.6943,-3.6963,-3.7307,-3.7664,-3.8291,-3.8652,-3.8935,-3.9367,-3.9719,-4.017,-4.0616,-4.1029,-4.1535,-4.2049,-4.2093,-4.1898,-4.1685,-4.1669,-4.1745,-4.187,-4.2068,-4.2271,-4.185,-4.1704,-4.1672,-4.1517,-4.1373,-4.1096,-4.0671,-3.9941,-3.9363,-3.9129,-3.8837,-3.86,-3.8655,-3.863,-3.8463,-3.814,-3.7982,-3.7703,-3.7052,-3.6502,-3.6071,-3.5819,-3.4312,-3.2966,-3.2207,-3.1069,-3.0101,-2.9389,-2.8324,-2.75,-2.6938,-2.5973,-2.4981,-2.3919,-2.288,-2.17,-2.037,-1.9598,-1.8812,-1.798,-1.7084,-1.6305,-2.3945,-2.4629,-2.5069,-2.445,-2.3852,-2.3012,0.0,0.0,-1.9093,-1.8206,-1.739,-1.6827,-1.6801,-1.6765,-1.7134,0.0,0.0,-2.0629,0.0,0.0,0.0,0.0,0.0,0.0,0.0,-3.4921,-3.584,-3.6145,-3.6363,-3.67,-3.6928,-3.6398,-3.5961,-3.5961,-3.5852,-3.5938,-3.6134,-3.6134,-3.6363,-3.6712,-3.6928,-3.7143,-3.7453,-3.7974,-3.819,-3.8238,-3.8078,-3.8025,-3.7871,-3.789,-3.8018,-3.8395,-3.8832,-3.9278,-3.9631,-3.9881,-4.0329,-4.0958,-4.1029,-4.1619,-4.2281,-4.2541,-4.3105,-4.357,-4.3242,-4.3001,-4.2799,-4.3071,-4.3214,-4.3169,-4.2925,-4.2732,-4.251,-4.235,-4.2042,-4.1808,-4.1736,-4.1026,-4.0361,-4.0263,-3.968,-3.9226,-3.9226,-3.9297,-3.9212,-3.8733,-3.8805,-3.8656,-3.7952,-3.7416,-3.6913,-3.6508,-3.5143,-3.4018,-3.3338,-3.2203,-3.113,-3.026,-2.9278,-2.8373,-2.7565,-2.6953,-2.6107,-2.4992,-2.4258,-2.3286,-2.1924,-2.1215,-2.0474,-1.969,-1.8717,-1.7777,-2.3167,-2.3653,-2.3944,-2.4011,-2.321,-2.2168,0.0,0.0,-1.9297,-1.8114,-1.7659,-1.7382,-1.6914,-1.7017,-1.7496,-1.8438,-1.9609,0.0,0.0,0.0,0.0,0.0,0.0,0.0,-3.3738,-3.5358,-3.6483,-3.7024,-3.7131,0.0,-3.7596,-3.7596,-3.7477,-3.7131,-3.7131,-3.7131,-3.7131,-3.7131,-3.7251,-3.7596,-3.7596,-3.7904,-3.8409,-3.8699,-3.9129,-3.9647,-3.9361,-3.9287,-3.9412,-3.8932,-3.8912,-3.9305,-3.9305,-3.9719,-4.0301,-4.0602,-4.0958,-4.148,-4.1883,-4.2281,-4.2769,-4.317,-4.3723,-4.4358,-4.4799,-4.4708,-4.4569,-4.4507,-4.4243,-4.3926,-4.3523,-4.3541,-4.3524,-4.3,-4.299,-4.2916,-4.2228,-4.2064,-4.1852,-4.1114,-4.0475,-4.0117,-4.0244,-3.9844,-3.9537,-3.9677,-3.9661,-3.9461,-3.8841,-3.864,-3.807,-3.6737,-3.6458,-3.5649,-3.3968,-3.3554,-3.2604,-3.0792,-3.037,-2.9563,-2.8155,-2.7715,-2.7108,-2.6283,-2.5673,-2.475,-2.348,-2.2763,-2.1798,-2.0665,-2.0006,-1.8922,-2.1661,-2.2202,-2.2596,-2.2428,-2.2222,-2.168,-2.0346,0.0,-1.8849,-1.8066,-1.7582,-1.7262,-1.7278,-1.7524,-1.7868,-1.8379,-1.9736,0.0,0.0,0.0,0.0,0.0,0.0,0.0,0.0,0.0,-3.7131,-3.7667,-3.7773,-3.788,-3.8421,-3.8433,-3.821,-3.7773,-3.7773,-3.7773,-3.7986,-3.7986,-3.8104,-3.8421,-3.8631,-3.8958,-3.927,-3.9556,-3.9955,-4.0453,-4.0162,-3.9888,-3.9794,-3.9774,-3.9563,-3.9394,-3.9996,-4.043,-4.0688,-4.1184,-4.1535,-4.1883,-4.2281,-4.2769,-4.317,-4.3801,-4.4343,-4.4799,-4.5336,-4.5499,-4.5526,-4.5849,-4.5608,-4.5217,-4.5259,-4.4675,-4.4019,-4.3994,-4.369,-4.3426,-4.3313,-4.2983,-4.2641,-4.2392,-4.1799,-4.1188,-4.0704,-4.0635,-4.0525,-4.0054,-4.0121,-4.0203,-3.9965,-3.9489,-3.8996,-3.8567,-3.8027,-3.6878,-3.4872,-3.4163,-3.3436,-3.2572,-3.1819,-3.091,-2.9706,-2.9224,-2.8434,-2.7414,-2.6782,-2.6034,-2.523,-2.4458,-2.3319,-2.1823,-2.1067,-2.0049,0.0,-2.088,-2.1374,-2.1332,-2.1131,0.0,0.0,0.0,-1.8394,-1.8156,-1.7698,-1.7423,-1.7534,-1.7934,-1.8361,-1.8901,-2.0314,0.0,0.0,0.0,0.0,0.0,0.0,0.0,0.0,-3.7038,-3.7667,-3.8303,-3.8409,-3.8724,-3.9166,-3.9258,-3.9141,-3.8933,-3.8619,-3.8619,-3.8736,-3.8841,-3.905,-3.9245,-3.9465,-3.9775,-4.0198,-4.0389,-4.0795,-4.1172,-4.1202,-4.0887,0.0,-4.0583,-4.0308,-3.9908,-4.0443,-4.0859,-4.1198,-4.1619,-4.2117,-4.2526,-4.285,-4.3329,-4.3879,-4.4343,-4.5008,-4.5599,-4.6064,-4.6223,-4.6278,-4.6668,-4.6689,-4.6484,-4.6422,-4.5878,-4.5247,-4.5185,-4.4677,-4.4264,-4.4348,-4.3896,-4.3507,-4.3564,-4.2997,-4.2412,-4.1957,-4.1813,-4.1528,-4.0798,-4.0796,-4.0793,-4.0519,-4.0075,-3.9699,-3.9409,-3.8982,-3.8057,-3.6447,-3.5534,-3.4664,-3.3697,-3.2957,-3.2169,-3.1099,-3.0608,-2.9842,-2.8704,-2.8127,-2.7432,-2.6544,-2.5672,-2.4608,-2.3288,-2.2489,-2.1559,0.0,0.0,0.0,0.0,0.0,0.0,0.0,0.0,0.0,0.0,-1.807,-1.7778,-1.7811,-1.8306,-1.8971,-1.9845,-2.1372,0.0,0.0,0.0,0.0,0.0,0.0,0.0,-3.6411,-3.7465,-3.8303,-3.8841,-3.9154,-3.9465,-3.9685,-3.9981,-4.0287,-4.0504,-3.9878,-3.9465,-3.9374,-3.9581,-3.989,-4.0173,-4.0185,-4.0478,-4.0984,-4.1198,-4.1511,-4.1796,-4.2302,-4.2058,-4.127,-4.1415,-4.1273,-4.0828,-4.0914,-4.1411,-4.2179,-4.2179,-4.271,-4.3404,-4.3404,-4.3988,-4.4648,-4.4949,-4.5728,-4.6668,-4.6876,-4.6961,-4.703,-4.7183,-4.7504,-4.7622,-4.7139,-4.7052,-4.7008,-4.6525,-4.5865,-4.5354,-4.5445,-4.4906,-4.4474,-4.4519,-4.4054,-4.3671,-4.362,-4.3251,-4.2638,-4.1834,-4.1714,-4.1458,-4.0822,-4.0686,-4.0394,-3.9709,-3.9542,-3.9217,-3.8482,-3.7432,-3.6089,-3.4313,-3.3918,-3.3324,-3.2387,-3.1965,-3.1246,-3.0179,-2.9663,-2.8847,-2.764,-2.6453,-2.5631,-2.4966,-2.4053,-2.3301,-1.7531,0.0,-1.8834,-1.9166,-1.9196,0.0,0.0,0.0,0.0,0.0,0.0,-1.8526,-1.8946,-1.9738,-2.0482,-2.0985,-2.284,0.0,0.0,0.0,0.0,0.0,0.0,-3.6398,-3.6917,-3.8202,-3.9154,-3.9478,-3.9775,-3.9981,-4.03,-4.0593,-4.0782,-4.0795,-4.0984,-4.0883,-4.0198,-4.03,-4.0504,-4.0681,-4.0896,-4.1198,-4.1498,-4.1782,-4.219,-4.2595,-4.279,-4.274,-4.268,-4.2892,-4.2809,-4.246,-4.2969,-4.3329,-4.3571,-4.4246,-4.4348,-4.4158,-4.4795,-4.4849,-4.4723,-4.5656,-4.6372,-4.6945,-4.7588,-4.7638,-4.7571,-4.7737,-4.7919,-4.8065,-4.8139,-4.7751,-4.7345,-4.7467,-4.6937,-4.6346,-4.6039,-4.5823,-4.5533,-4.4971,-4.477,-4.448,-4.3917,-4.3836,-4.3563,-4.2909,-4.2938,-4.2968,-4.2874,-4.2337,-4.1873,-4.1682,-4.1116,-4.0383,-3.9531,-3.7934,-3.6786,-3.6276,-3.5429,-3.4593,-3.3756,-3.3277,-3.259,-3.172,-3.0385,-2.9391,-2.8789,-2.7535,-2.6663,-2.6108,-2.5329,-2.4597,-1.7207,-1.7745,-1.835,-1.91,-1.9233,-1.9227,0.0,0.0,0.0,0.0,0.0,0.0,-1.988,0.0,0.0,0.0,-2.392,0.0,0.0,0.0,0.0,0.0,0.0,-3.7118,0.0,-3.8828,-3.9878,-4.0185,-4.0491,-4.0795,-4.101,-4.1036,-4.109,-4.109,-4.1037,-4.1057,-4.1097,-4.1198,-4.1285,-4.1484,-4.1597,-4.1749,-4.1776,-4.1957,-4.2261,-4.2862,-4.3052,-4.3235,-4.3286,-4.3652,-4.3645,-4.3414,-4.3849,-4.4279,-4.4619,-4.5123,-4.5311,-4.5369,-4.5539,-4.5508,-4.551,-4.6301,-4.6945,-4.7521,-4.7869,-4.8115,-4.8292,-4.8244,-4.8373,-4.861,-4.8673,-4.8574,-4.8392,-4.8574,-4.8073,-4.7486,-4.729,-4.7026,-4.6601,-4.5935,-4.5887,-4.5682,-4.4871,-4.4854,-4.4647,-4.3987,-4.3965,-4.3892,-4.3641,-4.3241,-4.2793,-4.2445,-4.1997,-4.1348,-4.0504,-3.9226,-3.8064,-3.7047,-3.6441,-3.5746,-3.4975,-3.4518,-3.3782,-3.2763,-3.1516,-3.0688,-3.0198,-2.9346,-2.8454,-2.7654,-2.6885,-2.6021,-1.7361,-1.7924,-1.8564,-1.9607,-1.9704,-1.9805,0.0,0.0,0.0,0.0,0.0,0.0,0.0,0.0,0.0,0.0,0.0,0.0,0.0,0.0,0.0,0.0,-3.649,0.0,-3.8013,-3.9233,-4.0222,-4.0624,-4.0937,-4.1248,-4.1433,-4.1249,-4.1066,-4.1066,-4.0695,-4.0813,-4.1616,-4.1812,-4.191,-4.191,-4.191,-4.1933,-4.1923,-4.1923,-4.2205,-4.2699,-4.3272,-4.3589,-4.3771,-4.4205,-4.4469,-4.4399,-4.45,-4.4929,-4.5603,-4.5672,-4.6188,-4.6634,-4.6005,-4.608,-4.6587,-4.6856,-4.7437,-4.8001,-4.8066,-4.85,-4.894,-4.8673,-4.8798,-4.9063,-4.9063,-4.9307,-4.9488,-4.9547,-4.9068,-4.8631,-4.8684,-4.8264,-4.7741,-4.7122,-4.7021,-4.6778,-4.6116,-4.5908,-4.5594,-4.5,-4.4896,-4.4669,-4.4073,-4.3899,-4.3585,-4.2875,-4.2579,-4.2161,-4.1481,-4.0687,-3.9465,-3.7682,-3.7177,-3.6627,-3.5851,-3.552,-3.4818,-3.3689,-3.2842,-3.2203,-3.1694,-3.1191,-3.0382,-2.9307,-2.8554,-2.7608,-1.7424,-1.8442,-1.94,-1.9618,-1.9932,-2.0389,0.0,0.0,0.0,0.0,0.0,0.0,0.0,0.0,0.0,0.0,0.0,0.0,0.0,0.0,0.0,-3.6025,0.0,-3.7409,-3.7891,-3.8962,-3.9641,-3.9737,-4.0123,-4.0518,-4.0518,-4.0709,-4.075,-4.075,-4.087,-4.1098,-4.1434,-4.0884,-4.0803,-4.1287,-4.1287,-4.1434,-4.1801,-4.1801,-4.2062,-4.253,-4.3259,-4.3925,-4.476,-4.5414,-4.5856,-4.6197,-4.6649,-4.6909,-4.7081,-4.7646,-4.7696,-4.7361,-4.6776,-4.7107,-4.7648,-4.731,-4.7521,-4.8066,-4.8373,-4.8673,-4.9001,-4.9107,-4.9229,-4.9428,-4.9428,-4.9488,-4.9547,-4.9649,-4.9563,-4.9423,-4.9089,-4.892,-4.8719,-4.8029,-4.7422,-4.6934,-4.683,-4.6256,-4.5786,-4.5815,-4.5798,-4.5813,-4.5789,-4.5277,-4.4822,-4.4699,-4.3413,-4.2544,-4.2404,-4.1533,-4.0607,-3.9693,-3.8225,-3.6911,-3.5851,-3.5622,-3.5391,-3.5015,-3.4064,-3.339,-3.3092,-3.2111,-3.1325,-3.0673,-3.0114,-2.944,-1.7969,-1.9345,-2.0794,-2.1441,-2.1773,0.0,0.0,0.0,0.0,0.0,0.0,0.0,0.0,0.0,0.0,0.0,0.0,0.0,0.0,-3.4361,-3.5219,0.0,0.0,-3.7954,-3.8334,-3.9125,-3.9846,-4.0131,-4.0334,-4.0616,-4.0883,-4.0692,-4.0699,-4.0763,-4.0658,-4.0584,-4.0646,-4.03,-4.0627,-4.1479,-4.1479,-4.1498,-4.1543,-4.1619,-4.1873,-4.2227,-4.2965,-4.3832,-4.4908,-4.5507,-4.6197,-4.7033,-4.7222,-4.7553,-4.7964,-4.862,-4.8596,-4.831,-4.8298,-4.8432,-4.8643,-4.8188,-4.8448,-4.8842,-4.8681,-4.894,-4.9307,-4.935,-4.9471,-4.959,-4.959,-4.9666,-4.9801,-4.986,-4.9901,-4.9913,-4.9738,-4.9837,-4.9704,-4.8992,-4.8662,-4.833,-4.7875,-4.7159,-4.6702,-4.6753,-4.6403,-4.6122,-4.6172,-4.5923,-4.5554,-4.5133,-4.4418,-4.36,-4.2777,-4.231,-4.1503,-4.0165,-3.892,-3.7749,-3.6774,-3.659,-3.6225,-3.5566,-3.5059,-3.4676,-3.4416,-3.3693,-3.2934,-3.2126,-3.1561,-3.0794,-1.8617,-2.0191,-2.1996,-2.3171,0.0,0.0,0.0,0.0,0.0,0.0,0.0,0.0,0.0,0.0,0.0,0.0,0.0,0.0,-3.4448,-3.5187,-3.6097,-3.7178,-3.7881,-3.8421,-3.87,-3.9269,-3.9894,-4.0293,-4.0385,-4.0662,-4.1014,-4.0693,-4.0536,-4.0686,-4.0244,-4.0009,-4.0097,-4.0097,-4.0581,-4.1418,-4.1508,-4.1438,-4.1243,-4.1491,-4.1751,-4.2024,-4.2666,-4.3629,-4.4734,-4.5489,-4.6349,-4.7156,-4.7407,-4.788,-4.8552,-4.9113,-4.9268,-4.9249,-4.9489,-4.9579,-4.9573,-4.9217,-4.9344,-4.9569,-4.919,-4.926,-4.9488,-4.9547,-4.9649,-4.9784,-4.9784,-4.986,-5.0011,-5.0011,-5.0092,-5.0189,-5.0246,-5.0436,-5.0427,-4.994,-4.9767,-4.9486,-4.8889,-4.817,-4.7678,-4.7678,-4.7011,-4.6502,-4.6502,-4.6344,-4.5993,-4.5431,-4.5203,-4.4483,-4.2938,-4.2816,-4.2111,-4.0533,-3.9616,-3.8764,-3.7915,-3.7688,-3.7151,-3.6239,-3.6027,-3.5763,-3.5383,-3.5024,-3.4411,-3.3486,-3.2978,-3.2136,-1.9101,-2.0758,-2.2631,-2.373,0.0,0.0,0.0,0.0,0.0,0.0,0.0,0.0,0.0,0.0,0.0,0.0,0.0,-3.4097,-3.5123,0.0,-3.691,-3.7782,-3.807,-3.8279,-3.8565,-3.8849,-3.9132,-3.9338,-3.9632,-3.9898,-4.0134,-4.0092,-4.0065,-4.0065,-4.0023,-4.0097,-4.0399,-4.0399,-4.0441,-4.0524,-4.067,-4.0872,-4.1071,-4.127,-4.1621,-4.2067,-4.2731,-4.3387,-4.4161,-4.5615,-4.6391,-4.6734,-4.779,-4.8552,-4.8996,-4.9452,-4.9789,-5.0101,-4.986,-5.0123,-5.0555,-5.0182,-4.9893,-4.9653,-4.9907,-4.979,-4.9547,-4.9649,-4.986,-5.0011,-5.0011,-5.0011,-5.0011,-5.0011,-5.0092,-5.0246,-5.0359,-5.0492,-5.064,-5.0749,-5.0188,-4.9662,-4.9609,-4.8995,-4.8503,-4.8503,-4.7819,-4.7309,-4.7309,-4.6677,-4.6154,-4.6151,-4.5519,-4.4483,-4.2938,-4.2816,-4.2447,-4.1525,-4.0683,-3.9783,-3.8929,-3.8641,-3.8163,-3.7378,-3.7124,-3.6542,-3.5577,-3.5424,-3.5085,-3.456,-3.4169,-3.3735,-1.9601,-2.123,-2.3206,-2.4801,0.0,0.0,0.0,0.0,0.0,0.0,0.0,0.0,0.0,0.0,0.0,0.0,0.0,-3.5391,-3.6192,-3.6898,-3.7566,-3.8251,-3.8408,-3.8589,-3.9038,-3.9114,-3.9292,-3.9733,-3.9834,-4.0023,-4.0211,-4.0298,-4.0284,-4.043,-4.043,-4.0516,-4.0773,-4.0773,-4.0873,-4.0986,-4.0944,-4.1015,-4.1283,-4.1633,-4.1883,-4.2049,-4.2694,-4.3442,-4.428,-4.4922,-4.5943,-4.7174,-4.8291,-4.898,-4.9372,-4.9677,-5.0089,-5.0448,-5.0634,-5.0985,-5.131,-5.1082,-5.0993,-5.0843,-5.0244,-5.0147,-5.0086,-4.9667,-4.9801,-5.0011,-5.0011,-5.0011,-5.0011,-5.0011,-5.0092,-5.0189,-5.0246,-5.0397,-5.0509,-5.0582,-5.0337,-5.0145,-5.0145,-4.9571,-4.9135,-4.9135,-4.8592,-4.7959,-4.745,-4.7134,-4.6765,-4.6274,-4.5554,-4.4869,-4.429,-4.336,-4.2675,-4.2377,-4.1488,-4.0612,-3.9844,-3.9616,-3.9136,-3.833,-3.8136,-3.7562,-3.6676,-3.6424,-3.5896,-3.5102,-3.4691,-3.43,-2.0384,-2.2221,-2.4333,0.0,0.0,0.0,0.0,0.0,0.0,0.0,0.0,0.0,0.0,0.0,0.0,0.0,-3.5662,-3.6516,-3.7103,-3.7779,-3.8389,-3.8895,-3.8948,-3.9127,-3.9482,-3.9482,-3.9659,-4.0097,-4.011,-4.0198,-4.0471,-4.0544,-4.0616,-4.0773,-4.0873,-4.0944,-4.11,-4.11,-4.1283,-4.1564,-4.1437,-4.1437,-4.1647,-4.1966,-4.2213,-4.2348,-4.2835,-4.3504,-4.4193,-4.4694,-4.5975,-4.7665,-4.8565,-4.9184,-4.9597,-4.9931,-5.0262,-5.0666,-5.1108,-5.1483,-5.1842,-5.1901,-5.1846,-5.1615,-5.0828,-5.0555,-5.0461,-4.9753,-4.9801,-5.0011,-5.0011,-5.0011,-5.0011,-5.0011,-5.0092,-5.0189,-5.0189,-5.0302,-5.0415,-5.0415,-5.0415,-5.0415,-5.0415,-5.0035,-4.9814,-4.9814,-4.9275,-4.8714,-4.8136,-4.7696,-4.7099,-4.6259,-4.5765,-4.5361,-4.5115,-4.4132,-4.3325,-4.2833,-4.2198,-4.1506,-4.0736,-4.0595,-4.0095,-3.9303,-3.9091,-3.8577,-3.773,-3.7177,-3.6576,-3.584,-3.5218,-3.4787,-2.1542,-2.3706,0.0,0.0,0.0,0.0,0.0,0.0,0.0,0.0,0.0,0.0,0.0,0.0,0.0,-3.6085,-3.6601,-3.7117,-3.7994,-3.8837,-3.938,-3.9604,-3.9807,-3.9996,-3.9996,-3.9996,-4.0097,-4.0399,-4.0399,-4.0471,-4.0688,-4.0916,-4.0986,-4.0986,-4.1283,-4.1381,-4.1381,-4.1396,-4.1647,-4.1951,-4.2049,-4.2049,-4.2049,-4.2295,-4.2607,-4.2996,-4.325,-4.3423,-4.3814,-4.5078,-4.6624,-4.8277,-4.853,-4.9016,-4.9661,-5.0105,-5.0418,-5.0666,-5.1275,-5.1647,-5.1924,-5.2694,-5.2418,-5.1799,-5.1583,-5.1106,-5.0478,-4.9872,-4.986,-5.0011,-5.0011,-5.0011,-5.0011,-5.0011,-5.0092,-5.0189,-5.0189,-5.0302,-5.0415,-5.0415,-5.0415,-5.0415,-5.0415,-5.0415,-5.0415,-5.0415,-4.9881,-4.9518,-4.9501,-4.8259,-4.7099,-4.6259,-4.6172,-4.5923,-4.5168,-4.5098,-4.4448,-4.2938,-4.2816,-4.2447,-4.1639,-4.1471,-4.1076,-4.0324,-4.0068,-3.9489,-3.8594,-3.7747,-3.712,-3.6755,-3.584,-3.5195,-2.1858,0.0,0.0,0.0,0.0,0.0,0.0,0.0,0.0,0.0,0.0,0.0,0.0,0.0,0.0,-3.6989,-3.7455,-3.7986,-3.8673,-3.9349,-3.9821,-3.9895,-3.9908,-4.0097,-4.0298,-4.0457,-4.0602,-4.0773,-4.0972,-4.0943,-4.0475,-4.053,-4.0413,-3.9918,-4.0399,-4.0807,-4.1001,-4.1501,-4.1966,-4.231,-4.2459,-4.2526,-4.2526,-4.2688,-4.2996,-4.325,-4.3503,-4.391,-4.4404,-4.5541,-4.6436,-4.715,-4.8231,-4.8875,-4.9423,-5.0242,-5.0666,-5.0896,-5.1499,-5.1778,-5.1924,-5.2694,-5.2753,-5.2503,-5.2149,-5.1664,-5.106,-5.039,-4.9898,-4.9666,-4.9784,-4.9784,-4.9842,-4.9935,-5.0051,-5.0051,-5.0051,-5.0109,-5.0109,-5.0109,-5.0109,-5.0109,-5.0109,-5.0206,-5.0246,-5.0246,-5.0167,-4.9794,-4.8802,-4.7909,-4.7099,-4.6259,-4.6172,-4.6133,-4.5905,-4.5414,-4.4904,-4.4448,-4.3412,-4.2447,-4.1639,-4.156,-4.141,-4.1093,-4.1004,-4.0468,-3.9524,-3.8629,-3.7841,-3.7148,-3.6051,-3.5487,-2.2522,0.0,0.0,0.0,0.0,0.0,0.0,0.0,0.0,0.0,0.0,0.0,0.0,0.0,0.0,-3.7532,-3.777,-3.8131,-3.874,-3.9142,-3.9462,-3.9633,-3.9718,-3.9802,-3.9999,-4.0153,-4.0306,-4.0376,-4.0556,-4.0481,-4.0082,-4.0134,-3.9963,-3.9605,-4.0095,-4.0458,-4.0648,-4.1433,-4.1982,-4.2239,-4.2731,-4.301,-4.3105,-4.309,-4.3329,-4.3581,-4.391,-4.4435,-4.4996,-4.5641,-4.6253,-4.6807,-4.7675,-4.8568,-4.9413,-5.0073,-5.0563,-5.0988,-5.1557,-5.1778,-5.1924,-5.2694,-5.2903,-5.2822,-5.2404,-5.1922,-5.1337,-5.0606,-4.9964,-4.9547,-4.959,-4.959,-4.9649,-4.9935,-5.0011,-5.0011,-5.0011,-5.0011,-5.0011,-5.0011,-5.0011,-5.0011,-5.0011,-5.0051,-5.0092,-5.0092,-5.0302,-5.0018,-4.8888,-4.8224,-4.7538,-4.6765,-4.6414,-4.6172,-4.6172,-4.58,-4.5414,-4.5115,-4.4237,-4.3219,-4.2131,-4.178,-4.156,-4.1471,-4.1426,-4.1108,-4.0394,-3.9541,-3.8819,-3.8201,-3.687,-3.6242,0.0,0.0,0.0,0.0,0.0,0.0,0.0,0.0,0.0,0.0,0.0,0.0,0.0,-3.8574,-3.8323,-3.7986,-3.776,-3.7917,-3.8531,-3.8615,-3.8779,-3.9201,-3.9201,-3.9282,-3.9458,-3.9539,-3.9524,-3.9524,-3.9524,-3.951,-3.9453,-3.9664,-3.978,-3.9722,-4.008,-4.0344,-4.0344,-4.1224,-4.1706,-4.1926,-4.2847,-4.3412,-4.3678,-4.3472,-4.366,-4.4065,-4.4511,-4.4964,-4.5515,-4.5515,-4.6171,-4.7018,-4.7082,-4.8041,-4.9341,-4.9598,-5.0123,-5.0855,-5.1361,-5.1581,-5.1743,-5.2577,-5.2803,-5.2754,-5.2471,-5.199,-5.1337,-5.0674,-5.0015,-4.9488,-4.9488,-4.9488,-4.9547,-4.9877,-4.9935,-4.9935,-4.9935,-4.9935,-4.9935,-4.9935,-4.9935,-4.9935,-4.9935,-4.9935,-5.0011,-5.0011,-5.0206,-5.0136,-4.9552,-4.8978,-4.831,-4.7485,-4.6765,-4.6309,-4.6239,-4.6172,-4.5923,-4.5238,-4.5133,-4.4466,-4.3079,-4.2166,-4.1674,-4.1604,-4.1471,-4.1363,-4.1209,-4.037,-3.9824,-3.9559,-3.8116,-3.7278,0.0,0.0,0.0,0.0,0.0,0.0,0.0,0.0,0.0,0.0,0.0,0.0,-4.0068,-3.9535,-3.9045,-3.8467,-3.8317,-3.8544,-3.9197,-3.9282,-3.9282,-3.9444,-3.9444,-3.9444,-3.9539,-3.9671,-3.975,-3.975,-3.9881,-3.9743,-3.9281,-3.947,-3.9299,-3.8804,-3.9498,-3.9929,-3.9929,-4.0808,-4.1273,-4.1473,-4.2406,-4.3045,-4.3366,-4.3745,-4.405,-4.4496,-4.5055,-4.5368,-4.5515,-4.5807,-4.6119,-4.6366,-4.7052,-4.767,-4.8152,-4.8755,-4.9208,-4.9661,-4.9987,-5.0145,-5.0525,-5.1643,-5.2033,-5.2185,-5.2977,-5.23,-5.1248,-5.1095,-5.0096,-4.9124,-4.9229,-4.929,-4.929,-4.9547,-4.9607,-4.9607,-4.9607,-4.9607,-4.9607,-4.9607,-4.9607,-4.9607,-4.9607,-4.9666,-4.9784,-5.0011,-5.0149,-5.0024,-4.9443,-4.9307,-4.882,-4.7538,-4.7239,-4.6906,-4.6274,-4.6172,-4.6151,-4.5993,-4.5431,-4.4957,-4.4624,-4.3289,-4.2254,-4.1622,-4.156,-4.1515,-4.1363,-4.0461,-4.0006,-3.9807,-3.8677,-3.8139,0.0,0.0,0.0,0.0,0.0,0.0,0.0,0.0,0.0,0.0,0.0,-4.1243,-4.0183,-3.9746,-3.9217,-3.8505,-3.8251,-3.8302,-3.8567,-3.861,-3.8625,-3.8703,-3.8689,-3.8767,-3.8845,-3.9064,-3.9218,-3.9218,-3.9343,-3.9349,-3.9042,-3.9088,-3.9002,-3.8664,-3.921,-3.9476,-3.9639,-4.0502,-4.098,-4.1188,-4.2107,-4.2724,-4.311,-4.405,-4.4587,-4.4905,-4.5278,-4.5589,-4.5807,-4.604,-4.6152,-4.6381,-4.6804,-4.7387,-4.79,-4.8295,-4.8794,-4.9333,-4.9616,-4.9826,-5.003,-5.0859,-5.1195,-5.1413,-5.2101,-5.1541,-5.0676,-5.0676,-4.9881,-4.9001,-4.9063,-4.9107,-4.9124,-4.9246,-4.9367,-4.9488,-4.9488,-4.9488,-4.9488,-4.9488,-4.9488,-4.9488,-4.9488,-4.959,-4.9708,-4.986,-5.0074,-5.0107,-4.9764,-4.962,-4.9204,-4.8487,-4.7785,-4.7222,-4.6818,-4.6432,-4.6172,-4.6172,-4.5852,-4.5484,-4.5115,-4.4325,-4.336,-4.2201,-4.1797,-4.1515,-4.138,-4.0916,-4.0635,-4.0509,-3.9565,-3.9112,0.0,0.0,0.0,0.0,0.0,0.0,0.0,0.0,0.0,0.0,0.0,-4.0887,-3.9993,-3.9709,-3.9262,-3.8454,-3.8142,-3.8005,-3.7763,-3.7777,-3.7763,-3.7929,-3.8005,-3.8081,-3.8202,-3.8441,-3.859,-3.859,-3.8723,-3.8782,-3.8782,-3.8855,-3.887,-3.887,-3.9104,-3.9322,-3.9496,-4.0239,-4.0656,-4.0902,-4.179,-4.2448,-4.286,-4.4064,-4.4818,-4.5106,-4.5395,-4.5735,-4.6112,-4.6096,-4.6349,-4.6582,-4.6668,-4.7125,-4.7886,-4.7977,-4.8421,-4.9099,-4.9378,-4.9533,-4.9618,-5.0058,-5.0376,-5.0543,-5.0875,-5.0565,-5.0084,-5.0084,-4.956,-4.9001,-4.9001,-4.9001,-4.9001,-4.9001,-4.9185,-4.9428,-4.9428,-4.9428,-4.9428,-4.9428,-4.9428,-4.9428,-4.9411,-4.959,-4.9649,-4.9708,-4.9959,-5.0189,-5.0189,-4.9858,-4.9604,-4.9518,-4.847,-4.7678,-4.7415,-4.68,-4.6379,-4.6239,-4.6172,-4.5958,-4.5326,-4.5168,-4.4501,-4.3219,-4.2289,-4.17,-4.1426,-4.1426,-4.1318,-4.1192,-4.0474,-4.0106,0.0,0.0,0.0,0.0,0.0,0.0,0.0,0.0,0.0,0.0,-4.0332,-4.0979,-4.0203,-3.9874,-3.9503,-3.8826,-3.8708,-3.8575,-3.8441,-3.8366,-3.8292,-3.8217,-3.8292,-3.8441,-3.8441,-3.8649,-3.8782,-3.8782,-3.8782,-3.8782,-3.8782,-3.8943,-3.9104,-3.9337,-3.9538,-3.9696,-3.994,-4.0016,-4.0203,-4.0414,-4.1425,-4.2255,-4.3043,-4.3443,-4.3921,-4.4532,-4.5394,-4.588,-4.6112,-4.6223,-4.6388,-4.6598,-4.6807,-4.701,-4.7329,-4.7329,-4.7583,-4.7934,-4.8001,-4.8084,-4.8398,-4.9227,-4.9625,-4.9873,-5.0723,-5.0565,-5.0084,-5.0084,-4.956,-4.9001,-4.9001,-4.9001,-4.9001,-4.9001,-4.9001,-4.9063,-4.9063,-4.9063,-4.9063,-4.9063,-4.9063,-4.9124,-4.9229,-4.9411,-4.9547,-4.9708,-4.9918,-5.0051,-5.0189,-5.0159,-4.9959,-4.9517,-4.9326,-4.8715,-4.7503,-4.7292,-4.6941,-4.6224,-4.6172,-4.6137,-4.6081,-4.5449,-4.4992,-4.4799,-4.3377,-4.2306,-4.156,-4.1471,-4.138,-4.1363,-4.115,-4.1007,0.0,0.0,0.0,0.0,0.0,0.0,0.0,0.0,0.0,0.0,-3.9085,-3.9617,-3.9811,-3.9697,-3.9446,-3.8988,-3.887,-3.8782,-3.8649,-3.8649,-3.8649,-3.8575,-3.8649,-3.8649,-3.8649,-3.8958,-3.9104,-3.9104,-3.9322,-3.9466,-3.9466,-3.9553,-3.9625,-3.9711,-3.9854,-3.9996,-4.0137,-4.0261,-4.0416,-4.0761,-4.1246,-4.1731,-4.2097,-4.2848,-4.34,-4.3882,-4.4891,-4.5492,-4.5665,-4.6244,-4.6598,-4.6807,-4.6961,-4.7098,-4.7251,-4.7437,-4.7571,-4.7704,-4.7853,-4.7935,-4.805,-4.8513,-4.8792,-4.9036,-4.9483,-4.9557,-4.9475,-4.9475,-4.9255,-4.9001,-4.9001,-4.9001,-4.9001,-4.9001,-4.9001,-4.9001,-4.8894,-4.8956,-4.9001,-4.9001,-4.9001,-4.9001,-4.9063,-4.9229,-4.9411,-4.953,-4.9725,-4.9918,-5.0051,-5.0132,-5.0163,-5.0,-4.9709,-4.91,-4.8117,-4.7643,-4.7064,-4.6274,-4.6172,-4.6172,-4.6172,-4.5905,-4.5536,-4.5115,-4.3605,-4.264,-4.2271,-4.1788,-4.1515,-4.1515,-4.1363,-4.1318,0.0,0.0,0.0,0.0,0.0,0.0,0.0,0.0,0.0,0.0,-3.7962,-3.832,-3.9237,-3.9335,-3.9301,-3.9307,-3.9162,-3.9017,-3.8943,-3.8943,-3.887,-3.8782,-3.887,-3.887,-3.8943,-3.925,-3.9496,-3.9568,-3.9854,-4.0011,-4.0011,-4.0011,-3.9996,-4.0066,-4.0081,-4.0207,-4.0401,-4.0608,-4.0814,-4.1169,-4.1339,-4.139,-4.1488,-4.2325,-4.2849,-4.3116,-4.4278,-4.5048,-4.541,-4.6046,-4.6576,-4.6961,-4.7115,-4.7251,-4.7386,-4.7638,-4.7704,-4.7787,-4.7935,-4.8001,-4.8001,-4.8001,-4.8244,-4.8483,-4.8483,-4.8736,-4.9001,-4.9001,-4.9001,-4.9001,-4.9001,-4.9001,-4.9001,-4.9001,-4.894,-4.8956,-4.8894,-4.8894,-4.894,-4.9001,-4.9001,-4.9001,-4.9001,-4.9107,-4.929,-4.9488,-4.959,-4.9784,-4.9993,-5.0109,-5.0189,-5.0341,-4.9966,-4.9396,-4.8505,-4.8012,-4.7274,-4.6242,-4.6172,-4.6172,-4.6172,-4.6172,-4.5958,-4.5396,-4.4079,-4.3202,-4.2816,-4.2201,-4.1797,-4.1604,-4.1515,-4.1471,0.0,0.0,0.0,0.0,0.0,0.0,0.0,0.0,0.0,-3.672,-3.739,-3.7882,-3.8477,-3.8818,-3.9198,-3.9834,-3.9768,-3.9625,-3.9424,-3.9177,-3.9017,-3.8782,-3.8943,-3.9177,-3.9337,-3.9553,-3.9768,-3.9925,-3.9996,-4.0011,-4.0011,-4.0011,-4.0066,-4.0277,-4.0277,-4.047,-4.0799,-4.0966,-4.1153,-4.1323,-4.1522,-4.167,-4.1898,-4.2028,-4.2125,-4.2237,-4.3611,-4.4737,-4.5584,-4.5617,-4.6225,-4.7183,-4.7183,-4.737,-4.7704,-4.7704,-4.7853,-4.8001,-4.8001,-4.8001,-4.8001,-4.8001,-4.8244,-4.8483,-4.8483,-4.8736,-4.9001,-4.9001,-4.9001,-4.9001,-4.9001,-4.9001,-4.9001,-4.9001,-4.8894,-4.8832,-4.894,-4.8894,-4.8832,-4.8956,-4.9001,-4.9001,-4.9001,-4.9107,-4.929,-4.9488,-4.959,-4.9784,-4.9993,-5.0011,-5.0051,-5.0189,-5.0324,-4.9791,-4.8435,-4.8417,-4.7871,-4.6277,-4.6172,-4.6172,-4.6172,-4.6172,-4.6154,-4.6119,-4.5396,-4.4273,-4.2816,-4.2763,-4.2359,-4.1604,-4.1604,-4.1604,0.0,0.0,0.0,0.0,0.0,0.0,0.0,0.0,-3.3404,-3.4722,-3.5474,-3.6224,-3.7297,-3.8043,-3.8537,-3.8645,-3.8985,-3.9219,-3.9149,-3.944,-3.9625,-3.9553,-3.9625,-3.9711,-3.9783,-3.9996,-4.0121,-4.0331,-4.047,-4.0339,-4.0029,-4.0013,-3.9812,-3.9513,-3.9497,-3.9765,-4.0466,-4.1119,-4.1472,-4.1686,-4.1866,-4.198,-4.2061,-4.219,-4.2302,-4.2334,-4.3057,-4.3686,-4.4313,-4.5467,-4.612,-4.6531,-4.7257,-4.7571,-4.7704,-4.7853,-4.7935,-4.8001,-4.8001,-4.8001,-4.8001,-4.8001,-4.8244,-4.8483,-4.8483,-4.8736,-4.9001,-4.9001,-4.9001,-4.9001,-4.9001,-4.9001,-4.9001,-4.8894,-4.8769,-4.8627,-4.8673,-4.8753,-4.8832,-4.8832,-4.8956,-4.9001,-4.9001,-4.9063,-4.9124,-4.929,-4.9471,-4.9607,-4.9784,-4.9935,-5.0051,-5.0189,-5.0302,-4.9844,-4.8435,-4.8417,-4.7889,-4.6277,-4.6172,-4.6172,-4.6172,-4.6172,-4.6172,-4.6172,-4.5958,-4.5308,-4.4273,-4.3289,-4.2658,-4.2359,-4.185,-4.1604,0.0,0.0,0.0,0.0,0.0,0.0,0.0,0.0,-3.1401,-3.2692,-3.3709,-3.4638,-3.5763,-3.66,-3.7351,-3.8091,-3.8491,-3.8713,-3.8713,-3.9039,-3.9313,-3.9313,-3.9313,-3.9313,-3.9382,-3.9589,-3.9726,-3.993,-4.0117,-4.0049,-3.9713,-3.9682,-3.9479,-3.9011,-3.9075,-3.9548,-4.0368,-4.102,-4.1563,-4.1947,-4.2125,-4.2174,-4.2238,-4.2445,-4.2587,-4.2571,-4.2821,-4.3244,-4.3751,-4.5,-4.5636,-4.5996,-4.698,-4.7342,-4.7506,-4.7836,-4.8001,-4.8001,-4.8001,-4.8001,-4.8001,-4.8049,-4.8244,-4.8483,-4.8564,-4.8815,-4.9001,-4.9001,-4.9001,-4.9001,-4.9001,-4.9001,-4.894,-4.8769,-4.8627,-4.8483,-4.8373,-4.85,-4.8707,-4.8786,-4.8894,-4.9001,-4.9001,-4.9001,-4.9063,-4.9168,-4.935,-4.9547,-4.9708,-4.986,-5.0051,-5.0149,-5.002,-4.951,-4.8329,-4.8137,-4.754,-4.6259,-4.6172,-4.6172,-4.6172,-4.6172,-4.6172,-4.6172,-4.6172,-4.5975,-4.5484,-4.4202,-4.3325,-4.2798,-4.2254,-4.1868,0.0,0.0,0.0,0.0,0.0,0.0,0.0,0.0,-2.9437,-3.0828,-3.2132,-3.3222,-3.3913,-3.4491,-3.5677,-3.8227,-3.8335,-3.8152,-3.8183,-3.8013,-3.7895,-3.7895,-3.7895,-3.8013,-3.8213,-3.8361,-3.8589,-3.8815,-3.8963,-3.8996,-3.898,-3.8965,-3.8949,-3.8949,-3.9187,-3.966,-4.053,-4.0737,-4.1263,-4.2077,-4.2302,-4.2381,-4.2445,-4.2775,-4.2899,-4.2899,-4.3052,-4.3461,-4.4021,-4.4148,-4.4729,-4.5546,-4.6288,-4.673,-4.699,-4.7703,-4.7984,-4.8001,-4.8001,-4.8001,-4.8066,-4.8179,-4.8356,-4.8564,-4.8769,-4.8894,-4.9001,-4.9001,-4.9001,-4.9001,-4.9001,-4.9001,-4.894,-4.861,-4.8483,-4.842,-4.8066,-4.8244,-4.8547,-4.8769,-4.8894,-4.9001,-4.9001,-4.9001,-4.9063,-4.9168,-4.935,-4.9547,-4.9649,-4.986,-4.9993,-4.9976,-4.9474,-4.8806,-4.8116,-4.7509,-4.6895,-4.6224,-4.6172,-4.6172,-4.6172,-4.6172,-4.6172,-4.6172,-4.6172,-4.6172,-4.6172,-4.5466,-4.4325,-4.2851,-4.2798,-4.2449,-1.9467,0.0,0.0,0.0,0.0,0.0,0.0,0.0,-2.7343,-2.8663,-3.0069,-3.1205,-3.1899,-3.2861,-3.3975,-3.5085,-3.6321,-3.7263,-3.7628,-3.8054,-3.8295,-3.8295,-3.8295,-3.8442,-3.8589,-3.867,-3.8865,-3.9122,-3.9171,-3.9078,-3.8638,-3.8196,-3.7912,-3.7912,-3.8507,-3.8978,-3.9229,-4.048,-4.1275,-4.1546,-4.2391,-4.2775,-4.2775,-4.2945,-4.3052,-4.3052,-4.3251,-4.3427,-4.3612,-4.4183,-4.4591,-4.4838,-4.5689,-4.649,-4.7148,-4.7348,-4.7811,-4.8356,-4.8356,-4.8356,-4.8373,-4.842,-4.8564,-4.8707,-4.8769,-4.8894,-4.9001,-4.9001,-4.9001,-4.9001,-4.9001,-4.9001,-4.894,-4.861,-4.8483,-4.842,-4.8179,-4.8356,-4.8547,-4.8547,-4.8815,-4.9001,-4.9001,-4.9001,-4.9001,-4.9063,-4.9185,-4.935,-4.953,-4.9666,-4.9636,-4.916,-4.9089,-4.8598,-4.7386,-4.7213,-4.6895,-4.6224,-4.6172,-4.6172,-4.6172,-4.6172,-4.6172,-4.6172,-4.6172,-4.6172,-4.6172,-4.5466,-4.4636,-4.3698,-4.2723,-4.2114,0.0,0.0,0.0,0.0,0.0,0.0,-2.357,-2.4582,-2.556,-2.6604,-2.7921,-2.9106,-2.9785,-3.1016,-3.2029,-3.2522,-3.3752,-3.5035,-3.6122,-3.6569,-3.6938,-3.7215,-3.7309,-3.748,-3.7917,-3.8059,-3.8185,-3.8419,-3.8558,-3.8507,-3.8277,-3.7864,-3.7642,-3.7642,-3.8141,-3.8535,-3.8882,-4.0305,-4.1136,-4.1504,-4.2541,-4.3007,-4.3007,-4.3129,-4.3235,-4.3235,-4.3432,-4.3492,-4.3542,-4.4032,-4.4214,-4.4357,-4.5114,-4.5801,-4.6469,-4.7087,-4.7617,-4.8082,-4.8366,-4.8483,-4.8483,-4.8627,-4.8707,-4.8786,-4.8894,-4.8956,-4.9001,-4.9001,-4.9001,-4.9001,-4.9001,-4.894,-4.8815,-4.8547,-4.842,-4.8356,-4.8227,-4.8356,-4.8547,-4.8627,-4.8815,-4.9001,-4.9001,-4.9001,-4.9001,-4.9001,-4.9107,-4.929,-4.9471,-4.959,-4.9475,-4.8833,-4.8618,-4.8055,-4.7021,-4.6743,-4.6461,-4.6157,-4.6172,-4.6172,-4.6172,-4.6172,-4.6172,-4.6172,-4.6172,-4.6221,-4.6253,-4.5862,-4.5135,-4.4135,-4.2695,-4.2055,0.0,0.0,0.0,0.0,0.0,0.0,-2.2173,-2.3044,-2.402,-2.4641,-2.5803,-2.6957,-2.762,-2.8884,-2.9974,-3.0386,-3.1005,-3.2151,-3.4102,-3.4352,-3.4599,-3.5351,-3.5533,-3.5825,-3.649,-3.6779,-3.699,-3.7112,-3.7519,-3.7759,-3.7876,-3.7876,-3.7876,-3.7876,-3.7934,-3.8338,-3.9124,-4.0049,-4.094,-4.171,-4.2675,-4.3113,-4.3113,-4.3312,-4.3432,-4.3449,-4.3568,-4.3628,-4.3628,-4.3839,-4.3898,-4.3964,-4.458,-4.5,-4.5369,-4.6675,-4.7323,-4.7558,-4.8212,-4.848,-4.861,-4.8769,-4.8832,-4.8832,-4.894,-4.9001,-4.9001,-4.9001,-4.9001,-4.9001,-4.9001,-4.8894,-4.8769,-4.8547,-4.8356,-4.8227,-4.8227,-4.8356,-4.8547,-4.8769,-4.8894,-4.9001,-4.9001,-4.9001,-4.9001,-4.9001,-4.9107,-4.9229,-4.9488,-4.9521,-4.9354,-4.8729,-4.8027,-4.7341,-4.6688,-4.6135,-4.5871,-4.5972,-4.6122,-4.6172,-4.6172,-4.6172,-4.6172,-4.6172,-4.6221,-4.6266,-4.6305,-4.6235,-4.5541,-4.4289,-4.2807,-4.2145,0.0,0.0,0.0,0.0,0.0,0.0,-2.271,-2.2595,-2.2575,-2.3185,-2.3954,-2.476,-2.5496,-2.6693,-2.7727,-2.8217,-2.8808,-3.0262,-3.3224,-3.3614,-3.3933,-3.4744,-3.4895,-3.5043,-3.5399,-3.5457,-3.5865,-3.6648,-3.7425,-3.7876,-3.7876,-3.7876,-3.7876,-3.7876,-3.8049,-3.8286,-3.8545,-4.0014,-4.0906,-4.1154,-4.2627,-4.3312,-4.3372,-4.3492,-4.3568,-4.3568,-4.3568,-4.3687,-4.3822,-4.3898,-4.3898,-4.3914,-4.4148,-4.4725,-4.5379,-4.5665,-4.6658,-4.7815,-4.7966,-4.8388,-4.894,-4.8956,-4.894,-4.8956,-4.9001,-4.9001,-4.9001,-4.9001,-4.9001,-4.8956,-4.8894,-4.8832,-4.8707,-4.8356,-4.8227,-4.8227,-4.842,-4.8483,-4.861,-4.8877,-4.9001,-4.9001,-4.9001,-4.9001,-4.9001,-4.9001,-4.9001,-4.9185,-4.9488,-4.9017,-4.8483,-4.7954,-4.7269,-4.6564,-4.5875,-4.5805,-4.5871,-4.5972,-4.6122,-4.6172,-4.6172,-4.6172,-4.6172,-4.6172,-4.6319,-4.6177,-4.5726,-4.5141,-4.476,-4.4423,-4.2952,-4.2305,0.0,0.0,0.0,-2.3681,0.0,0.0,0.0,-2.2245,-2.2067,-2.2346,-2.2643,-2.3101,-2.3796,-2.4713,-2.5519,-2.6065,-2.6663,-2.786,-3.016,-3.1087,-3.1905,-3.3036,-3.3255,-3.3685,-3.45,-3.4731,-3.5237,-3.6214,-3.6726,-3.699,-3.7078,-3.748,-3.7713,-3.7713,-3.8237,-3.8544,-3.86,-4.0206,-4.1041,-4.1099,-4.2815,-4.3645,-4.3628,-4.3805,-4.3864,-4.3864,-4.3864,-4.3923,-4.3998,-4.4039,-4.4097,-4.4097,-4.4138,-4.4545,-4.5031,-4.5402,-4.6321,-4.7411,-4.7784,-4.8392,-4.9001,-4.9001,-4.9001,-4.9001,-4.9001,-4.9001,-4.9001,-4.9001,-4.9001,-4.894,-4.8832,-4.8707,-4.8564,-4.8292,-4.8179,-4.8179,-4.842,-4.8483,-4.861,-4.894,-4.9001,-4.9001,-4.9001,-4.9001,-4.9001,-4.9001,-4.9001,-4.8989,-4.8992,-4.8616,-4.8066,-4.7231,-4.6837,-4.6286,-4.5545,-4.5667,-4.5821,-4.5871,-4.6073,-4.6172,-4.6172,-4.6172,-4.6221,-4.6301,-4.6495,-4.6247,-4.5605,-4.4973,-4.4421,-4.3985,-4.2917,-4.2445,0.0,0.0,0.0,0.0,0.0,-2.3195,0.0,0.0,0.0,-2.1884,0.0,0.0,0.0,0.0,0.0,-2.4131,0.0,0.0,0.0,-2.7705,0.0,-3.0887,-3.1404,-3.2076,-3.3275,-3.3874,-3.4537,-3.531,-3.5723,-3.5953,-3.6145,-3.6869,-3.7399,-3.753,-3.8226,-3.8657,-3.886,-4.0473,-4.1255,-4.1312,-4.3107,-4.3956,-4.3956,-4.4056,-4.4097,-4.4097,-4.4097,-4.4097,-4.4155,-4.4253,-4.431,-4.4367,-4.4367,-4.444,-4.4654,-4.5263,-4.6041,-4.6887,-4.7479,-4.8274,-4.9001,-4.9001,-4.9001,-4.9001,-4.9001,-4.9001,-4.9001,-4.9001,-4.9001,-4.894,-4.8769,-4.8627,-4.842,-4.8244,-4.8049,-4.8115,-4.842,-4.8483,-4.861,-4.894,-4.9001,-4.9001,-4.9001,-4.9001,-4.9001,-4.9001,-4.9001,-4.8853,-4.848,-4.8316,-4.7832,-4.6697,-4.6475,-4.613,-4.5475,-4.5667,-4.5821,-4.5821,-4.6073,-4.6172,-4.6172,-4.6221,-4.6301,-4.6477,-4.6542,-4.6219,-4.5419,-4.4872,-4.4217,-4.3525,-4.2821,-4.2544,0.0,0.0,0.0,0.0,-2.5194,0.0,0.0,0.0,-2.1884,-2.1818,0.0,0.0,0.0,0.0,0.0,0.0,0.0,0.0,-2.3745,-2.4224,-2.5644,-2.8826,-2.9798,-3.0399,-3.0767,-3.2158,-3.3044,-3.3124,-3.457,-3.5454,-3.5522,-3.6261,-3.6983,-3.7637,-3.7789,-3.8204,-3.8969,-4.0618,-4.1531,-4.1683,-4.328,-4.4114,-4.4097,-4.4097,-4.4097,-4.4097,-4.4097,-4.4155,-4.431,-4.4293,-4.444,-4.457,-4.457,-4.457,-4.4587,-4.4671,-4.5602,-4.6802,-4.6887,-4.7834,-4.9001,-4.9001,-4.9001,-4.9001,-4.9001,-4.9001,-4.9001,-4.9001,-4.9001,-4.894,-4.861,-4.8547,-4.842,-4.8131,-4.8001,-4.8115,-4.842,-4.8483,-4.861,-4.894,-4.9001,-4.9001,-4.9001,-4.9001,-4.9001,-4.9001,-4.9107,-4.8974,-4.848,-4.7929,-4.7361,-4.67,-4.5975,-4.558,-4.5581,-4.5718,-4.5821,-4.5972,-4.6122,-4.6172,-4.6172,-4.6301,-4.6495,-4.6731,-4.6102,-4.5446,-4.4897,-4.4091,-4.3704,-4.3555,-4.2907,-4.2667,0.0,0.0,0.0,0.0,0.0,0.0,-2.4484,0.0,-2.2886,0.0,0.0,0.0,0.0,0.0,0.0,0.0,-2.1921,-2.2086,0.0,0.0,-2.4217,-2.6816,-2.7501,-2.8199,-2.9262,-3.0314,-3.1209,-3.1769,-3.251,-3.3306,-3.417,-3.5054,-3.6023,-3.719,-3.7774,-3.851,-3.9255,-4.0463,-4.1321,-4.181,-4.3015,-4.3793,-4.4196,-4.4344,-4.44,-4.44,-4.44,-4.4384,-4.444,-4.444,-4.4514,-4.4587,-4.4587,-4.4587,-4.4587,-4.4587,-4.5517,-4.6786,-4.6786,-4.7767,-4.9001,-4.9001,-4.9001,-4.9001,-4.9001,-4.9001,-4.9001,-4.9001,-4.9001,-4.894,-4.8753,-4.8564,-4.842,-4.8179,-4.8066,-4.8115,-4.842,-4.8483,-4.861,-4.894,-4.9001,-4.9001,-4.9001,-4.9001,-4.9001,-4.9001,-4.8751,-4.8328,-4.7814,-4.7175,-4.6588,-4.5956,-4.563,-4.5476,-4.5581,-4.5718,-4.5871,-4.5972,-4.6221,-4.6301,-4.6301,-4.6495,-4.6731,-4.6888,-4.6212,-4.5515,-4.4899,-4.4155,-4.3566,-4.3195,-4.2889,-4.2765,-3.0227,0.0,0.0,0.0,0.0,0.0,0.0,0.0,0.0,0.0,0.0,0.0,0.0,0.0,0.0,0.0,0.0,-2.137,0.0,-2.1992,0.0,0.0,-2.5449,0.0,-2.7895,-2.8533,-2.9243,-3.0163,-3.0675,-3.1389,-3.2512,-3.3785,-3.502,-3.6356,-3.7502,-3.8487,-3.9237,-4.0314,-4.1104,-4.1657,-4.2762,-4.3541,-4.4063,-4.4412,-4.4626,-4.4626,-4.4626,-4.4682,-4.4737,-4.4737,-4.4737,-4.4737,-4.4737,-4.4737,-4.4682,-4.4643,-4.5517,-4.6786,-4.6786,-4.7767,-4.9001,-4.9001,-4.9001,-4.9001,-4.9001,-4.9001,-4.9001,-4.9001,-4.9001,-4.894,-4.8832,-4.869,-4.8547,-4.8356,-4.8244,-4.8244,-4.85,-4.8564,-4.869,-4.894,-4.9001,-4.9001,-4.9001,-4.9001,-4.9001,-4.9063,-4.8557,-4.797,-4.7392,-4.6752,-4.6106,-4.5457,-4.5423,-4.5528,-4.5615,-4.577,-4.5922,-4.6122,-4.6301,-4.6429,-4.6495,-4.6731,-4.6934,-4.7043,-4.6193,-4.5515,-4.5065,-4.4101,-4.3405,-4.2975,-4.2918,-4.2918,0.0,0.0,0.0,-2.8649,0.0,0.0,0.0,0.0,-2.4356,0.0,0.0,0.0,0.0,0.0,0.0,0.0,0.0,0.0,0.0,0.0,0.0,0.0,0.0,0.0,0.0,-2.6789,-2.7215,-2.802,-2.956,-3.0425,-3.0474,-3.2618,-3.4233,-3.5138,-3.6554,-3.777,-3.8623,-4.0202,-4.0995,-4.1028,-4.2672,-4.3436,-4.3487,-4.4231,-4.4682,-4.4776,-4.4776,-4.4886,-4.4978,-4.4978,-4.4978,-4.4978,-4.4978,-4.4978,-4.494,-4.4682,-4.5517,-4.6786,-4.6786,-4.7767,-4.9001,-4.9001,-4.9001,-4.9001,-4.9001,-4.9001,-4.9001,-4.9001,-4.9001,-4.894,-4.8832,-4.8786,-4.8769,-4.8547,-4.8483,-4.8547,-4.8769,-4.8769,-4.8832,-4.894,-4.9001,-4.9001,-4.9001,-4.9001,-4.9063,-4.9168,-4.8737,-4.8179,-4.754,-4.6952,-4.6303,-4.551,-4.5528,-4.5667,-4.577,-4.5922,-4.6122,-4.6398,-4.6398,-4.6542,-4.6795,-4.6934,-4.7043,-4.7196,-4.5785,-4.5142,-4.5291,-4.3697,-4.3031,-4.3214,-4.3123,-4.3123,-3.1505,-3.1111,-3.0495,-2.9385,-2.8647,0.0,0.0,0.0,0.0,0.0,0.0,0.0,0.0,0.0,0.0,0.0,0.0,0.0,0.0,0.0,-2.0956,0.0,0.0,0.0,0.0,0.0,-2.5272,-2.6578,-2.7175,-2.8372,-3.0344,-3.1729,-3.3278,-3.5038,-3.6714,-3.7951,-3.8707,-3.9868,-4.0645,-4.1152,-4.1659,-4.2272,-4.2816,-4.3651,-4.4062,-4.4241,-4.4719,-4.4978,-4.4978,-4.4978,-4.4978,-4.4978,-4.4978,-4.5285,-4.5712,-4.5601,-4.6136,-4.7039,-4.7979,-4.8578,-4.9001,-4.9001,-4.9001,-4.9001,-4.9001,-4.9001,-4.9001,-4.9001,-4.9001,-4.9001,-4.894,-4.8894,-4.8769,-4.8707,-4.8627,-4.8564,-4.8769,-4.8786,-4.8832,-4.894,-4.9001,-4.8849,-4.848,-4.8395,-4.8395,-4.8455,-4.7987,-4.741,-4.6769,-4.6178,-4.5717,-4.5546,-4.5563,-4.5667,-4.5922,-4.6172,-4.6301,-4.6381,-4.659,-4.6749,-4.6934,-4.7043,-4.7223,-4.7399,-4.6483,-4.5812,-4.5446,-4.4414,-4.3707,-4.3393,-4.3393,-4.3358,-3.229,-3.1921,-3.1474,-3.0381,-2.9612,-2.8889,-2.7965,-2.7442,-2.7041,0.0,0.0,0.0,0.0,0.0,0.0,0.0,0.0,0.0,0.0,-2.0844,0.0,0.0,0.0,0.0,0.0,0.0,-2.405,-2.5622,-2.6005,-2.7234,-2.9752,-3.0858,-3.2393,-3.4409,-3.6038,-3.7393,-3.8469,-3.9277,-4.007,-4.0798,-4.1068,-4.151,-4.2158,-4.2923,-4.3522,-4.4007,-4.4487,-4.4847,-4.514,-4.514,-4.514,-4.514,-4.514,-4.562,-4.6272,-4.6144,-4.6681,-4.7656,-4.8761,-4.9124,-4.9063,-4.9063,-4.9063,-4.9001,-4.9001,-4.9001,-4.9001,-4.9001,-4.9001,-4.9001,-4.9001,-4.8956,-4.8894,-4.8894,-4.8753,-4.8673,-4.8832,-4.8894,-4.8894,-4.9063,-4.8843,-4.8582,-4.8286,-4.7962,-4.7792,-4.7868,-4.7318,-4.6764,-4.6467,-4.5836,-4.5528,-4.5581,-4.5684,-4.5871,-4.6122,-4.635,-4.6495,-4.6542,-4.6731,-4.6934,-4.7088,-4.7267,-4.7443,-4.7554,-4.6944,-4.6452,-4.6079,-4.5296,-4.4766,-4.4465,-4.4465,-4.4446]}]]